[[{"header":{"parameterUnit":"m.s-1","parameterCategory":1,"la1":31.0,"la2":29.5877,"lo1":-88.7671,"lo2":-86.6584,"dy":0.0162,"dx":0.0185,"nx":115,"ny":88,"refTime":"2023-05-23T06:00:00:Z","depth":0,"parameterNumber":2,"parameterNumberName":"U-component_of_WINDS"},"data":[0.0,0.0,0.0,0.0,0.0,0.0,0.0,0.0,0.0,0.0,0.0,0.0,0.0,0.0,0.0,0.0,0.0,0.0,0.0,0.0,0.0,0.0,0.0,0.0,0.0,0.0,0.0,0.0,0.0,0.0,0.0,0.0,0.0,0.0,0.0,0.0,0.0,0.0,0.0,0.0,0.0,0.0,0.0,0.0,0.0,0.0,0.0,0.0,0.0,0.0,0.0,0.0,0.0,0.0,0.0,0.0,0.0,0.0,0.0,0.0,0.0,0.0,0.0,0.0,0.0,0.0,0.0,0.0,0.0,0.0,0.0,0.0,0.0,0.0,0.0,0.0,0.0,0.0,0.0,0.0,0.0,0.0,0.0,0.0,0.0,0.0,0.0,0.0,0.0,0.0,0.0,0.0,0.0,0.0,0.0,0.0,0.0,0.0,0.0,0.0,0.0,0.0,0.0,0.0,0.0,0.0,0.0,0.0,0.0,0.0,0.0,0.0,0.0,0.0,0.0,0.0,0.0,0.0,0.0,0.0,0.0,0.0,0.0,0.0,0.0,0.0,0.0,0.0,0.0,0.0,0.0,0.0,0.0,0.0,0.0,0.0,0.0,0.0,0.0,0.0,0.0,0.0,0.0,0.0,0.0,0.0,0.0,0.0,0.0,0.0,0.0,0.0,0.0,0.0,0.0,0.0,0.0,0.0,0.0,0.0,0.0,0.0,0.0,0.0,0.0,0.0,0.0,0.0,0.0,0.0,0.0,0.0,0.0,0.0,0.0,0.0,0.0,0.0,0.0,0.0,0.0,0.0,0.0,0.0,0.0,0.0,0.0,0.0,0.0,0.0,0.0,0.0,0.0,0.0,0.0,0.0,0.0,0.0,0.0,0.0,0.0,0.0,0.0,0.0,0.0,0.0,0.0,0.0,0.0,0.0,0.0,0.0,0.0,0.0,0.0,0.0,0.0,0.0,0.0,0.0,0.0,0.0,0.0,0.0,0.0,0.0,0.0,0.0,0.0,0.0,0.0,0.0,0.0,0.0,0.0,0.0,0.0,0.0,0.0,0.0,0.0,0.0,0.0,0.0,0.0,0.0,0.0,0.0,0.0,0.0,0.0,0.0,0.0,0.0,0.0,0.0,0.0,0.0,0.0,0.0,0.0,0.0,0.0,0.0,0.0,0.0,0.0,0.0,0.0,0.0,0.0,0.0,0.0,0.0,0.0,0.0,0.0,0.0,0.0,0.0,0.0,0.0,0.0,0.0,0.0,0.0,0.0,0.0,0.0,0.0,0.0,0.0,0.0,0.0,0.0,0.0,0.0,0.0,0.0,0.0,0.0,0.0,0.0,0.0,0.0,0.0,0.0,0.0,0.0,0.0,0.0,0.0,0.0,0.0,0.0,0.0,0.0,0.0,0.0,0.0,0.0,0.0,0.0,0.0,0.0,0.0,0.0,0.0,0.0,0.0,0.0,0.0,0.0,0.0,0.0,0.0,0.0,0.0,0.0,0.0,0.0,0.0,0.0,0.0,0.0,0.0,0.0,0.0,0.0,0.0,0.0,0.0,0.0,0.0,0.0,0.0,0.0,0.0,0.0,0.0,0.0,0.0,0.0,0.0,0.0,0.0,0.0,0.0,0.0,0.0,0.0,0.0,0.0,0.0,0.0,0.0,0.0,0.0,0.0,0.0,0.0,0.0,0.0,0.0,0.0,0.0,0.0,0.0,0.0,0.0,0.0,0.0,0.0,0.0,0.0,0.0,0.0,0.0,0.0,0.0,0.0,0.0,0.0,0.0,0.0,0.0,0.0,0.0,0.0,0.0,0.0,0.0,0.0,0.0,0.0,0.0,0.0,0.0,0.0,0.0,0.0,0.0,0.0,0.0,0.0,0.0,0.0,0.0,0.0,0.0,0.0,0.0,0.0,0.0,0.0,0.0,0.0,0.0,0.0,0.0,0.0,0.0,0.0,0.0,0.0,0.0,0.0,0.0,0.0,0.0,0.0,0.0,0.0,0.0,0.0,0.0,0.0,0.0,0.0,0.0,0.0,0.0,0.0,0.0,0.0,0.0,0.0,0.0,0.0,0.0,0.0,0.0,0.0,0.0,0.0,0.0,0.0,0.0,0.0,0.0,0.0,0.0,0.0,0.0,0.0,0.0,0.0,0.0,0.0,0.0,0.0,0.0,0.0,0.0,0.0,0.0,0.0,0.0,0.0,0.0,0.0,0.0,0.0,0.0,0.0,0.0,0.0,0.0,0.0,0.0,0.0,0.0,0.0,0.0,0.0,0.0,0.0,0.0,0.0,0.0,0.0,0.0,0.0,0.0,0.0,0.0,0.0,0.0,0.0,0.0,0.0,0.0,0.0,0.0,0.0,0.0,0.0,0.0,0.0,0.0,0.0,0.0,0.0,0.0,0.0,0.0,0.0,0.0,0.0,0.0,0.0,0.0,0.0,0.0,0.0,0.0,0.0,0.0,0.0,0.0,0.0,0.0,0.0,0.0,0.0,0.0,0.0,0.0,0.0,0.0,0.0,0.0,0.0,0.0,0.0,0.0,0.0,0.0,0.0,0.0,0.0,0.0,0.0,0.0,0.0,0.0,0.0,0.0,0.0,0.0,0.0,0.0,0.0,0.0,0.0,0.0,0.0,0.0,0.0,0.0,0.0,0.0,0.0,0.0,0.0,0.0,0.0,0.0,0.0,0.0,0.0,0.0,0.0,0.0,0.0,0.0,0.0,0.0,0.0,0.0,0.0,0.0,0.0,0.0,0.0,0.0,0.0,0.0,0.0,0.0,0.0,0.0,0.0,0.0,0.0,0.0,0.0,0.0,0.0,0.0,0.0,0.0,0.0,0.0,0.0,0.0,0.0,0.0,0.0,0.0,0.0,0.0,0.0,0.0,0.0,0.0,0.0,0.0,0.0,0.0,0.0,0.0,0.0,0.0,0.0,0.0,0.0,0.0,0.0,0.0,0.0,0.0,0.0,0.0,0.0,0.0,0.0,0.0,0.0,0.0,0.0,0.0,0.0,0.0,0.0,0.0,0.0,0.0,0.0,0.0,0.0,0.0,0.0,0.0,0.0,0.0,0.0,0.0,0.0,0.0,0.0,0.0,0.0,0.0,0.0,0.0,0.0,0.0,0.0,0.0,0.0,0.0,0.0,0.0,0.0,0.0,0.0,0.0,0.0,0.0,0.0,0.0,0.0,0.0,0.0,0.0,0.0,0.0,0.0,0.0,0.0,0.0,0.0,0.0,0.0,0.0,0.0,0.0,0.0,0.0,0.0,0.0,0.0,0.0,0.0,0.0,0.0,0.0,0.0,0.0,0.0,0.0,0.0,0.0,0.0,0.0,0.0,0.0,0.0,0.0,0.0,0.0,0.0,0.0,0.0,0.0,0.0,0.0,0.0,0.0,0.0,0.0,0.0,0.0,0.0,0.0,0.0,0.0,0.0,0.0,0.0,0.0,0.0,0.0,0.0,0.0,0.0,0.0,0.0,0.0,0.0,0.0,0.0,0.0,0.0,0.0,0.0,0.0,0.0,0.0,0.0,0.0,0.0,0.0,0.0,0.0,0.0,0.0,0.0,0.0,0.0,0.0,0.0,0.0,0.0,0.0,0.0,0.0,0.0,0.0,0.0,0.0,0.0,0.0,0.0,0.0,0.0,0.0,0.0,0.0,0.0,0.0,0.0,0.0,0.0,0.0,0.0,0.0,0.0,0.0,0.0,0.0,0.0,0.0,0.0,0.0,0.0,0.0,0.0,0.0,0.0,0.0,0.0,0.0,0.0,0.0,0.0,0.0,0.0,0.0,0.0,0.0,0.0,0.0,0.0,0.0,0.0,0.0,0.0,0.0,0.0,0.0,0.0,0.0,0.0,0.0,0.0,0.0,0.0,0.0,0.0,0.0,0.0,0.0,0.0,0.0,0.0,0.0,0.0,0.0,0.0,0.0,0.0,0.0,0.0,0.0,0.0,0.0,0.0,0.0,0.0,0.0,0.0,0.0,0.0,0.0,0.0,0.0,0.0,0.0,0.0,0.0,0.0,0.0,0.0,0.0,0.0,0.0,0.0,0.0,0.0,0.0,0.0,0.0,0.0,0.0,0.0,0.0,0.0,0.0,0.0,0.0,0.0,0.0,0.0,0.0,0.0,0.0,0.0,0.0,0.0,0.0,0.0,0.0,0.0,0.0,0.0,0.0,0.0,0.0,0.0,0.0,0.0,0.0,0.0,0.0,0.0,0.0,0.0,0.0,0.0,0.0,0.0,0.0,0.0,0.0,3.322,0.0,0.0,0.0,0.0,0.0,0.0,0.0,0.0,0.0,0.0,0.0,0.0,0.0,0.0,0.0,0.0,0.0,0.0,0.0,0.0,0.0,0.0,0.0,0.0,0.0,0.0,0.0,0.0,0.0,0.0,0.0,0.0,0.0,0.0,0.0,0.0,0.0,0.0,0.0,0.0,0.0,0.0,0.0,0.0,0.0,0.0,0.0,0.0,0.0,0.0,0.0,0.0,0.0,0.0,0.0,0.0,0.0,0.0,0.0,0.0,0.0,0.0,0.0,0.0,0.0,0.0,0.0,0.0,0.0,0.0,0.0,0.0,0.0,0.0,0.0,0.0,0.0,0.0,0.0,0.0,0.0,0.0,0.0,0.0,0.0,0.0,0.0,0.0,0.0,0.0,0.0,0.0,0.0,0.0,0.0,0.0,0.0,0.0,0.0,0.0,0.0,0.0,0.0,0.0,0.0,0.0,0.0,0.0,0.0,0.0,3.5233,3.5566,3.4151,3.3384,3.335,0.0,0.0,0.0,0.0,0.0,0.0,0.0,0.0,0.0,0.0,0.0,0.0,0.0,0.0,0.0,0.0,0.0,0.0,0.0,0.0,0.0,0.0,0.0,0.0,0.0,0.0,0.0,0.0,0.0,0.0,0.0,0.0,0.0,0.0,0.0,0.0,0.0,0.0,0.0,0.0,0.0,0.0,0.0,0.0,0.0,0.0,0.0,0.0,0.0,0.0,0.0,0.0,0.0,0.0,0.0,0.0,0.0,0.0,0.0,0.0,0.0,0.0,0.0,0.0,0.0,0.0,0.0,0.0,0.0,0.0,0.0,0.0,0.0,0.0,0.0,0.0,0.0,0.0,0.0,0.0,0.0,0.0,0.0,0.0,0.0,0.0,0.0,0.0,0.0,0.0,0.0,0.0,0.0,0.0,0.0,0.0,0.0,0.0,0.0,0.0,0.0,0.0,0.0,0.0,0.0,0.0,0.0,0.0,0.0,0.0,0.0,0.0,3.4331,3.348,3.3119,0.0,0.0,0.0,0.0,0.0,0.0,0.0,0.0,0.0,0.0,0.0,0.0,0.0,0.0,0.0,0.0,0.0,0.0,0.0,0.0,0.0,0.0,0.0,0.0,0.0,0.0,0.0,0.0,0.0,0.0,0.0,0.0,0.0,0.0,0.0,0.0,0.0,0.0,0.0,0.0,0.0,0.0,0.0,0.0,0.0,0.0,0.0,0.0,0.0,0.0,0.0,0.0,0.0,0.0,0.0,0.0,0.0,0.0,0.0,0.0,0.0,0.0,0.0,0.0,0.0,0.0,0.0,0.0,0.0,0.0,0.0,0.0,0.0,0.0,0.0,0.0,0.0,0.0,0.0,0.0,0.0,0.0,0.0,0.0,0.0,0.0,0.0,0.0,0.0,0.0,0.0,0.0,0.0,0.0,0.0,0.0,0.0,0.0,0.0,0.0,0.0,0.0,0.0,0.0,0.0,0.0,0.0,0.0,0.0,0.0,3.5605,3.5566,3.4805,0.0,3.2457,0.0,0.0,0.0,0.0,0.0,0.0,0.0,0.0,0.0,0.0,0.0,0.0,0.0,0.0,0.0,0.0,0.0,0.0,0.0,0.0,0.0,0.0,0.0,0.0,0.0,0.0,0.0,0.0,0.0,0.0,0.0,0.0,0.0,0.0,0.0,0.0,0.0,0.0,0.0,0.0,0.0,0.0,0.0,0.0,0.0,0.0,0.0,0.0,0.0,0.0,0.0,0.0,0.0,0.0,0.0,0.0,0.0,0.0,0.0,0.0,0.0,0.0,0.0,0.0,0.0,0.0,0.0,0.0,0.0,0.0,0.0,0.0,0.0,0.0,0.0,0.0,0.0,0.0,0.0,0.0,0.0,0.0,0.0,0.0,0.0,0.0,0.0,0.0,0.0,0.0,0.0,0.0,0.0,0.0,0.0,0.0,0.0,0.0,0.0,0.0,0.0,0.0,0.0,0.0,0.0,0.0,0.0,0.0,0.0,0.0,3.5605,3.5605,3.4466,3.3361,0.0,0.0,0.0,0.0,0.0,0.0,0.0,0.0,0.0,0.0,0.0,0.0,0.0,0.0,0.0,0.0,0.0,0.0,0.0,0.0,0.0,0.0,0.0,0.0,0.0,0.0,0.0,0.0,0.0,0.0,0.0,0.0,0.0,0.0,0.0,0.0,0.0,0.0,0.0,0.0,0.0,0.0,0.0,0.0,0.0,0.0,0.0,0.0,0.0,0.0,0.0,0.0,0.0,0.0,0.0,0.0,0.0,0.0,0.0,0.0,0.0,0.0,0.0,0.0,0.0,0.0,0.0,0.0,0.0,0.0,0.0,0.0,0.0,0.0,0.0,0.0,0.0,0.0,0.0,0.0,0.0,0.0,0.0,0.0,0.0,0.0,0.0,0.0,0.0,0.0,0.0,0.0,0.0,0.0,0.0,0.0,0.0,0.0,0.0,0.0,0.0,0.0,0.0,0.0,0.0,0.0,0.0,0.0,0.0,0.0,3.4827,3.5605,3.5538,3.4157,3.3147,3.2632,0.0,0.0,0.0,0.0,0.0,0.0,0.0,0.0,0.0,0.0,0.0,0.0,0.0,0.0,0.0,0.0,0.0,0.0,0.0,0.0,0.0,0.0,0.0,0.0,0.0,0.0,0.0,0.0,0.0,0.0,0.0,0.0,0.0,0.0,0.0,0.0,0.0,0.0,0.0,0.0,0.0,0.0,0.0,0.0,0.0,0.0,0.0,0.0,0.0,0.0,0.0,0.0,0.0,0.0,0.0,0.0,0.0,0.0,0.0,0.0,0.0,0.0,0.0,0.0,0.0,0.0,0.0,0.0,0.0,0.0,0.0,0.0,0.0,0.0,0.0,0.0,0.0,0.0,0.0,0.0,0.0,0.0,0.0,0.0,0.0,0.0,0.0,0.0,0.0,0.0,0.0,0.0,0.0,0.0,0.0,0.0,0.0,0.0,0.0,0.0,0.0,0.0,0.0,0.0,0.0,0.0,0.0,0.0,3.3452,3.4833,3.5605,3.5571,3.419,3.3384,0.0,0.0,0.0,0.0,0.0,0.0,0.0,0.0,0.0,0.0,0.0,0.0,0.0,0.0,0.0,0.0,0.0,0.0,0.0,0.0,0.0,0.0,0.0,0.0,0.0,0.0,0.0,0.0,0.0,0.0,0.0,0.0,0.0,0.0,0.0,0.0,0.0,0.0,0.0,0.0,0.0,0.0,0.0,0.0,0.0,0.0,0.0,0.0,0.0,0.0,0.0,0.0,0.0,0.0,0.0,0.0,0.0,0.0,0.0,0.0,0.0,0.0,0.0,0.0,0.0,0.0,0.0,0.0,0.0,0.0,0.0,0.0,0.0,0.0,0.0,0.0,0.0,0.0,0.0,0.0,0.0,0.0,0.0,0.0,0.0,0.0,0.0,0.0,0.0,0.0,0.0,0.0,0.0,0.0,0.0,0.0,0.0,0.0,0.0,0.0,0.0,0.0,0.0,0.0,0.0,0.0,0.0,0.0,0.0,3.4134,3.5064,3.5605,3.5566,3.4151,3.3384,0.0,0.0,0.0,0.0,0.0,0.0,0.0,0.0,0.0,0.0,0.0,0.0,0.0,0.0,0.0,0.0,0.0,0.0,0.0,0.0,0.0,0.0,0.0,0.0,0.0,0.0,0.0,0.0,0.0,0.0,0.0,0.0,0.0,0.0,0.0,0.0,0.0,0.0,0.0,0.0,0.0,0.0,0.0,0.0,0.0,0.0,0.0,0.0,0.0,0.0,0.0,0.0,0.0,0.0,0.0,0.0,0.0,0.0,0.0,0.0,0.0,0.0,0.0,0.0,0.0,0.0,0.0,0.0,0.0,0.0,0.0,0.0,0.0,0.0,0.0,0.0,0.0,0.0,0.0,0.0,0.0,0.0,0.0,0.0,0.0,0.0,0.0,0.0,0.0,0.0,0.0,0.0,0.0,0.0,0.0,0.0,0.0,0.0,0.0,0.0,0.0,0.0,0.0,0.0,0.0,0.0,0.0,0.0,0.0,3.4844,0.0,3.5605,3.5571,3.4427,3.3655,0.0,0.0,0.0,0.0,0.0,0.0,0.0,0.0,0.0,0.0,0.0,0.0,0.0,0.0,0.0,0.0,0.0,0.0,0.0,0.0,0.0,0.0,0.0,0.0,0.0,0.0,0.0,0.0,0.0,0.0,0.0,0.0,0.0,0.0,0.0,0.0,0.0,0.0,0.0,0.0,0.0,0.0,0.0,0.0,0.0,0.0,0.0,0.0,0.0,0.0,0.0,0.0,0.0,0.0,0.0,0.0,0.0,0.0,0.0,0.0,0.0,0.0,0.0,0.0,0.0,0.0,0.0,0.0,0.0,0.0,0.0,0.0,0.0,0.0,0.0,0.0,0.0,0.0,0.0,0.0,0.0,0.0,0.0,0.0,0.0,0.0,0.0,0.0,0.0,0.0,0.0,0.0,0.0,0.0,0.0,0.0,0.0,0.0,0.0,0.0,0.0,0.0,0.0,0.0,0.0,0.0,0.0,0.0,3.4872,3.5571,3.5605,3.5605,3.56,3.4878,3.4139,0.0,0.0,0.0,0.0,0.0,0.0,0.0,0.0,0.0,0.0,0.0,0.0,0.0,0.0,0.0,0.0,0.0,0.0,0.0,0.0,0.0,0.0,0.0,0.0,0.0,0.0,0.0,0.0,0.0,0.0,0.0,0.0,0.0,0.0,0.0,0.0,0.0,0.0,0.0,0.0,0.0,0.0,0.0,0.0,0.0,0.0,0.0,0.0,0.0,0.0,0.0,0.0,0.0,0.0,0.0,0.0,0.0,0.0,0.0,0.0,0.0,0.0,0.0,0.0,0.0,0.0,0.0,0.0,0.0,0.0,0.0,0.0,0.0,0.0,0.0,0.0,0.0,0.0,0.0,0.0,0.0,0.0,0.0,0.0,0.0,0.0,0.0,0.0,0.0,0.0,0.0,0.0,0.0,0.0,0.0,0.0,0.0,0.0,0.0,0.0,0.0,0.0,0.0,0.0,0.0,0.0,0.0,0.0,0.0,3.5605,3.5605,3.5605,3.5571,3.4878,3.441,0.0,0.0,0.0,0.0,0.0,0.0,0.0,0.0,0.0,0.0,0.0,0.0,0.0,0.0,0.0,0.0,0.0,0.0,0.0,0.0,0.0,0.0,0.0,0.0,0.0,0.0,0.0,0.0,0.0,0.0,0.0,0.0,0.0,0.0,0.0,0.0,0.0,0.0,0.0,0.0,0.0,0.0,0.0,0.0,0.0,0.0,0.0,0.0,0.0,0.0,0.0,0.0,0.0,0.0,0.0,0.0,0.0,0.0,0.0,0.0,0.0,0.0,0.0,0.0,0.0,0.0,0.0,0.0,0.0,0.0,0.0,0.0,0.0,0.0,0.0,0.0,0.0,0.0,0.0,0.0,0.0,0.0,0.0,0.0,0.0,0.0,0.0,0.0,0.0,0.0,0.0,0.0,0.0,0.0,0.0,0.0,0.0,0.0,0.0,0.0,0.0,0.0,0.0,0.0,0.0,0.0,0.0,0.0,0.0,3.605,3.6056,3.6062,3.6028,3.5594,3.5092,3.4511,0.0,0.0,0.0,0.0,0.0,0.0,0.0,0.0,0.0,0.0,0.0,0.0,0.0,0.0,0.0,0.0,0.0,0.0,0.0,0.0,0.0,0.0,0.0,0.0,0.0,0.0,0.0,0.0,0.0,0.0,0.0,0.0,0.0,0.0,0.0,0.0,0.0,0.0,0.0,0.0,0.0,0.0,0.0,0.0,0.0,0.0,0.0,0.0,0.0,0.0,0.0,0.0,0.0,0.0,0.0,0.0,0.0,0.0,0.0,0.0,0.0,0.0,0.0,0.0,0.0,0.0,0.0,0.0,0.0,0.0,0.0,0.0,0.0,0.0,0.0,0.0,0.0,0.0,0.0,0.0,0.0,0.0,0.0,0.0,0.0,0.0,0.0,0.0,0.0,0.0,0.0,0.0,0.0,0.0,0.0,0.0,0.0,0.0,0.0,0.0,0.0,0.0,0.0,0.0,0.0,0.0,0.0,0.0,3.6863,3.6891,3.6891,3.6846,3.6778,3.6101,0.0,0.0,0.0,0.0,0.0,0.0,0.0,0.0,0.0,0.0,0.0,0.0,0.0,0.0,0.0,0.0,0.0,0.0,0.0,0.0,0.0,0.0,0.0,0.0,0.0,0.0,0.0,0.0,0.0,0.0,0.0,0.0,0.0,0.0,0.0,0.0,0.0,0.0,0.0,0.0,0.0,0.0,0.0,0.0,0.0,0.0,0.0,0.0,0.0,0.0,0.0,0.0,0.0,0.0,0.0,0.0,0.0,0.0,0.0,0.0,0.0,0.0,0.0,0.0,0.0,0.0,0.0,0.0,0.0,0.0,0.0,0.0,0.0,0.0,0.0,0.0,0.0,0.0,0.0,0.0,0.0,0.0,0.0,0.0,0.0,0.0,0.0,0.0,0.0,0.0,0.0,0.0,0.0,0.0,0.0,0.0,0.0,0.0,0.0,0.0,0.0,0.0,0.0,0.0,0.0,0.0,0.0,0.0,0.0,3.7584,3.8125,3.8129,3.7487,3.6926,3.6435,0.0,0.0,0.0,0.0,0.0,0.0,0.0,0.0,0.0,0.0,0.0,0.0,0.0,0.0,0.0,0.0,0.0,0.0,0.0,0.0,0.0,0.0,0.0,0.0,0.0,0.0,0.0,0.0,0.0,0.0,0.0,0.0,0.0,0.0,0.0,0.0,0.0,0.0,0.0,0.0,0.0,0.0,0.0,0.0,0.0,0.0,0.0,0.0,0.0,0.0,0.0,0.0,0.0,0.0,0.0,0.0,0.0,0.0,0.0,0.0,0.0,0.0,0.0,0.0,0.0,0.0,0.0,0.0,0.0,0.0,0.0,0.0,0.0,0.0,0.0,0.0,0.0,0.0,0.0,0.0,0.0,0.0,0.0,0.0,0.0,0.0,0.0,0.0,0.0,0.0,0.0,0.0,0.0,0.0,0.0,0.0,0.0,0.0,0.0,0.0,0.0,0.0,0.0,0.0,0.0,0.0,0.0,0.0,3.7156,3.7877,3.8599,3.8826,3.847,3.7547,3.6835,0.0,0.0,0.0,0.0,0.0,0.0,0.0,0.0,0.0,0.0,0.0,0.0,0.0,0.0,0.0,0.0,0.0,0.0,0.0,0.0,0.0,0.0,0.0,0.0,0.0,0.0,0.0,0.0,0.0,0.0,0.0,0.0,0.0,0.0,0.0,0.0,0.0,0.0,0.0,0.0,0.0,0.0,0.0,0.0,0.0,0.0,0.0,0.0,0.0,0.0,0.0,0.0,0.0,0.0,0.0,0.0,0.0,0.0,0.0,0.0,0.0,0.0,0.0,0.0,0.0,0.0,0.0,0.0,0.0,0.0,0.0,0.0,0.0,0.0,0.0,0.0,0.0,0.0,0.0,0.0,0.0,0.0,0.0,0.0,0.0,0.0,0.0,0.0,0.0,0.0,0.0,0.0,0.0,0.0,0.0,0.0,0.0,0.0,0.0,0.0,0.0,0.0,0.0,0.0,0.0,0.0,0.0,0.0,3.7162,3.7883,3.8587,3.9143,3.9467,3.8309,3.7285,0.0,0.0,0.0,0.0,0.0,0.0,0.0,0.0,0.0,0.0,0.0,0.0,0.0,0.0,0.0,0.0,0.0,0.0,0.0,0.0,0.0,0.0,0.0,0.0,0.0,0.0,0.0,0.0,0.0,0.0,0.0,0.0,0.0,0.0,0.0,0.0,0.0,0.0,0.0,0.0,0.0,0.0,0.0,0.0,0.0,0.0,0.0,0.0,0.0,0.0,0.0,0.0,0.0,0.0,0.0,0.0,0.0,0.0,0.0,0.0,0.0,0.0,0.0,0.0,0.0,0.0,0.0,0.0,0.0,0.0,0.0,0.0,0.0,0.0,0.0,0.0,0.0,0.0,0.0,0.0,0.0,0.0,0.0,0.0,0.0,0.0,0.0,0.0,0.0,0.0,0.0,0.0,0.0,0.0,0.0,0.0,0.0,0.0,0.0,0.0,0.0,0.0,0.0,0.0,0.0,0.0,0.0,0.0,3.7156,3.7877,3.8517,3.907,3.9474,3.8132,3.7197,0.0,0.0,0.0,0.0,0.0,0.0,0.0,0.0,0.0,0.0,0.0,0.0,0.0,0.0,0.0,0.0,0.0,0.0,0.0,0.0,0.0,0.0,0.0,0.0,0.0,0.0,0.0,0.0,0.0,0.0,0.0,0.0,0.0,0.0,0.0,0.0,0.0,0.0,0.0,0.0,0.0,0.0,0.0,0.0,0.0,0.0,0.0,0.0,4.005,0.0,0.0,0.0,0.0,0.0,0.0,0.0,0.0,0.0,0.0,0.0,0.0,0.0,0.0,0.0,0.0,0.0,0.0,0.0,0.0,0.0,0.0,0.0,0.0,0.0,0.0,0.0,0.0,0.0,0.0,0.0,0.0,0.0,0.0,0.0,0.0,0.0,0.0,0.0,0.0,0.0,0.0,0.0,0.0,0.0,0.0,0.0,0.0,0.0,0.0,0.0,0.0,0.0,0.0,0.0,0.0,0.0,0.0,0.0,3.6743,3.7753,3.8036,3.8503,3.9169,3.8116,3.7279,0.0,0.0,0.0,0.0,0.0,0.0,0.0,0.0,0.0,0.0,0.0,0.0,0.0,0.0,0.0,0.0,0.0,0.0,0.0,0.0,0.0,0.0,0.0,0.0,0.0,0.0,0.0,0.0,0.0,0.0,0.0,0.0,0.0,0.0,0.0,0.0,0.0,0.0,0.0,0.0,0.0,0.0,0.0,0.0,0.0,0.0,0.0,0.0,0.0,0.0,0.0,0.0,0.0,0.0,0.0,0.0,0.0,0.0,0.0,0.0,0.0,0.0,0.0,0.0,0.0,0.0,0.0,0.0,0.0,0.0,0.0,0.0,0.0,0.0,0.0,0.0,0.0,0.0,0.0,0.0,0.0,0.0,0.0,0.0,0.0,0.0,0.0,0.0,0.0,0.0,0.0,0.0,0.0,0.0,0.0,0.0,0.0,0.0,0.0,0.0,0.0,0.0,0.0,0.0,0.0,0.0,0.0,3.5183,3.624,3.7568,3.7434,3.7859,3.8873,3.8127,3.7393,3.6828,0.0,0.0,0.0,0.0,0.0,0.0,0.0,0.0,0.0,0.0,0.0,0.0,0.0,0.0,0.0,0.0,0.0,0.0,0.0,0.0,0.0,0.0,0.0,0.0,0.0,0.0,0.0,0.0,0.0,0.0,0.0,0.0,0.0,0.0,0.0,0.0,0.0,0.0,3.9744,3.9607,0.0,0.0,0.0,0.0,0.0,0.0,0.0,0.0,3.8284,0.0,0.0,0.0,0.0,0.0,0.0,0.0,0.0,0.0,0.0,0.0,0.0,0.0,0.0,0.0,0.0,0.0,0.0,0.0,0.0,0.0,0.0,0.0,0.0,0.0,0.0,0.0,0.0,0.0,0.0,0.0,0.0,0.0,0.0,0.0,0.0,0.0,0.0,0.0,0.0,0.0,0.0,0.0,0.0,0.0,0.0,0.0,0.0,0.0,0.0,0.0,0.0,0.0,0.0,0.0,0.0,3.4225,3.4991,3.5988,3.7319,3.7176,3.7576,3.8606,3.7905,3.7207,3.6535,0.0,0.0,0.0,0.0,0.0,0.0,0.0,0.0,0.0,0.0,0.0,0.0,0.0,0.0,0.0,0.0,0.0,0.0,0.0,0.0,0.0,0.0,0.0,0.0,0.0,0.0,0.0,0.0,0.0,0.0,0.0,0.0,0.0,0.0,0.0,0.0,0.0,0.0,0.0,3.9666,3.9317,0.0,0.0,0.0,0.0,0.0,0.0,0.0,0.0,3.7957,0.0,0.0,0.0,0.0,0.0,0.0,0.0,0.0,0.0,0.0,0.0,0.0,0.0,0.0,0.0,0.0,0.0,0.0,0.0,0.0,0.0,0.0,0.0,0.0,0.0,0.0,0.0,0.0,0.0,0.0,0.0,0.0,0.0,0.0,0.0,0.0,0.0,0.0,0.0,0.0,0.0,0.0,0.0,0.0,0.0,0.0,0.0,0.0,0.0,0.0,0.0,0.0,0.0,0.0,0.0,3.4055,3.4733,3.5732,3.7017,3.682,3.7307,3.8542,3.7739,3.7039,0.0,0.0,0.0,0.0,0.0,0.0,0.0,0.0,0.0,0.0,0.0,0.0,0.0,0.0,0.0,0.0,0.0,0.0,0.0,0.0,0.0,0.0,0.0,0.0,0.0,0.0,0.0,0.0,0.0,0.0,0.0,0.0,0.0,0.0,0.0,0.0,0.0,0.0,0.0,0.0,4.0124,3.982,4.0472,0.0,0.0,0.0,0.0,0.0,0.0,3.831,3.8138,0.0,0.0,0.0,0.0,0.0,0.0,0.0,0.0,0.0,0.0,0.0,0.0,0.0,0.0,0.0,0.0,0.0,0.0,0.0,0.0,0.0,0.0,0.0,0.0,0.0,0.0,0.0,0.0,0.0,0.0,0.0,0.0,0.0,0.0,0.0,0.0,0.0,0.0,0.0,0.0,0.0,0.0,0.0,0.0,0.0,0.0,0.0,0.0,0.0,0.0,0.0,0.0,0.0,0.0,0.0,3.3635,3.4317,3.5366,3.6626,3.645,3.6993,3.8374,3.7476,3.6828,0.0,0.0,0.0,0.0,0.0,0.0,0.0,0.0,0.0,0.0,0.0,0.0,0.0,0.0,0.0,0.0,0.0,0.0,0.0,0.0,0.0,0.0,0.0,0.0,0.0,0.0,0.0,0.0,0.0,0.0,0.0,0.0,0.0,0.0,0.0,0.0,0.0,0.0,0.0,0.0,0.0,4.0252,4.0917,4.0204,0.0,0.0,0.0,0.0,3.7766,3.8171,0.0,0.0,0.0,0.0,0.0,0.0,0.0,0.0,0.0,0.0,0.0,0.0,0.0,0.0,0.0,0.0,0.0,0.0,0.0,0.0,0.0,0.0,0.0,0.0,0.0,0.0,0.0,0.0,0.0,0.0,0.0,0.0,0.0,0.0,0.0,0.0,0.0,0.0,0.0,0.0,0.0,0.0,0.0,0.0,0.0,0.0,0.0,0.0,0.0,0.0,0.0,0.0,0.0,0.0,0.0,0.0,3.2942,3.3651,3.4717,3.6007,3.6057,3.6651,3.7919,3.6895,3.6415,0.0,0.0,0.0,0.0,0.0,0.0,0.0,0.0,0.0,0.0,0.0,0.0,0.0,0.0,0.0,0.0,0.0,0.0,0.0,0.0,0.0,0.0,0.0,0.0,0.0,0.0,0.0,0.0,0.0,0.0,0.0,0.0,0.0,0.0,0.0,0.0,0.0,0.0,0.0,0.0,0.0,3.9834,4.0346,3.9497,3.8514,0.0,0.0,3.7327,3.7814,3.7841,0.0,0.0,0.0,0.0,0.0,0.0,0.0,0.0,0.0,0.0,0.0,0.0,0.0,0.0,0.0,0.0,0.0,0.0,0.0,0.0,0.0,0.0,0.0,0.0,0.0,0.0,0.0,0.0,0.0,0.0,0.0,0.0,0.0,0.0,0.0,0.0,0.0,0.0,0.0,0.0,0.0,0.0,0.0,0.0,0.0,0.0,0.0,0.0,0.0,0.0,0.0,0.0,0.0,0.0,0.0,3.2958,3.308,3.3418,3.4062,3.5011,3.55,3.6258,3.7303,3.6605,3.6371,0.0,0.0,0.0,0.0,0.0,0.0,0.0,0.0,0.0,0.0,0.0,0.0,0.0,0.0,0.0,0.0,0.0,0.0,0.0,0.0,0.0,0.0,0.0,0.0,0.0,0.0,0.0,0.0,0.0,0.0,0.0,0.0,0.0,0.0,0.0,0.0,0.0,0.0,0.0,0.0,0.0,0.0,4.0166,3.9741,0.0,0.0,0.0,3.7761,3.8398,0.0,0.0,0.0,0.0,0.0,0.0,0.0,0.0,0.0,0.0,0.0,0.0,0.0,0.0,0.0,0.0,0.0,0.0,0.0,0.0,0.0,0.0,0.0,0.0,0.0,0.0,0.0,0.0,0.0,0.0,0.0,0.0,0.0,0.0,0.0,0.0,0.0,0.0,0.0,0.0,0.0,0.0,0.0,0.0,0.0,0.0,0.0,0.0,0.0,0.0,0.0,0.0,0.0,0.0,0.0,0.0,0.0,3.3401,3.359,3.3938,3.4525,3.5352,3.6175,3.6932,3.6545,0.0,0.0,0.0,0.0,0.0,0.0,0.0,0.0,0.0,0.0,0.0,0.0,0.0,0.0,0.0,0.0,0.0,0.0,0.0,0.0,0.0,0.0,0.0,0.0,0.0,0.0,0.0,3.1957,0.0,0.0,0.0,0.0,0.0,0.0,0.0,0.0,0.0,0.0,0.0,0.0,0.0,0.0,3.9619,3.9795,3.9936,3.9707,0.0,0.0,3.8171,3.8529,3.8198,3.7824,0.0,0.0,0.0,0.0,0.0,0.0,0.0,0.0,0.0,0.0,0.0,0.0,0.0,0.0,0.0,0.0,0.0,0.0,0.0,0.0,0.0,0.0,0.0,0.0,0.0,0.0,0.0,0.0,0.0,0.0,0.0,0.0,0.0,0.0,0.0,0.0,0.0,0.0,0.0,0.0,0.0,0.0,0.0,0.0,0.0,0.0,0.0,0.0,0.0,0.0,0.0,0.0,0.0,0.0,3.3478,3.3681,3.4278,3.4717,3.5074,3.5916,3.6582,3.7058,3.6761,3.6769,0.0,0.0,0.0,0.0,0.0,0.0,0.0,0.0,0.0,0.0,0.0,0.0,0.0,0.0,0.0,0.0,0.0,0.0,0.0,0.0,0.0,0.0,0.0,0.0,0.0,0.0,0.0,0.0,0.0,0.0,0.0,0.0,0.0,0.0,0.0,0.0,0.0,0.0,0.0,0.0,0.0,3.9607,3.8905,3.9682,3.9895,0.0,3.8397,3.8166,3.758,3.7969,3.7956,3.6797,0.0,0.0,0.0,0.0,0.0,0.0,0.0,0.0,0.0,0.0,0.0,0.0,0.0,0.0,0.0,0.0,0.0,0.0,0.0,0.0,0.0,0.0,0.0,0.0,0.0,0.0,0.0,0.0,0.0,0.0,0.0,0.0,0.0,0.0,0.0,0.0,0.0,0.0,0.0,0.0,0.0,0.0,0.0,0.0,0.0,0.0,0.0,0.0,0.0,0.0,0.0,0.0,0.0,3.3426,3.3535,3.4308,3.4787,3.5002,3.6029,3.6543,3.6416,3.6633,3.6667,0.0,0.0,0.0,0.0,0.0,0.0,0.0,0.0,0.0,0.0,0.0,0.0,0.0,0.0,0.0,0.0,0.0,0.0,0.0,0.0,0.0,0.0,0.0,0.0,0.0,0.0,0.0,0.0,3.1611,3.1783,3.2276,0.0,0.0,0.0,0.0,0.0,0.0,0.0,0.0,0.0,0.0,3.859,3.868,3.9316,0.0,0.0,3.867,3.8302,3.8071,3.7563,3.7054,3.6583,3.6205,0.0,0.0,0.0,0.0,0.0,0.0,0.0,0.0,0.0,0.0,0.0,0.0,0.0,0.0,0.0,0.0,0.0,0.0,0.0,0.0,0.0,0.0,0.0,0.0,0.0,0.0,0.0,0.0,0.0,0.0,0.0,0.0,0.0,0.0,0.0,0.0,0.0,0.0,0.0,0.0,0.0,0.0,0.0,0.0,0.0,0.0,0.0,0.0,0.0,0.0,0.0,0.0,3.3744,3.3744,3.4723,3.5277,3.543,3.6479,3.6928,3.6689,3.686,3.6833,0.0,0.0,0.0,0.0,0.0,0.0,0.0,0.0,0.0,0.0,0.0,0.0,0.0,0.0,0.0,0.0,0.0,0.0,0.0,0.0,0.0,0.0,0.0,0.0,0.0,0.0,0.0,0.0,3.169,3.1996,3.2452,0.0,0.0,0.0,0.0,0.0,0.0,0.0,0.0,0.0,0.0,3.7712,3.8022,3.8651,3.9041,3.8823,3.8422,3.8042,3.7853,3.7084,3.6434,3.6254,0.0,0.0,0.0,0.0,0.0,0.0,0.0,0.0,0.0,0.0,0.0,0.0,0.0,0.0,0.0,0.0,0.0,0.0,0.0,0.0,0.0,0.0,0.0,0.0,0.0,0.0,0.0,3.3758,0.0,0.0,3.4297,0.0,0.0,0.0,0.0,0.0,0.0,0.0,0.0,0.0,0.0,0.0,0.0,0.0,0.0,0.0,0.0,0.0,0.0,0.0,0.0,0.0,0.0,3.4443,3.4474,3.5737,3.648,3.6592,3.743,3.794,3.8096,3.7647,3.7471,3.7605,0.0,0.0,0.0,0.0,0.0,0.0,0.0,0.0,0.0,0.0,0.0,0.0,0.0,0.0,0.0,0.0,0.0,0.0,0.0,0.0,0.0,0.0,0.0,0.0,0.0,0.0,3.1638,3.2086,3.246,0.0,0.0,0.0,0.0,0.0,0.0,0.0,0.0,0.0,3.5527,3.6626,3.7186,3.6681,3.7631,3.8191,3.7614,3.7456,3.7225,3.6695,3.6553,3.6284,0.0,0.0,0.0,0.0,0.0,0.0,0.0,0.0,0.0,0.0,0.0,0.0,0.0,0.0,0.0,0.0,0.0,0.0,0.0,0.0,0.0,0.0,0.0,0.0,0.0,0.0,0.0,3.3932,3.3862,0.0,0.0,0.0,0.0,0.0,0.0,0.0,0.0,0.0,0.0,0.0,3.2198,3.2187,0.0,0.0,0.0,0.0,0.0,0.0,0.0,0.0,0.0,0.0,0.0,0.0,3.4474,3.4566,3.5906,3.6904,3.7448,3.783,3.8119,3.8331,3.7682,3.6947,3.612,0.0,0.0,0.0,0.0,0.0,0.0,0.0,0.0,0.0,0.0,0.0,0.0,0.0,0.0,0.0,0.0,0.0,0.0,0.0,0.0,0.0,0.0,0.0,0.0,0.0,3.2612,0.0,0.0,0.0,0.0,0.0,0.0,0.0,0.0,0.0,0.0,3.5489,3.5489,3.5489,3.6237,3.6725,3.6523,3.7195,3.7823,0.0,0.0,0.0,0.0,0.0,0.0,0.0,0.0,0.0,0.0,0.0,0.0,0.0,0.0,3.7682,3.7456,3.7225,3.7097,3.7114,0.0,0.0,0.0,0.0,0.0,0.0,0.0,0.0,0.0,0.0,0.0,0.0,0.0,0.0,3.3801,3.3623,3.3677,0.0,0.0,0.0,0.0,0.0,0.0,0.0,0.0,3.2409,3.2462,3.2073,3.2013,3.2016,3.1974,3.1899,3.1727,0.0,0.0,0.0,0.0,0.0,0.0,0.0,0.0,3.4621,3.4898,3.6021,3.7081,3.7983,3.8112,3.8422,3.8885,3.8158,3.695,3.5288,3.5338,3.4994,0.0,0.0,0.0,0.0,0.0,0.0,0.0,0.0,0.0,0.0,0.0,0.0,0.0,0.0,0.0,0.0,0.0,0.0,0.0,0.0,0.0,0.0,0.0,3.2138,0.0,0.0,0.0,0.0,0.0,0.0,0.0,0.0,0.0,3.5351,3.5479,3.5489,3.5489,3.5878,3.6156,3.6156,0.0,0.0,0.0,0.0,0.0,0.0,0.0,3.6605,3.5938,3.6387,3.6874,3.7114,3.7503,3.7973,3.8622,0.0,0.0,3.8165,3.7904,3.7764,3.7764,3.7545,3.7387,3.7387,3.7387,3.7387,0.0,0.0,0.0,0.0,3.3651,0.0,0.0,0.0,3.3645,3.3409,0.0,3.325,0.0,0.0,0.0,0.0,3.2727,3.3464,0.0,0.0,3.2632,3.2956,3.2543,3.2399,3.23,3.2248,3.2079,3.1653,3.1138,3.2491,0.0,0.0,0.0,0.0,0.0,0.0,3.4852,3.546,3.613,3.7065,3.8215,3.8271,3.8764,3.9746,3.8998,3.746,3.5338,3.5711,3.5054,3.3042,3.3374,0.0,0.0,0.0,0.0,0.0,0.0,0.0,0.0,0.0,0.0,0.0,0.0,0.0,0.0,0.0,0.0,0.0,0.0,0.0,0.0,3.1817,0.0,0.0,0.0,0.0,0.0,0.0,0.0,0.0,0.0,3.4563,3.5077,3.5348,3.5465,3.5473,0.0,0.0,0.0,0.0,3.5609,3.5661,3.6156,3.6335,3.575,3.6588,3.7165,3.6605,0.0,0.0,3.8311,3.8431,3.864,3.9272,3.9361,3.9412,3.9352,3.8832,3.8461,3.8431,3.7973,3.7516,3.7486,3.7605,3.7567,3.4964,0.0,0.0,0.0,0.0,3.3329,3.3322,3.3427,3.3304,3.3195,3.3119,3.3132,0.0,0.0,0.0,0.0,0.0,0.0,3.2357,3.17,3.1779,3.1871,3.1866,3.1424,3.1397,3.1812,3.1748,3.1541,3.1289,3.2853,3.3238,3.2478,0.0,0.0,0.0,0.0,3.495,3.5164,3.5796,3.6746,3.7923,3.7951,3.8226,3.8805,3.8064,3.7309,3.6562,3.6193,3.5686,3.5038,3.4976,0.0,0.0,0.0,0.0,0.0,0.0,0.0,0.0,0.0,0.0,0.0,0.0,0.0,0.0,0.0,0.0,0.0,0.0,0.0,3.1627,3.1318,3.1101,0.0,0.0,0.0,0.0,0.0,0.0,0.0,0.0,0.0,3.4346,3.4724,3.5014,0.0,0.0,3.6066,3.6199,3.6596,3.7015,3.7503,3.7323,0.0,3.7524,3.7114,3.6844,3.7097,3.7674,3.8341,3.902,3.9131,3.9191,3.9361,3.9412,3.9412,3.9382,3.9242,3.9122,3.9101,3.8943,3.8823,3.8823,3.8823,3.8793,3.5784,3.5124,3.4848,3.4476,3.4042,3.3662,3.3537,3.3602,3.3268,3.3056,3.2919,3.2811,3.2292,3.15,3.1515,0.0,0.0,0.0,3.1919,3.1974,3.1586,3.1423,3.1431,3.1105,3.1103,3.1382,3.1447,3.1365,3.1198,3.2497,3.302,3.2877,0.0,3.4174,3.4349,3.4767,3.5139,3.539,3.5784,3.6569,3.7778,3.8229,3.8586,3.8816,3.8064,3.7489,3.7102,3.6412,3.5786,3.5251,3.518,3.4545,0.0,0.0,0.0,0.0,0.0,0.0,0.0,0.0,0.0,0.0,0.0,3.0152,3.0371,0.0,0.0,0.0,3.1035,3.1274,3.067,3.0936,0.0,0.0,0.0,0.0,0.0,0.0,0.0,3.3513,3.3522,3.3679,3.4039,3.4306,3.4734,3.5514,3.6242,3.6709,3.6819,0.0,3.7554,3.7943,3.7883,3.7853,3.7973,3.7793,3.7764,3.8144,3.8533,3.8901,3.9302,3.9412,3.9412,3.9412,3.9412,3.9412,3.9412,3.9412,3.9412,3.9412,3.9412,3.9412,3.9412,3.9412,3.9412,3.6169,3.609,3.5514,3.5169,3.5021,3.437,3.407,3.4042,3.3482,3.3073,3.277,3.2409,3.2251,3.2227,3.1418,0.0,3.2209,3.1522,3.1621,3.2294,3.1726,3.1394,3.1282,3.122,3.1144,3.1028,3.1189,3.117,3.1039,3.1745,3.247,3.3222,3.4375,3.4993,3.5039,3.5047,3.5343,3.5965,3.5957,3.6569,3.7749,3.8891,3.9488,3.9488,3.8652,3.7924,3.7282,3.6568,3.5658,3.4538,3.4658,3.4166,3.2952,0.0,0.0,0.0,0.0,0.0,0.0,0.0,0.0,0.0,0.0,0.0,0.0,0.0,0.0,0.0,3.0423,0.0,2.9511,3.0765,0.0,0.0,0.0,3.3049,3.2993,3.349,3.3832,3.385,0.0,0.0,3.4069,3.4145,3.4667,3.5969,3.6852,3.737,3.7486,3.7545,3.7545,3.7695,3.8123,3.8251,3.7883,3.8563,3.9182,3.9131,3.9361,3.9361,3.9391,3.9412,3.9412,3.9412,3.9412,3.9412,3.9412,3.9412,3.9412,3.9412,3.9412,3.9412,3.9412,3.9412,3.9412,3.6721,3.6702,3.6561,3.5919,3.5018,3.4812,3.4455,3.3948,3.3775,3.3691,3.3579,3.3106,3.2572,3.1974,3.1145,3.1137,3.1744,3.1436,3.1396,3.1515,3.0785,3.0683,3.1041,3.0584,3.0592,3.0992,3.1039,3.1048,3.102,3.1727,3.247,3.3213,3.4058,3.4776,3.5347,3.5371,3.5453,3.5619,3.5611,3.6219,3.7496,3.872,3.9329,3.9355,3.8612,3.8394,3.8725,3.7592,3.6827,3.6617,3.6224,3.5378,3.4162,3.39,0.0,0.0,0.0,0.0,0.0,0.0,0.0,0.0,0.0,3.016,3.0201,0.0,2.9706,0.0,3.0022,3.0306,3.0583,3.1284,0.0,0.0,3.2448,3.301,3.2981,3.3133,3.3262,3.3415,3.3318,3.3409,3.39,3.448,3.5084,3.5758,3.6513,3.7299,3.803,3.8622,3.8913,3.8922,3.9011,3.9092,3.8943,3.9152,3.9242,3.8721,3.9062,3.9382,3.9412,3.9412,3.9412,3.9412,3.9412,3.9412,3.9412,3.9412,3.9412,3.9412,3.9412,3.9412,3.9412,3.9412,3.9412,3.6312,3.6233,3.6233,3.5778,3.5039,3.4938,3.4692,3.426,3.3764,3.3509,3.3351,3.2737,3.2194,3.1726,3.1186,3.128,3.1783,3.1367,3.1309,3.1474,3.0811,3.0686,3.0992,3.065,3.0677,3.0983,3.0992,3.0992,3.1011,3.1413,3.2164,3.3178,3.3613,3.4529,3.5897,3.5938,3.6066,3.6349,3.6323,3.6706,3.7376,3.804,3.8677,3.9229,3.8203,3.8078,3.9041,3.7635,3.6911,3.7129,3.6484,3.5568,3.4439,3.4101,3.3579,0.0,0.0,0.0,0.0,0.0,0.0,0.0,0.0,0.0,0.0,0.0,3.0169,3.0169,3.0583,3.0997,3.133,3.1869,3.2208,3.2208,3.2588,3.2981,3.3254,3.328,3.3389,3.3743,3.3699,3.3744,3.4085,3.4529,3.5156,3.6081,3.6632,3.7221,3.8166,3.8918,3.9412,3.9412,3.9412,3.9412,3.9412,3.9412,3.9281,3.8981,3.9152,3.9412,3.9412,3.9412,3.9412,3.9412,3.9412,3.9412,3.9412,3.9412,3.9412,3.9412,3.9412,3.9412,3.9412,3.9412,3.9412,3.5548,3.5396,3.5355,3.527,3.5083,3.4837,3.4733,3.4642,3.3662,3.3072,3.2695,3.1998,3.1638,3.1549,3.1373,3.1508,3.1909,3.1284,3.1261,3.165,3.1209,3.0992,3.0992,3.0992,3.0992,3.0992,3.0992,3.0992,3.0992,3.0992,3.1763,3.3134,3.3196,3.433,3.6508,3.6553,3.6806,3.7396,3.7426,3.7468,3.7475,3.7363,3.7936,3.9115,3.7873,3.7663,3.8689,3.7278,3.6563,3.6836,3.6133,3.5287,3.4415,3.3958,3.3321,0.0,3.2165,0.0,0.0,0.0,0.0,0.0,0.0,0.0,0.0,3.1269,3.1227,3.1218,3.1634,3.1902,3.1902,3.2453,3.2803,3.2813,3.2891,3.3137,3.365,3.3702,3.3875,3.4335,3.4387,3.4397,3.4382,3.4387,3.4985,3.6188,3.673,3.7157,3.7909,3.8806,3.9412,3.9412,3.9412,3.9412,3.9412,3.9412,3.9391,3.9382,3.9391,3.9412,3.9412,3.9412,3.9412,3.9412,3.9412,3.9412,3.9412,3.9412,3.9412,3.9412,3.9412,3.9412,3.9412,3.9412,3.9412,3.5416,3.5365,3.5239,3.5147,3.5053,3.4553,3.4306,3.428,3.4086,3.3461,3.2551,3.2226,3.1813,3.1364,3.1142,3.1108,3.1206,3.1054,3.1061,3.113,3.1035,3.0992,3.0992,3.0992,3.0992,3.0992,3.0992,3.0992,3.0992,3.0992,3.1754,3.3161,3.3196,3.4539,3.7059,0.0,0.0,0.0,3.7565,3.7677,3.7817,3.7992,3.8367,3.8857,3.8614,0.0,3.8576,3.7714,3.7036,3.673,3.5981,0.0,0.0,0.0,0.0,0.0,0.0,0.0,0.0,0.0,0.0,0.0,3.1328,3.1127,3.1656,3.2107,3.2368,3.2395,3.2463,3.2542,3.2542,3.3074,3.3451,3.344,3.3806,3.4146,3.4251,3.4241,3.4293,3.4361,3.4387,3.4387,3.4387,3.4387,3.4533,3.5073,3.6049,3.6914,3.7184,3.8509,3.9355,3.9412,3.9412,3.9412,3.9412,3.9412,3.9412,3.9412,3.9412,3.9412,3.9412,3.9412,3.9412,3.9412,3.9412,3.9412,3.9412,3.9412,3.9412,3.9412,3.9412,3.9412,3.9412,3.9412,3.9412,3.529,3.5096,3.4993,3.488,0.0,3.4149,3.3727,3.3466,3.3382,3.2819,3.1917,3.1683,3.1431,3.1142,3.1039,3.0992,3.0992,3.0992,3.0992,3.0992,3.0992,3.0992,3.0992,3.0992,3.0992,3.0992,3.0992,3.0992,3.102,3.1357,3.211,3.3187,3.3561,3.4814,3.6892,3.6926,3.6956,3.6964,3.7059,3.7124,3.715,3.7257,3.7701,3.8488,3.8454,0.0,0.0,0.0,0.0,0.0,0.0,0.0,0.0,3.4164,0.0,3.2986,3.2282,3.179,3.1597,3.131,3.1264,3.1534,3.1465,3.1408,3.1408,3.1774,3.1886,3.16,3.2055,3.2414,3.2434,3.3374,3.3979,3.4016,3.4251,3.4387,3.4387,3.4387,3.4387,3.4387,3.4387,3.4387,3.4387,3.4387,3.4786,3.5524,3.6336,3.7194,3.8022,3.8822,3.9403,3.9412,3.9412,3.9412,3.9412,3.9412,3.9412,3.9412,3.9412,3.9412,3.9412,3.9412,3.9412,3.9412,3.9412,3.9412,3.9412,3.9412,3.9412,3.9412,3.9412,3.9412,3.9412,3.9412,3.9412,3.5096,3.4797,3.4756,3.4585,3.4345,3.3718,3.3091,3.2509,3.2316,0.0,0.0,3.1189,3.113,3.114,3.114,3.113,3.114,3.1035,3.0992,3.0992,3.0992,3.1044,3.113,3.113,3.113,3.113,3.113,3.1087,3.1056,3.1736,3.247,3.3204,3.3948,3.4957,3.6286,3.6926,3.6917,3.6374,3.6467,3.6537,3.6505,3.64,3.6955,3.8201,3.7965,3.7822,3.7854,3.7461,3.6838,3.5975,3.5774,3.5218,3.4206,3.3839,3.3197,3.22,3.1708,3.1412,3.1254,3.1076,3.0917,3.0795,3.138,3.1594,3.1234,3.1355,3.1178,3.0537,3.1562,3.2252,3.2284,3.3554,3.4387,3.4387,3.4387,3.4387,3.4387,3.4387,3.4387,3.4387,3.4387,3.4387,3.4387,3.4387,3.4878,3.6098,3.6454,3.729,3.8778,3.9247,3.9412,3.9412,3.9412,3.9412,3.9412,3.9412,3.9412,3.9412,3.9412,3.9412,3.9412,3.9412,3.9412,3.9412,3.9412,3.9412,3.9412,3.9412,3.9412,3.9412,3.9412,3.9412,3.9412,3.9412,3.9412,3.4839,3.4787,3.4569,3.4429,3.4329,3.3273,3.2489,3.1895,3.1441,3.1136,3.1073,3.1496,3.1693,3.1683,3.1703,3.1703,3.165,3.1209,3.0992,3.0992,3.0992,3.1261,3.1676,3.1686,3.1703,3.1667,3.1703,3.1451,3.1129,3.1755,3.2479,3.3233,3.3948,3.476,3.5612,3.6306,3.6306,3.5669,3.631,3.6748,3.6911,3.6621,3.6949,3.7854,3.7379,3.7244,3.7604,3.6997,3.6359,3.5768,3.5627,3.5157,3.4312,3.3555,3.2792,3.2146,3.1459,3.1067,3.1039,3.0992,3.0681,3.0005,3.0867,3.1645,3.206,3.2026,3.1659,3.0966,3.201,3.2878,3.2921,3.3796,3.4387,3.4387,3.4387,3.4387,3.4387,3.4387,3.4387,3.4387,3.4387,3.4387,3.4387,3.4387,3.4501,3.4858,3.5806,3.659,3.8145,3.8973,3.9337,3.9412,3.9412,3.9412,3.9412,3.9412,3.9412,3.9412,3.9412,3.9412,3.9412,3.9412,3.9412,3.9412,3.9412,3.9412,3.9412,3.9412,3.9412,3.9412,3.9412,3.9412,3.9412,3.9412,3.9412,3.4714,3.459,3.4449,3.4387,3.4356,3.3519,3.2855,3.2287,3.2029,3.1722,3.1425,3.1399,3.1346,3.1373,3.1676,3.1797,3.1797,3.1879,3.1924,3.1924,3.1924,3.2045,3.2261,3.2287,3.2261,3.2297,3.2287,3.214,3.2004,3.2753,3.3547,3.426,3.5101,3.5683,3.6011,3.6006,3.5998,3.6028,3.6042,3.6086,3.6167,3.6347,3.6662,3.7072,3.7093,3.7063,3.6959,3.6639,3.6164,3.5605,3.5522,3.496,3.3776,3.3337,3.264,3.1598,3.1198,3.0992,3.0992,3.0552,3.027,3.0195,2.9901,2.9929,3.0313,3.0542,3.071,3.081,3.1712,3.2451,3.2961,3.3858,3.4387,3.4387,3.4387,3.4387,3.4387,3.4387,3.4387,3.4387,3.4387,3.4387,3.4387,3.4387,3.4626,3.5073,3.6165,3.7491,3.8612,3.9137,3.9412,3.9412,3.9412,3.9412,3.9412,3.9412,3.9412,3.9412,3.9412,3.9412,3.9412,3.9412,3.9412,3.9412,3.9412,3.9412,3.9412,3.9412,3.9412,3.9412,3.9412,3.9412,3.9412,3.9412,3.9412,3.4585,3.4397,3.4387,3.4309,3.4188,3.377,3.3336,3.2918,3.2761,3.2515,3.2182,3.1757,3.1594,3.1636,3.2035,3.2199,3.2261,3.2568,3.2682,3.2682,3.2682,3.2751,3.2881,3.2918,3.2918,3.2891,3.2891,3.285,3.2893,3.3808,3.4772,3.5586,3.6341,3.6725,3.6695,3.6178,3.6178,3.6635,3.6066,3.5669,3.5527,3.5965,3.6274,3.6415,3.6753,3.6784,3.6438,3.6282,3.5997,3.5522,3.5335,3.4606,3.3301,3.3029,3.2381,3.1179,3.0992,3.0992,3.0964,3.0381,3.0099,3.0341,2.9154,2.8488,2.8689,2.9065,2.9507,3.0083,3.1001,3.1917,3.2624,3.3727,3.4387,3.4387,3.4387,3.4387,3.4387,3.4387,3.4387,3.4387,3.4387,3.4387,3.4387,3.4387,3.4636,3.5369,3.6854,3.8117,3.8723,3.9101,3.9412,3.9412,3.9412,3.9412,3.9412,3.9412,3.9412,3.9412,3.9412,3.9412,3.9412,3.9412,3.9412,3.9412,3.9412,3.9412,3.9412,3.9412,3.9412,3.9412,3.9412,3.9412,3.9412,3.9412,3.9412,3.4418,3.4387,3.4387,3.412,3.3728,3.365,3.3571,3.3467,3.2954,3.2996,3.3352,3.3398,3.331,3.3352,3.3352,3.3388,3.3336,3.2918,3.2735,3.2735,3.2708,3.3006,3.3483,3.3519,3.3519,3.3519,3.3509,3.3354,3.3215,3.4437,3.5751,3.7022,3.7285,3.7315,3.7306,3.7225,3.7246,3.7315,3.6725,3.6118,3.5549,3.5546,3.5838,3.6399,3.5926,3.591,3.6329,3.5862,3.5554,3.547,3.4814,3.405,3.3239,3.2577,3.1855,3.1067,3.0992,3.0992,3.0983,3.0908,3.0501,2.9818,2.8949,2.8488,2.8636,2.8743,2.8614,2.8891,3.0396,3.1674,3.183,3.3367,3.4366,3.4387,3.4387,3.4387,3.4387,3.4387,3.4387,3.4387,3.4387,3.4387,3.4387,3.4387,3.4481,3.4889,3.6207,3.7329,3.7739,3.8657,3.9373,3.9412,3.9412,3.9412,3.9412,3.9412,3.9412,3.9412,3.9412,3.9412,3.9412,3.9412,3.9412,3.9412,3.9412,3.9412,3.9412,3.9412,3.9412,3.9412,3.9412,3.9412,3.9412,3.9412,3.9412,3.4387,3.4387,3.4387,3.4267,3.4094,3.4058,3.4094,3.4042,3.3806,3.3859,3.4068,3.4058,3.3702,3.3091,3.344,3.3597,3.3597,3.3666,3.3702,3.3692,3.3702,3.3859,3.4058,3.4068,3.4084,3.4094,3.4068,3.4264,3.4823,3.6184,3.7094,3.7412,3.7785,3.7973,3.7943,3.7605,3.7387,3.7375,3.6814,3.6186,3.5579,3.5489,3.5611,3.5798,3.5619,3.5595,3.5806,3.5619,3.5489,3.5441,3.4748,3.3965,3.3231,3.2506,3.1773,3.1086,3.0992,3.0992,3.0992,3.0514,3.0069,2.9713,2.89,2.8657,2.9356,2.9466,2.9635,3.0278,3.1533,3.2613,3.3186,3.3963,3.4387,3.4387,3.4387,3.4387,3.4387,3.4387,3.4387,3.4387,3.4387,3.4387,3.4387,3.4387,3.4837,3.5605,3.6572,3.7146,3.8144,3.8998,3.9301,3.9412,3.9412,3.9412,3.9412,3.9412,3.9412,3.9412,3.9412,3.9412,3.9412,3.9412,3.9412,3.9412,3.9412,3.9412,3.9412,3.9412,3.9412,3.9412,3.9412,3.9412,3.9412,3.9412,3.9412,3.4387,3.4387,3.4387,3.4387,3.4387,3.4387,3.4387,3.4387,3.4387,3.4387,3.4387,3.4387,3.3963,3.331,3.3613,3.3833,3.3885,3.4225,3.4387,3.4387,3.4387,3.4387,3.4387,3.4387,3.4387,3.4439,3.4641,3.5312,3.6385,3.7595,3.8137,3.8053,3.8452,3.867,3.864,3.8144,3.7964,3.7896,3.7345,3.6784,3.6327,3.5968,3.5669,3.5511,3.5489,3.5489,3.5489,3.5489,3.5375,3.5157,3.4426,3.3673,3.2932,3.2182,3.157,3.1076,3.0992,3.0992,3.0992,3.04,3.0066,2.9973,2.9242,2.9225,3.0101,3.0379,3.0876,3.1856,3.2843,3.3647,3.3879,3.4262,3.4387,3.4387,3.4387,3.4387,3.4387,3.4387,3.4387,3.4387,3.4387,3.4387,3.4387,3.4429,3.4889,3.6118,3.6729,3.7357,3.8732,3.9192,3.9412,3.9412,3.9412,3.9412,3.9412,3.9412,3.9412,3.9412,3.9412,3.9412,3.9412,3.9412,3.9412,3.9412,3.9412,3.9412,3.9412,3.9412,3.9412,3.9412,3.9412,3.9412,3.9412,3.9412,3.9412,3.4387,3.4387,3.4387,3.4424,3.4424,3.4424,3.4424,3.445,3.4424,3.4424,3.4397,3.4424,3.4371,3.4303,3.4371,3.4371,3.4345,3.4382,3.4387,3.4387,3.4387,3.4387,3.4387,3.4387,3.4408,3.4574,3.5196,3.6373,3.7909,3.8288,3.8715,3.9263,3.9272,3.9331,3.9302,3.9212,3.9281,3.9032,3.8482,3.8221,3.8042,3.6994,3.6148,3.5669,3.5489,3.5489,3.5489,3.5489,3.5157,3.4388,3.3699,3.295,3.22,3.1487,3.1058,3.1001,3.0992,3.0992,3.0992,3.0908,3.087,3.0804,3.0164,3.0112,3.1094,3.1345,3.1857,3.286,3.3721,3.3974,3.3441,3.3995,3.4377,3.4387,3.4387,3.4387,3.4387,3.4387,3.4387,3.4387,3.4387,3.4387,3.4387,3.4387,3.4909,3.5796,3.6484,3.7338,3.8276,3.901,3.9319,3.9412,3.9412,3.9412,3.9412,3.9412,3.9412,3.9412,3.9412,3.9412,3.9412,3.9412,3.9412,3.9412,3.9412,3.9412,3.9412,3.9412,3.9412,3.9412,3.9412,3.9412,3.9412,3.9412,3.9412,3.4387,3.4387,3.4387,3.4607,3.4983,3.4972,3.4972,3.4972,3.4972,3.4763,3.4502,3.4789,3.4972,3.5009,3.5349,3.5088,3.445,3.4387,3.4387,3.4387,3.4387,3.4387,3.4387,3.4397,3.474,3.5247,3.5582,3.6551,3.8107,3.8752,3.9152,3.9361,3.9412,3.9412,3.9412,3.9412,3.9212,3.8772,3.8482,3.8191,3.7823,3.7306,3.6956,3.6678,3.593,3.5489,3.5489,3.5489,3.5133,3.4329,3.3596,3.2861,3.2128,3.1404,3.0992,3.0992,3.0992,3.0992,3.0992,3.0992,3.0992,3.0999,3.1047,3.1335,3.2066,3.2596,3.3122,3.3783,3.4168,3.4199,3.4094,3.4204,3.4387,3.4387,3.4387,3.4387,3.4387,3.4387,3.4387,3.4387,3.4387,3.4387,3.4543,3.4868,3.5545,3.6366,3.7203,3.8004,3.8741,3.9247,3.9412,3.9412,3.9412,3.9412,3.9412,3.9412,3.9412,3.9412,3.9412,3.9412,3.9412,3.9412,3.9412,3.9412,3.9412,3.9412,3.9412,3.9412,3.9412,3.9412,3.9412,3.9412,3.9412,3.9412,3.9412,3.4685,3.4711,3.4857,3.5077,3.5286,3.5484,3.5547,3.5558,3.5547,3.5312,3.5077,3.5365,3.5547,3.5626,3.5929,3.572,3.4999,3.4972,3.4957,3.4957,3.4946,3.4868,3.4711,3.4685,3.5043,3.5767,3.6478,3.7553,3.8843,3.9691,3.993,3.975,3.9729,3.9592,3.9451,3.9412,3.9161,3.8781,3.8721,3.8512,3.8093,3.7815,3.7725,3.7584,3.6686,3.599,3.5818,3.5631,3.5009,3.4041,3.3457,3.2755,3.1819,3.1291,3.0992,3.0992,3.0992,3.0992,3.0992,3.0992,3.1061,3.1261,3.1562,3.2094,3.2881,3.3372,3.3833,3.4241,3.4387,3.4387,3.4387,3.4387,3.4387,3.4387,3.4387,3.4387,3.4387,3.4387,3.4387,3.4387,3.4387,3.4501,3.4806,3.5349,3.6146,3.7136,3.7881,3.8492,3.9192,3.9412,3.9412,3.9412,3.9412,3.9412,3.9412,3.9412,3.9412,3.9412,3.9412,3.9412,3.9412,3.9412,3.9412,3.9412,3.9412,3.9412,3.9412,3.9412,3.9412,3.9412,3.9412,3.9412,3.9412,3.9412,3.9412,3.5286,3.5365,3.5861,3.5783,3.5547,3.595,3.6112,3.6133,3.6112,3.6044,3.5913,3.6059,3.6123,3.6149,3.6253,3.6175,3.6149,3.6112,3.6044,3.5929,3.5966,3.5693,3.5312,3.5414,3.575,3.6246,3.8079,3.9494,4.0297,4.0857,4.0915,4.0487,4.0337,4.0029,3.9442,3.9451,3.9382,3.9293,3.9293,3.9302,3.9293,3.8721,3.8401,3.8332,3.7704,3.7097,3.6575,3.5867,3.4857,3.3607,3.3262,3.2525,3.1372,3.1028,3.0992,3.0992,3.0992,3.0992,3.0992,3.1044,3.1304,3.165,3.1823,3.2444,3.33,3.3623,3.3875,3.4293,3.4387,3.4387,3.4387,3.4387,3.4387,3.4387,3.4387,3.4387,3.4387,3.4387,3.4418,3.4491,3.4543,3.4806,3.544,3.5926,3.661,3.7691,3.8249,3.8584,3.9237,3.9412,3.9412,3.9412,3.9412,3.9412,3.9412,3.9412,3.9412,3.9412,3.9412,3.9412,3.9412,3.9412,3.9412,3.9412,3.9412,3.9412,3.9412,3.9412,3.9412,3.9412,3.9412,3.9412,3.9412,3.9412,3.9412,3.5835,3.5861,3.6044,3.6253,3.6462,3.6671,3.6713,3.6724,3.6724,3.6488,3.6216,3.653,3.6724,3.6828,3.7142,3.7325,3.734,3.7299,3.6907,3.6275,3.6144,3.6088,3.6035,3.6508,3.7493,3.8734,4.0012,4.081,4.1077,4.1343,4.1254,4.1074,4.0636,4.0307,4.0058,3.966,3.9412,3.9412,3.9412,3.9412,3.9391,3.9212,3.9071,3.9011,3.8452,3.7973,3.7764,3.6229,3.5129,3.4468,3.3587,3.2586,3.1705,3.1218,3.1018,3.0992,3.0992,3.0992,3.1071,3.1365,3.1608,3.1938,3.2522,3.3133,3.3561,3.3937,3.4188,3.4397,3.4387,3.4387,3.4387,3.4387,3.4387,3.4387,3.4387,3.4387,3.4387,3.4387,3.4709,3.5196,3.5298,3.5655,3.6385,3.6913,3.7529,3.8127,3.8649,3.9147,3.931,3.9412,3.9412,3.9412,3.9412,3.9412,3.9412,3.9412,3.9412,3.9412,3.9412,3.9412,3.9412,3.9412,3.9412,3.9412,3.9412,3.9412,3.9412,3.9412,3.9412,3.9412,3.9412,3.9412,3.9412,3.9412,3.9412,3.6436,3.6462,3.6671,3.6828,3.7026,3.722,3.7351,3.7325,3.734,3.7116,3.6922,3.7157,3.7325,3.7392,3.7743,3.79,3.7911,3.7911,3.7674,3.729,3.7254,3.7312,3.7477,3.811,3.8952,4.0128,4.1239,4.1762,4.1792,4.1992,4.1992,4.1733,4.1343,4.1005,4.0795,4.0376,4.0058,3.9849,3.9798,3.9631,3.9451,3.9412,3.9412,3.9331,3.899,3.882,3.8629,3.6744,3.5437,3.4919,3.3709,3.2662,3.2143,3.1836,3.1636,3.161,3.1444,3.1392,3.1601,3.1738,3.2032,3.2496,3.3169,3.3702,3.3885,3.4277,3.4397,3.4387,3.4387,3.4387,3.4387,3.4387,3.4387,3.4387,3.4387,3.4387,3.4387,3.4387,3.4765,3.5379,3.5655,3.6255,3.7193,3.7768,3.8352,3.8603,3.9074,3.9412,3.9412,3.9412,3.9412,3.9412,3.9412,3.9412,3.9412,3.9412,3.9412,3.9412,3.9412,3.9412,3.9412,3.9412,3.9412,3.9412,3.9412,3.9412,3.9412,3.9412,3.9412,3.9412,3.9412,3.9412,3.9412,3.9412,3.9412,3.7063,3.7142,3.7639,3.7534,3.7194,3.7639,3.7821,3.7862,3.7874,3.7821,3.7821,3.7795,3.7848,3.7874,3.8023,3.8114,3.8026,3.8285,3.8758,3.9174,3.9339,3.9445,3.9704,3.9989,4.0319,4.0754,4.1871,4.2421,4.2461,4.2871,4.302,4.2451,4.2281,4.2051,4.1532,4.1433,4.0965,4.0516,4.0397,4.0068,3.9532,3.9412,3.9412,3.9412,3.9361,3.9302,3.9011,3.7283,3.5761,3.4938,3.3529,3.285,3.2771,3.2735,3.2568,3.2525,3.213,3.2156,3.2411,3.2313,3.2434,3.33,3.3587,3.3822,3.4277,3.4345,3.4387,3.4387,3.4387,3.4387,3.4387,3.4387,3.4387,3.4387,3.4387,3.4387,3.4387,3.4387,3.4796,3.5491,3.5796,3.6354,3.7862,3.8221,3.8668,3.9092,3.9346,3.9373,3.9412,3.9412,3.9412,3.9412,3.9412,3.9412,3.9412,3.9412,3.9412,3.9412,3.9412,3.9412,3.9412,3.9412,3.9412,3.9412,3.9412,3.9412,3.9412,3.9412,3.9412,3.9412,3.9412,3.9412,3.9412,3.9412,3.9412,3.7653,3.7679,3.7848,3.7821,3.7679,3.7848,3.7911,3.7911,3.7911,3.7911,3.7911,3.7911,3.7957,3.7992,3.8594,3.8859,3.8993,3.9535,4.0378,4.1134,4.125,4.1298,4.1383,4.1438,4.1818,4.2367,4.2733,4.307,4.308,4.321,4.321,4.305,4.2601,4.2351,4.2101,4.1673,4.1343,4.1074,4.0645,4.0367,4.0118,3.967,3.9412,3.9412,3.9421,3.9403,3.9247,3.7671,3.5807,3.4146,3.3654,3.3372,3.331,3.2996,3.2787,3.2761,3.262,3.2542,3.2735,3.296,3.3284,3.3561,3.3963,3.4241,3.4371,3.4387,3.4387,3.4387,3.4387,3.4387,3.4387,3.4387,3.4387,3.4387,3.4449,3.447,3.446,3.4418,3.4724,3.5561,3.6245,3.7135,3.7985,3.8686,3.9101,3.9319,3.9412,3.9412,3.9412,3.9412,3.9412,3.9412,3.9412,3.9412,3.9412,3.9412,3.9412,3.9412,3.9412,3.9412,3.9412,3.9412,3.9412,3.9412,3.9412,3.9412,3.9412,3.9412,3.9412,3.9412,3.9412,3.9412,3.9412,3.9412,3.9412,3.7911,3.7911,3.7911,3.7911,3.7911,3.7911,3.7911,3.7911,3.7911,3.7911,3.798,3.8304,3.8462,3.8538,3.9365,3.9765,3.9863,4.0367,4.1081,4.1924,4.2333,4.2517,4.2518,4.2557,4.282,4.323,4.329,4.33,4.33,4.329,4.329,4.324,4.296,4.28,4.2761,4.2432,4.2052,4.1832,4.1403,4.1164,4.0816,4.0457,4.0098,3.9939,3.9792,3.9499,3.8428,3.7386,3.5973,3.4413,3.3937,3.3927,3.3911,3.3634,3.3404,3.3414,3.3231,3.3153,3.3388,3.3597,3.3702,3.3927,3.4267,3.4371,3.4387,3.4387,3.4387,3.4387,3.4387,3.4387,3.4387,3.4387,3.4387,3.4439,3.4703,3.4919,3.494,3.4971,3.5524,3.6423,3.7183,3.7758,3.8575,3.9128,3.9319,3.9412,3.9412,3.9412,3.9412,3.9412,3.9412,3.9412,3.9412,3.9412,3.9412,3.9412,3.9412,3.9412,3.9412,3.9412,3.9412,3.9412,3.9412,3.9412,3.9412,3.9412,3.9412,3.9412,3.9412,3.9412,3.9412,3.9412,3.9412,3.9412,3.9412,3.7911,3.7911,3.8003,3.798,3.7934,3.8003,3.8049,3.7923,3.8057,3.8114,3.8296,3.8982,3.9343,3.942,4.0313,4.0753,4.0753,4.105,4.1491,4.2243,4.285,4.317,4.315,4.313,4.32,4.329,4.329,4.329,4.329,4.329,4.329,4.33,4.327,4.327,4.318,4.317,4.299,4.2541,4.2281,4.1952,4.1523,4.1283,4.0924,4.0576,4.0516,3.9443,3.8025,3.7107,3.6358,3.4575,3.446,3.4345,3.4335,3.4371,3.4345,3.4214,3.3921,3.3859,3.4188,3.3927,3.3875,3.4241,3.4345,3.4387,3.4387,3.4387,3.4387,3.4387,3.445,3.458,3.4544,3.4465,3.4387,3.4522,3.5135,3.5625,3.5806,3.5826,3.6423,3.7796,3.8032,3.8566,3.9019,3.9337,3.9412,3.9412,3.9412,3.9412,3.9412,3.9412,3.9412,3.9412,3.9412,3.9412,3.9412,3.9412,3.9412,3.9412,3.9412,3.9412,3.9412,3.9412,3.9412,3.9412,3.9412,3.9412,3.9412,3.9412,3.9412,3.9412,3.9412,3.9412,3.9412,3.9412,3.9412,3.7911,3.7957,3.865,3.8515,3.808,3.8605,3.8538,3.8026,3.8661,3.8937,3.911,3.9902,4.0292,4.0357,4.1218,4.1697,4.179,4.2243,4.286,4.2971,4.316,4.329,4.329,4.329,4.329,4.329,4.329,4.329,4.329,4.329,4.329,4.329,4.329,4.329,4.329,4.33,4.327,4.306,4.2661,4.2371,4.2152,4.1733,4.1433,4.1194,4.1154,4.0187,3.8834,3.8386,3.7308,3.5621,3.4711,3.4528,3.4424,3.4387,3.4387,3.4371,3.4329,3.4267,3.4356,3.4319,3.4267,3.4424,3.4528,3.4387,3.4387,3.4476,3.445,3.4502,3.4816,3.5088,3.5009,3.4633,3.4538,3.4694,3.5251,3.6026,3.6474,3.6641,3.6914,3.7328,3.791,3.8277,3.8519,3.9165,3.9301,3.9355,3.9412,3.9412,3.9412,3.9412,3.9412,3.9412,3.9601,3.9631,3.9699,3.9789,3.9939,3.99,3.984,3.981,3.978,3.966,3.975,3.9601,3.9412,3.9412,3.9412,3.9412,3.9412,3.9412,3.9412,3.9412,3.9412,3.9412,3.9412,3.9638,3.9683,4.0156,3.9892,3.9363,3.9947,3.9892,3.932,3.9618,3.9869,4.0065,4.0848,4.1239,4.1362,4.218,4.2608,4.2689,4.305,4.328,4.328,4.329,4.329,4.329,4.329,4.329,4.3329,4.329,4.329,4.329,4.329,4.329,4.329,4.329,4.329,4.329,4.329,4.33,4.324,4.302,4.283,4.2731,4.2482,4.2082,4.1832,4.1516,4.0568,3.8973,3.8761,3.7644,3.6167,3.5365,3.492,3.4502,3.4397,3.4397,3.4387,3.4387,3.4387,3.4424,3.4659,3.4826,3.4842,3.5035,3.5182,3.5208,3.5182,3.5208,3.526,3.5454,3.5611,3.5323,3.5077,3.489,3.5141,3.5766,3.6572,3.729,3.751,3.7701,3.7985,3.8584,3.8741,3.8962,3.921,3.9283,3.9412,3.9412,3.9412,3.9412,3.9412,3.9412,3.9472,3.978,3.9939,4.0038,4.0217,4.0586,4.0636,4.0666,4.0636,4.0636,4.0427,4.0178,3.9939,3.9631,3.9412,3.9412,3.9412,3.9412,3.9412,3.9412,3.9412,3.9412,3.9451,3.9412,4.1607,4.1601,4.1647,4.1264,4.0769,4.1293,4.1172,4.0589,4.0774,4.0817,4.0997,4.179,4.2171,4.2374,4.287,4.326,4.328,4.326,4.329,4.329,4.329,4.329,4.329,4.329,4.3509,4.3549,4.3389,4.3319,4.329,4.329,4.329,4.329,4.329,4.329,4.329,4.329,4.329,4.33,4.324,4.322,4.324,4.318,4.293,4.2521,4.1822,4.0831,3.9553,3.8939,3.8057,3.6407,3.6253,3.5678,3.4962,3.4659,3.4669,3.4711,3.4805,3.4842,3.4946,3.5155,3.5417,3.5443,3.5783,3.6018,3.6018,3.594,3.594,3.5966,3.6018,3.5876,3.548,3.5516,3.554,3.5795,3.6464,3.7386,3.8014,3.8345,3.8853,3.9065,3.911,3.9128,3.921,3.9355,3.9373,3.9412,3.9442,3.9412,3.9442,3.9442,3.9472,3.9412,3.9631,3.9999,4.0157,4.0346,4.0735,4.1064,4.1184,4.1244,4.1224,4.1014,4.0645,4.0187,3.9909,3.972,3.9571,3.9511,3.9481,3.9442,3.9412,3.9412,3.9442,3.9481,3.9571,4.1607,4.1616,4.1851,4.1427,4.0834,4.1571,4.1527,4.0845,4.1499,4.1769,4.1873,4.2669,4.302,4.313,4.316,4.3319,4.3389,4.3419,4.3419,4.3449,4.3479,4.3479,4.3539,4.3599,4.3967,4.4396,4.4047,4.3499,4.3509,4.329,4.3539,4.3379,4.3419,4.3449,4.3479,4.3329,4.3419,4.3409,4.3349,4.329,4.329,4.33,4.327,4.2991,4.2337,4.135,4.0351,3.9461,3.8436,3.7041,3.6866,3.6451,3.5981,3.5835,3.5783,3.5678,3.5641,3.56,3.5678,3.5861,3.5966,3.6003,3.6149,3.6164,3.6164,3.6197,3.6398,3.6385,3.6337,3.6162,3.5987,3.638,3.6145,3.6303,3.7121,3.812,3.8518,3.9203,3.9762,3.9744,3.9601,3.9571,3.975,3.981,3.975,3.9819,3.9849,3.972,3.9631,3.9631,3.9631,3.9532,3.9412,3.984,4.0247,4.0457,4.0765,4.1194,4.1403,4.1493,4.1463,4.1403,4.1134,4.1025,4.0636,4.0307,4.0098,3.9819,3.9759,3.9849,3.966,3.9442,3.978,4.0088,4.0217,4.4029,4.4024,4.3801,4.3434,4.3104,4.3113,4.2925,4.2578,4.2643,4.2679,4.279,4.312,4.3509,4.3638,4.3419,4.3479,4.3748,4.3818,4.3997,4.4237,4.4337,4.4326,4.4267,4.4307,4.4666,4.4995,4.4606,4.4496,4.4765,4.4516,4.4326,4.4337,4.4337,4.4337,4.4207,4.4027,4.3848,4.3748,4.3509,4.3319,4.33,4.329,4.329,4.316,4.282,4.1986,4.0763,4.0292,3.9135,3.7847,3.7482,3.7287,3.7105,3.6922,3.6713,3.6279,3.6149,3.6123,3.6201,3.6332,3.6578,3.6619,3.6802,3.7011,3.7037,3.7123,3.7178,3.7544,3.7709,3.7772,3.8031,3.8036,3.8085,3.8148,3.8725,3.9265,3.9839,4.0481,4.0532,4.0427,4.0567,4.0627,4.0546,4.0516,4.0277,4.0217,4.0247,4.0127,3.9969,4.0058,4.0148,4.0268,4.0268,4.0666,4.1005,4.1064,4.1184,4.1513,4.1762,4.1852,4.1992,4.2052,4.2252,4.2362,4.1853,4.1094,4.0735,4.0496,4.0376,4.0247,4.0157,4.0148,4.0457,4.0705,4.0855,4.629,4.6251,4.5574,4.5274,4.5214,4.4725,4.4466,4.4386,4.3927,4.3738,4.3698,4.3758,4.4057,4.4247,4.4087,4.4017,4.4486,4.4516,4.4796,4.5065,4.5155,4.5244,4.5274,4.5345,4.5434,4.5843,4.5544,4.5723,4.5653,4.5563,4.5514,4.5424,4.5454,4.5514,4.5354,4.4796,4.4576,4.4277,4.3848,4.3479,4.3329,4.329,4.329,4.323,4.3111,4.2181,4.0756,4.0238,3.9359,3.83,3.7848,3.7848,3.7874,3.79,3.7456,3.6671,3.6488,3.6462,3.6593,3.6881,3.7194,3.722,3.7612,3.7795,3.7936,3.796,3.8363,3.9044,3.9382,3.9321,3.9357,3.9755,3.9847,3.991,4.0071,4.0558,4.097,4.1375,4.1524,4.1523,4.1663,4.1513,4.1265,4.1064,4.0795,4.0765,4.0795,4.0795,4.0675,4.0885,4.1005,4.1254,4.1433,4.1772,4.1982,4.1952,4.2022,4.2183,4.2402,4.2551,4.2701,4.2841,4.301,4.301,4.2661,4.1953,4.1573,4.1164,4.0954,4.0795,4.0735,4.0765,4.0945,4.1283,4.1553,4.629,4.6241,4.5593,4.5274,4.5334,4.5185,4.5195,4.5155,4.5045,4.5075,4.4885,4.5005,4.5005,4.5125,4.5155,4.5125,4.5244,4.5274,4.5454,4.5674,4.5574,4.5514,4.5364,4.5274,4.6063,4.6561,4.6371,4.5903,4.5922,4.6132,4.6281,4.6341,4.6401,4.6211,4.6281,4.5693,4.5185,4.5065,4.4506,4.3938,4.3509,4.3419,4.3389,4.319,4.2617,4.1769,4.0657,3.9978,3.8937,3.8125,3.7911,3.7911,3.7911,3.7911,3.7874,3.7743,3.7691,3.7691,3.7586,3.7612,3.7691,3.7665,3.7848,3.79,3.8034,3.856,3.8977,3.9166,3.9935,4.0357,4.0316,4.0537,4.0528,4.0694,4.1007,4.1248,4.1613,4.2082,4.2241,4.2352,4.2432,4.2043,4.1713,4.1543,4.1334,4.1343,4.1343,4.1373,4.1463,4.1663,4.1773,4.1953,4.2022,4.2322,4.2291,4.2381,4.2361,4.2542,4.2751,4.2901,4.293,4.296,4.321,4.312,4.2891,4.2691,4.2292,4.1882,4.1523,4.1394,4.1424,4.1364,4.1313,4.1742,4.2241,4.6879,4.682,4.6161,4.6072,4.6292,4.5633,4.5524,4.5753,4.5484,4.5274,4.5274,4.5315,4.5484,4.5903,4.6232,4.6651,4.683,4.6561,4.6681,4.6721,4.6561,4.6411,4.6471,4.6441,4.692,4.704,4.7029,4.683,4.6681,4.707,4.7549,4.7889,4.7919,4.7829,4.7309,4.673,4.6251,4.5802,4.5234,4.4766,4.4407,4.4097,4.3878,4.3808,4.2671,4.165,4.0674,3.9705,3.8792,3.8091,3.7911,3.7911,3.7911,3.7911,3.79,3.79,3.7874,3.7874,3.7874,3.7911,3.7911,3.7911,3.7911,3.7911,3.8095,3.8751,3.9547,4.0,4.0848,4.1347,4.1638,4.2075,4.2079,4.212,4.2009,4.2166,4.2372,4.2611,4.293,4.304,4.307,4.2661,4.2362,4.2332,4.2162,4.2022,4.2112,4.2232,4.2322,4.2462,4.2571,4.2622,4.2622,4.2631,4.2481,4.2381,4.2131,4.2232,4.2471,4.2651,4.2771,4.288,4.316,4.329,4.315,4.298,4.2851,4.2531,4.2122,4.2122,4.2202,4.2142,4.2112,4.2452,4.289,4.7298,4.7238,4.676,4.685,4.7189,4.6202,4.6082,4.6461,4.6052,4.5813,4.5853,4.6063,4.6482,4.701,4.7589,4.793,4.8169,4.7758,4.7758,4.7799,4.7608,4.7279,4.713,4.7209,4.7339,4.7549,4.7309,4.7578,4.8057,4.8177,4.8397,4.9048,4.8637,4.8588,4.8248,4.7698,4.7179,4.651,4.5892,4.5454,4.5155,4.4785,4.4616,4.4163,4.3287,4.2021,4.0897,4.0071,3.9204,3.8091,3.7911,3.7911,3.7911,3.7911,3.7911,3.7911,3.7911,3.7911,3.7911,3.7911,3.7911,3.7969,3.8182,3.8361,3.8462,3.9149,4.0087,4.0923,4.178,4.2568,4.31,4.32,4.3061,4.2991,4.311,4.326,4.33,4.321,4.316,4.318,4.321,4.324,4.306,4.318,4.304,4.2761,4.283,4.3,4.305,4.305,4.304,4.3,4.2971,4.2941,4.2811,4.2561,4.2202,4.2112,4.2361,4.2561,4.2851,4.302,4.324,4.329,4.329,4.324,4.307,4.289,4.272,4.2731,4.2751,4.2871,4.301,4.324,4.3309,4.7298,4.7298,4.7238,4.7238,4.7298,4.7219,4.7149,4.716,4.7119,4.7059,4.717,4.7739,4.8289,4.8887,4.8917,4.8798,4.8368,4.8278,4.8098,4.7739,4.7339,4.7519,4.7578,4.7638,4.7769,4.8158,4.8027,4.8645,4.9303,4.8835,4.8637,4.8397,4.8768,4.8487,4.8218,4.8008,4.7728,4.7149,4.658,4.6042,4.5693,4.5364,4.5234,4.5074,4.4411,4.3346,4.1625,4.0803,3.965,3.8157,3.8177,3.7972,3.7972,3.82,3.826,3.808,3.8042,3.81,3.8215,3.8044,3.7911,3.8125,3.8492,3.8899,3.8921,4.0721,4.1686,4.18,4.2456,4.3,4.325,4.329,4.329,4.329,4.329,4.329,4.329,4.33,4.327,4.33,4.329,4.329,4.329,4.329,4.329,4.302,4.302,4.316,4.319,4.321,4.324,4.324,4.324,4.324,4.324,4.301,4.2771,4.2721,4.2871,4.301,4.318,4.329,4.3319,4.329,4.329,4.329,4.33,4.313,4.305,4.322,4.327,4.321,4.318,4.327,4.329,4.7298,4.7298,4.7298,4.7298,4.7298,4.7298,4.7298,4.7298,4.7298,4.7549,4.7967,4.8618,4.9265,4.9692,4.9871,4.9751,4.9482,4.9471,4.9015,4.8727,4.8517,4.8528,4.8528,4.8607,4.8876,4.9303,4.9232,4.9531,5.0529,4.9841,4.9602,4.9422,4.9157,4.8648,4.8409,4.7989,4.7799,4.7788,4.7339,4.6879,4.707,4.6251,4.5912,4.5852,4.4577,4.3522,4.223,4.1351,4.0001,3.9054,3.9055,3.8769,3.8454,3.8861,3.8959,3.8617,3.8559,3.8802,3.8925,3.8511,3.7911,3.8068,3.865,3.9315,3.965,4.1032,4.1829,4.2241,4.2839,4.3359,4.3319,4.3319,4.329,4.329,4.3359,4.3449,4.3449,4.3509,4.3479,4.3539,4.3419,4.329,4.329,4.329,4.329,4.327,4.33,4.329,4.329,4.329,4.329,4.329,4.329,4.329,4.329,4.329,4.329,4.3319,4.3319,4.3419,4.3479,4.3319,4.3319,4.3319,4.3359,4.3359,4.3359,4.3329,4.329,4.329,4.329,4.33,4.33,4.329,4.329,4.7298,4.7298,4.7298,4.7298,4.7298,4.7298,4.7298,4.7298,4.7298,4.7818,4.8618,4.9138,4.9643,5.0039,4.9949,4.968,4.9542,4.9602,4.9565,4.9415,4.9355,4.9666,4.9816,4.9954,5.0182,5.0637,5.0626,5.0877,5.1798,5.0936,5.0697,5.0559,5.0152,4.9445,4.8289,4.7739,4.7649,4.8008,4.7758,4.7489,4.7728,4.7119,4.66,4.6538,4.5612,4.4767,4.3827,4.2947,4.1643,4.0711,4.0272,4.0078,3.9844,3.9803,4.0144,3.9841,3.9741,4.0083,3.9983,3.9735,3.9119,3.9758,4.042,4.0752,4.0979,4.2015,4.317,4.288,4.3357,4.3599,4.3599,4.3688,4.3938,4.4087,4.4187,4.4247,4.4027,4.3967,4.3878,4.3818,4.3818,4.4027,4.4057,4.4117,4.3698,4.3569,4.329,4.329,4.329,4.329,4.329,4.329,4.329,4.329,4.329,4.329,4.3319,4.3409,4.3479,4.3688,4.3718,4.3599,4.3599,4.3758,4.3728,4.3539,4.3419,4.3349,4.3319,4.329,4.329,4.329,4.329,4.329,4.329,4.7339,4.7298,4.7298,4.7298,4.7369,4.7298,4.7298,4.7339,4.7459,4.8158,4.9217,4.9426,4.9714,5.0039,4.9853,4.9445,4.9086,4.9426,4.9636,4.9744,5.0361,5.0667,5.0978,5.1259,5.1517,5.1858,5.1876,5.2175,5.3126,5.2085,5.1846,5.1786,5.1349,5.0212,4.8457,4.7679,4.7709,4.8158,4.7758,4.7638,4.7608,4.7459,4.7279,4.7005,4.6829,4.6097,4.5185,4.4606,4.3347,4.2048,4.2198,4.1852,4.1105,4.1892,4.1985,4.1197,4.1872,4.1895,4.1281,4.1419,4.1724,4.1859,4.2183,4.2879,4.3588,4.4369,4.463,4.4001,4.4206,4.4267,4.4267,4.4296,4.4606,4.4766,4.4855,4.4825,4.4576,4.4516,4.4426,4.4337,4.4825,4.5185,4.5185,4.5035,4.4396,4.3967,4.3479,4.3359,4.3449,4.3479,4.3539,4.329,4.329,4.329,4.329,4.329,4.3349,4.3469,4.3539,4.3658,4.4027,4.4217,4.4217,4.4247,4.4237,4.4207,4.3778,4.3349,4.3379,4.3419,4.3329,4.329,4.329,4.329,4.329,4.7967,4.7908,4.7489,4.7549,4.7878,4.7489,4.7298,4.7459,4.8218,4.9116,4.9871,5.032,5.032,5.0308,5.035,4.9894,4.9378,5.0702,5.1121,5.072,5.1576,5.2199,5.2498,5.2618,5.2875,5.3312,5.3312,5.3503,5.4503,5.3431,5.3282,5.3282,5.2384,5.1068,4.9811,4.9015,4.8966,4.9374,4.9015,4.8637,4.8558,4.8188,4.7799,4.7429,4.7418,4.7003,4.6171,4.5824,4.4845,4.3485,4.3697,4.3458,4.2711,4.3327,4.3594,4.2866,4.3138,4.3353,4.3633,4.4088,4.3893,4.3659,4.3566,4.4119,4.4035,4.4775,4.5011,4.5075,4.4965,4.4965,4.4975,4.4975,4.5125,4.5125,4.5155,4.5155,4.5035,4.5065,4.5065,4.5005,4.5274,4.5424,4.5494,4.5693,4.5274,4.5065,4.4685,4.4177,4.4147,4.3997,4.3938,4.3479,4.329,4.329,4.3329,4.3628,4.3658,4.3718,4.3569,4.3419,4.3848,4.4696,4.4666,4.4606,4.4755,4.4875,4.4476,4.4057,4.3688,4.3539,4.3628,4.3449,4.329,4.329,4.329,4.8648,4.8618,4.8188,4.8345,4.8805,4.8278,4.8218,4.8775,4.9804,5.0421,5.0578,5.0787,5.0775,5.0578,5.044,5.072,5.0085,5.139,5.2378,5.1995,5.2965,5.3545,5.3785,5.3887,5.4102,5.4461,5.4581,5.479,5.5042,5.473,5.4521,5.4179,5.3431,5.2623,5.1517,5.084,5.0092,5.026,4.9871,4.9523,4.9374,4.9026,4.8457,4.8267,4.813,4.7997,4.7317,4.6744,4.6229,4.5267,4.4949,4.5013,4.4522,4.468,4.5103,4.4559,4.455,4.5072,4.598,4.6774,4.6407,4.5607,4.5197,4.5049,4.5146,4.5847,4.5808,4.5783,4.5663,4.5663,4.5663,4.5663,4.5723,4.5723,4.5903,4.5903,4.5723,4.5743,4.5843,4.5783,4.5843,4.5873,4.5903,4.6082,4.6142,4.6052,4.5992,4.5424,4.4845,4.4666,4.4516,4.4117,4.3908,4.4087,4.4177,4.4247,4.4217,4.4037,4.3967,4.3927,4.4675,4.5642,4.5294,4.5055,4.5373,4.5533,4.5204,4.4845,4.4486,4.4277,4.4277,4.3967,4.3449,4.3479,4.3628,4.9348,4.9318,4.9318,4.9625,5.0069,4.9774,5.0212,5.1187,5.1828,5.1786,5.1307,5.0787,5.0877,5.0978,5.0133,5.0313,5.1187,5.2037,5.2636,5.3216,5.3905,5.4461,5.4832,5.4982,5.4922,5.5042,5.5132,5.5012,5.5222,5.5072,5.5059,5.4999,5.4371,5.3922,5.3264,5.2534,5.1666,5.1367,5.1008,5.0679,5.044,4.9924,4.9625,4.9464,4.9467,4.9396,4.8998,4.8726,4.8015,4.7415,4.7081,4.6661,4.6565,4.6851,4.6554,4.64,4.6555,4.7234,4.7904,4.8592,4.8742,4.7881,4.7498,4.7404,4.7114,4.6924,4.6638,4.6431,4.6341,4.6341,4.6341,4.6431,4.652,4.673,4.701,4.685,4.651,4.651,4.664,4.673,4.685,4.6879,4.686,4.695,4.6711,4.677,4.6621,4.6352,4.5813,4.5414,4.5234,4.4975,4.4885,4.5065,4.5065,4.4885,4.4796,4.4606,4.5084,4.5254,4.6001,4.6241,4.5971,4.5852,4.6151,4.6151,4.5743,4.5484,4.5274,4.5125,4.4855,4.4606,4.4117,4.4207,4.4356,4.9949,4.9901,4.9486,4.9924,5.1026,5.2247,5.2486,5.2037,5.2157,5.2276,5.2618,5.2426,5.2097,5.1887,5.2019,5.1977,5.2396,5.2982,5.3581,5.4132,5.4521,5.4922,5.5132,5.5222,5.5222,5.5222,5.5222,5.5222,5.5222,5.5222,5.5222,5.5132,5.494,5.4862,5.464,5.4281,5.3443,5.2755,5.2306,5.1965,5.1684,5.1319,5.102,5.0828,5.0398,5.026,4.9991,4.9546,4.8893,4.8693,4.863,4.8421,4.8484,4.8574,4.844,4.8406,4.8517,4.8741,4.9004,4.9198,4.9408,4.9366,4.8577,4.8158,4.7889,4.7668,4.7328,4.7179,4.7059,4.7029,4.7089,4.7189,4.7279,4.7459,4.7608,4.7429,4.7179,4.7298,4.7429,4.7429,4.7578,4.7418,4.7459,4.7238,4.707,4.7219,4.7219,4.704,4.6811,4.6411,4.5992,4.5753,4.5783,4.5903,4.5544,4.5274,4.5244,4.5274,4.5773,4.6012,4.6012,4.6161,4.636,4.657,4.6719,4.654,4.6151,4.6012,4.5963,4.5494,4.5195,4.5035,4.4905,4.4995,4.5025,5.0996,5.0966,5.0923,5.145,5.2534,5.3952,5.4072,5.3443,5.3396,5.3533,5.3545,5.3276,5.3126,5.3054,5.3067,5.3216,5.3545,5.4102,5.4581,5.467,5.4999,5.5132,5.5192,5.5222,5.5222,5.5222,5.5222,5.5222,5.5222,5.5222,5.5222,5.5222,5.5222,5.5222,5.5102,5.4952,5.467,5.4114,5.3665,5.3384,5.3084,5.2725,5.2306,5.1965,5.1325,5.0966,5.0596,5.0074,4.9666,4.9378,4.9288,4.9288,4.9247,4.9247,4.9247,4.919,4.9467,4.9534,4.9703,4.9972,5.0163,5.0103,4.9553,4.9374,4.8775,4.8356,4.8147,4.7978,4.7848,4.7758,4.7848,4.7919,4.7997,4.8087,4.7997,4.7889,4.7978,4.8098,4.8128,4.8098,4.8008,4.7818,4.7638,4.7489,4.7339,4.7399,4.7578,4.7728,4.7619,4.744,4.695,4.6561,4.6621,4.6721,4.6292,4.6112,4.6232,4.6322,4.6371,4.6491,4.6232,4.6591,4.7268,4.7328,4.7209,4.6939,4.664,4.6689,4.658,4.6202,4.6033,4.6112,4.5982,4.5792,4.5802,5.2217,5.2294,5.3007,5.3426,5.4162,5.479,5.5132,5.5222,5.5012,5.482,5.4221,5.3665,5.3785,5.4012,5.3875,5.4174,5.4503,5.4952,5.4999,5.5192,5.5162,5.5222,5.5222,5.5222,5.5222,5.5222,5.5222,5.5222,5.5222,5.5222,5.5222,5.5222,5.5222,5.5222,5.5222,5.5222,5.5012,5.4862,5.4491,5.4192,5.4072,5.3725,5.3348,5.3246,5.2725,5.2127,5.1535,5.0847,5.0159,4.9774,4.9707,4.9857,4.9947,5.0007,4.9947,4.9965,5.0481,5.0559,5.0697,5.0877,5.1379,5.1349,5.0985,5.0518,4.9811,4.8865,4.8547,4.8648,4.8517,4.8528,4.8588,4.8528,4.8547,4.8607,4.8588,4.8558,4.8678,4.8738,4.8738,4.8708,4.8588,4.8427,4.8645,4.8544,4.8674,4.8177,4.8297,4.8686,4.8775,4.8727,4.8248,4.7728,4.7679,4.7769,4.763,4.747,4.7549,4.7578,4.7538,4.7837,4.8166,4.8297,4.8368,4.8068,4.7668,4.7429,4.7219,4.7149,4.7179,4.7279,4.72,4.735,4.7219,4.6909,4.661,5.2498,5.3037,5.3683,5.3773,5.3635,5.4713,5.5222,5.5222,5.5222,5.5102,5.4952,5.4803,5.4713,5.4773,5.4683,5.4892,5.5072,5.5222,5.5222,5.5192,5.5192,5.5222,5.5222,5.5222,5.5222,5.5222,5.5222,5.5222,5.5222,5.5222,5.5222,5.5222,5.5222,5.5222,5.5222,5.5222,5.5192,5.5192,5.5042,5.485,5.4803,5.4862,5.4713,5.4473,5.3982,5.3551,5.3042,5.2695,5.2127,5.169,5.2091,5.224,5.23,5.2222,5.1941,5.172,5.1828,5.1696,5.1636,5.1636,5.1858,5.1696,5.1236,5.0996,5.041,4.9415,4.8977,4.9157,4.9247,4.9288,4.9288,4.9187,4.9157,4.9187,4.9217,4.9277,4.9378,4.9408,4.9378,4.9318,4.9198,4.9325,4.9531,4.971,4.986,5.0069,5.0308,5.0589,5.0649,5.0601,5.0044,4.9535,4.8977,4.8947,4.8828,4.8858,4.8895,4.9123,4.9202,4.9591,5.0039,4.9751,4.9434,4.8607,4.8109,4.8008,4.7788,4.7358,4.7448,4.7878,4.8098,4.8128,4.8438,4.8278,4.7799,5.2396,5.2887,5.379,5.3982,5.3862,5.476,5.5222,5.5222,5.5222,5.5222,5.5222,5.5222,5.5222,5.5222,5.5222,5.5222,5.5222,5.5222,5.5222,5.5222,5.5222,5.5222,5.5222,5.5222,5.5222,5.5222,5.5222,5.5222,5.5222,5.5222,5.5222,5.5192,5.5192,5.5162,5.5192,5.5192,5.5132,5.5192,5.5132,5.5132,5.5132,5.5192,5.5192,5.5012,5.464,5.4299,5.3982,5.3575,5.3097,5.2767,5.2917,5.2989,5.2869,5.2618,5.266,5.2468,5.2378,5.2276,5.2157,5.2037,5.2007,5.1726,5.1367,5.1056,5.1457,5.0571,5.0182,5.0272,4.9841,4.9811,5.0062,5.0062,5.0122,5.0182,5.0002,4.9883,5.0152,5.0373,5.0361,5.0331,5.0272,5.0331,5.0488,5.0518,5.0679,5.0757,5.1206,5.1606,5.1816,5.2025,5.16,5.1253,5.0684,5.0253,5.0152,5.0152,5.0212,5.0458,5.0775,5.0918,5.1038,5.0769,5.038,4.9703,4.9164,4.8895,4.8585,4.8147,4.8188,4.8648,4.8768,4.8828,4.9168,4.9426,4.8947,5.2456,5.2504,5.3683,5.4209,5.4299,5.4922,5.5222,5.5222,5.5222,5.5222,5.5222,5.5222,5.5222,5.5222,5.5222,5.5222,5.5222,5.5222,5.5222,5.5222,5.5222,5.5222,5.5222,5.5222,5.5222,5.5222,5.5222,5.5222,5.5222,5.5222,5.5192,5.5179,5.5119,5.5072,5.5042,5.4952,5.4773,5.4683,5.4683,5.479,5.4952,5.5132,5.5102,5.491,5.4628,5.4329,5.4042,5.3845,5.3498,5.3246,5.3246,5.3169,5.3109,5.2857,5.2929,5.2809,5.2426,5.2306,5.2187,5.1917,5.1977,5.1858,5.1457,5.1397,5.1726,5.1606,5.1206,5.0907,5.0476,5.0416,5.0667,5.0817,5.0877,5.0907,5.0637,5.0458,5.0799,5.1098,5.1098,5.1116,5.1116,5.1116,5.1277,5.1307,5.1427,5.1517,5.1756,5.2067,5.2366,5.2558,5.2468,5.2438,5.2258,5.1887,5.1546,5.1498,5.1558,5.1905,5.2175,5.2157,5.2097,5.2055,5.1726,5.0936,5.0469,4.9991,4.9583,4.9187,4.9318,4.9468,4.9426,4.9505,4.9834,5.0014,4.9834,5.3503,5.3067,5.385,5.4209,5.4299,5.4922,5.5222,5.5222,5.5222,5.5222,5.5222,5.5222,5.5222,5.5222,5.5222,5.5222,5.5222,5.5222,5.5222,5.5222,5.5102,5.5162,5.5132,5.5012,5.5162,5.5162,5.5132,5.5222,5.5162,5.5162,5.5162,5.5132,5.4521,5.4401,5.4341,5.4174,5.3935,5.3994,5.3994,5.4024,5.4174,5.4384,5.476,5.476,5.482,5.4581,5.4461,5.4653,5.4431,5.4042,5.3486,5.3258,5.3097,5.2947,5.2989,5.2959,5.2546,5.2528,5.2366,5.2007,5.2007,5.1917,5.1517,5.1247,5.1427,5.1427,5.1187,5.1187,5.0907,5.0907,5.1068,5.1068,5.1128,5.1128,5.0978,5.0948,5.1128,5.1187,5.1187,5.1206,5.1236,5.1487,5.1887,5.2007,5.2247,5.2366,5.2588,5.2857,5.2827,5.3019,5.3169,5.3246,5.3336,5.3366,5.2947,5.2857,5.2947,5.3294,5.3354,5.2965,5.2977,5.3533,5.3102,5.1995,5.1385,5.0907,5.0541,5.0145,5.0175,5.0223,5.011,5.0159,5.0499,5.0619,5.0421]},{"header":{"parameterUnit":"m.s-1","parameterCategory":1,"la1":31.0,"la2":29.5877,"lo1":-88.7671,"lo2":-86.6584,"dy":0.0162,"dx":0.0185,"nx":115,"ny":88,"refTime":"2023-05-23T06:00:00:Z","depth":0,"parameterNumber":3,"parameterNumberName":"V-component_of_WINDS"},"data":[0.0,0.0,0.0,0.0,0.0,0.0,0.0,0.0,0.0,0.0,0.0,0.0,0.0,0.0,0.0,0.0,0.0,0.0,0.0,0.0,0.0,0.0,0.0,0.0,0.0,0.0,0.0,0.0,0.0,0.0,0.0,0.0,0.0,0.0,0.0,0.0,0.0,0.0,0.0,0.0,0.0,0.0,0.0,0.0,0.0,0.0,0.0,0.0,0.0,0.0,0.0,0.0,0.0,0.0,0.0,0.0,0.0,0.0,0.0,0.0,0.0,0.0,0.0,0.0,0.0,0.0,0.0,0.0,0.0,0.0,0.0,0.0,0.0,0.0,0.0,0.0,0.0,0.0,0.0,0.0,0.0,0.0,0.0,0.0,0.0,0.0,0.0,0.0,0.0,0.0,0.0,0.0,0.0,0.0,0.0,0.0,0.0,0.0,0.0,0.0,0.0,0.0,0.0,0.0,0.0,0.0,0.0,0.0,0.0,0.0,0.0,0.0,0.0,0.0,0.0,0.0,0.0,0.0,0.0,0.0,0.0,0.0,0.0,0.0,0.0,0.0,0.0,0.0,0.0,0.0,0.0,0.0,0.0,0.0,0.0,0.0,0.0,0.0,0.0,0.0,0.0,0.0,0.0,0.0,0.0,0.0,0.0,0.0,0.0,0.0,0.0,0.0,0.0,0.0,0.0,0.0,0.0,0.0,0.0,0.0,0.0,0.0,0.0,0.0,0.0,0.0,0.0,0.0,0.0,0.0,0.0,0.0,0.0,0.0,0.0,0.0,0.0,0.0,0.0,0.0,0.0,0.0,0.0,0.0,0.0,0.0,0.0,0.0,0.0,0.0,0.0,0.0,0.0,0.0,0.0,0.0,0.0,0.0,0.0,0.0,0.0,0.0,0.0,0.0,0.0,0.0,0.0,0.0,0.0,0.0,0.0,0.0,0.0,0.0,0.0,0.0,0.0,0.0,0.0,0.0,0.0,0.0,0.0,0.0,0.0,0.0,0.0,0.0,0.0,0.0,0.0,0.0,0.0,0.0,0.0,0.0,0.0,0.0,0.0,0.0,0.0,0.0,0.0,0.0,0.0,0.0,0.0,0.0,0.0,0.0,0.0,0.0,0.0,0.0,0.0,0.0,0.0,0.0,0.0,0.0,0.0,0.0,0.0,0.0,0.0,0.0,0.0,0.0,0.0,0.0,0.0,0.0,0.0,0.0,0.0,0.0,0.0,0.0,0.0,0.0,0.0,0.0,0.0,0.0,0.0,0.0,0.0,0.0,0.0,0.0,0.0,0.0,0.0,0.0,0.0,0.0,0.0,0.0,0.0,0.0,0.0,0.0,0.0,0.0,0.0,0.0,0.0,0.0,0.0,0.0,0.0,0.0,0.0,0.0,0.0,0.0,0.0,0.0,0.0,0.0,0.0,0.0,0.0,0.0,0.0,0.0,0.0,0.0,0.0,0.0,0.0,0.0,0.0,0.0,0.0,0.0,0.0,0.0,0.0,0.0,0.0,0.0,0.0,0.0,0.0,0.0,0.0,0.0,0.0,0.0,0.0,0.0,0.0,0.0,0.0,0.0,0.0,0.0,0.0,0.0,0.0,0.0,0.0,0.0,0.0,0.0,0.0,0.0,0.0,0.0,0.0,0.0,0.0,0.0,0.0,0.0,0.0,0.0,0.0,0.0,0.0,0.0,0.0,0.0,0.0,0.0,0.0,0.0,0.0,0.0,0.0,0.0,0.0,0.0,0.0,0.0,0.0,0.0,0.0,0.0,0.0,0.0,0.0,0.0,0.0,0.0,0.0,0.0,0.0,0.0,0.0,0.0,0.0,0.0,0.0,0.0,0.0,0.0,0.0,0.0,0.0,0.0,0.0,0.0,0.0,0.0,0.0,0.0,0.0,0.0,0.0,0.0,0.0,0.0,0.0,0.0,0.0,0.0,0.0,0.0,0.0,0.0,0.0,0.0,0.0,0.0,0.0,0.0,0.0,0.0,0.0,0.0,0.0,0.0,0.0,0.0,0.0,0.0,0.0,0.0,0.0,0.0,0.0,0.0,0.0,0.0,0.0,0.0,0.0,0.0,0.0,0.0,0.0,0.0,0.0,0.0,0.0,0.0,0.0,0.0,0.0,0.0,0.0,0.0,0.0,0.0,0.0,0.0,0.0,0.0,0.0,0.0,0.0,0.0,0.0,0.0,0.0,0.0,0.0,0.0,0.0,0.0,0.0,0.0,0.0,0.0,0.0,0.0,0.0,0.0,0.0,0.0,0.0,0.0,0.0,0.0,0.0,0.0,0.0,0.0,0.0,0.0,0.0,0.0,0.0,0.0,0.0,0.0,0.0,0.0,0.0,0.0,0.0,0.0,0.0,0.0,0.0,0.0,0.0,0.0,0.0,0.0,0.0,0.0,0.0,0.0,0.0,0.0,0.0,0.0,0.0,0.0,0.0,0.0,0.0,0.0,0.0,0.0,0.0,0.0,0.0,0.0,0.0,0.0,0.0,0.0,0.0,0.0,0.0,0.0,0.0,0.0,0.0,0.0,0.0,0.0,0.0,0.0,0.0,0.0,0.0,0.0,0.0,0.0,0.0,0.0,0.0,0.0,0.0,0.0,0.0,0.0,0.0,0.0,0.0,0.0,0.0,0.0,0.0,0.0,0.0,0.0,0.0,0.0,0.0,0.0,0.0,0.0,0.0,0.0,0.0,0.0,0.0,0.0,0.0,0.0,0.0,0.0,0.0,0.0,0.0,0.0,0.0,0.0,0.0,0.0,0.0,0.0,0.0,0.0,0.0,0.0,0.0,0.0,0.0,0.0,0.0,0.0,0.0,0.0,0.0,0.0,0.0,0.0,0.0,0.0,0.0,0.0,0.0,0.0,0.0,0.0,0.0,0.0,0.0,0.0,0.0,0.0,0.0,0.0,0.0,0.0,0.0,0.0,0.0,0.0,0.0,0.0,0.0,0.0,0.0,0.0,0.0,0.0,0.0,0.0,0.0,0.0,0.0,0.0,0.0,0.0,0.0,0.0,0.0,0.0,0.0,0.0,0.0,0.0,0.0,0.0,0.0,0.0,0.0,0.0,0.0,0.0,0.0,0.0,0.0,0.0,0.0,0.0,0.0,0.0,0.0,0.0,0.0,0.0,0.0,0.0,0.0,0.0,0.0,0.0,0.0,0.0,0.0,0.0,0.0,0.0,0.0,0.0,0.0,0.0,0.0,0.0,0.0,0.0,0.0,0.0,0.0,0.0,0.0,0.0,0.0,0.0,0.0,0.0,0.0,0.0,0.0,0.0,0.0,0.0,0.0,0.0,0.0,0.0,0.0,0.0,0.0,0.0,0.0,0.0,0.0,0.0,0.0,0.0,0.0,0.0,0.0,0.0,0.0,0.0,0.0,0.0,0.0,0.0,0.0,0.0,0.0,0.0,0.0,0.0,0.0,0.0,0.0,0.0,0.0,0.0,0.0,0.0,0.0,0.0,0.0,0.0,0.0,0.0,0.0,0.0,0.0,0.0,0.0,0.0,0.0,0.0,0.0,0.0,0.0,0.0,0.0,0.0,0.0,0.0,0.0,0.0,0.0,0.0,0.0,0.0,0.0,0.0,0.0,0.0,0.0,0.0,0.0,0.0,0.0,0.0,0.0,0.0,0.0,0.0,0.0,0.0,0.0,0.0,0.0,0.0,0.0,0.0,0.0,0.0,0.0,0.0,0.0,0.0,0.0,0.0,0.0,0.0,0.0,0.0,0.0,0.0,0.0,0.0,0.0,0.0,0.0,0.0,0.0,0.0,0.0,0.0,0.0,0.0,0.0,0.0,0.0,0.0,0.0,0.0,0.0,0.0,0.0,0.0,0.0,0.0,0.0,0.0,0.0,0.0,0.0,0.0,0.0,0.0,0.0,0.0,0.0,0.0,0.0,0.0,0.0,0.0,0.0,0.0,0.0,0.0,0.0,0.0,0.0,0.0,0.0,0.0,0.0,0.0,0.0,0.0,0.0,0.0,0.0,0.0,0.0,0.0,0.0,0.0,0.0,0.0,0.0,0.0,0.0,0.0,0.0,0.0,0.0,0.0,0.0,0.0,0.0,0.0,0.0,0.0,0.0,0.0,0.0,0.0,0.0,0.0,0.0,0.0,0.0,0.0,0.0,0.0,0.0,0.0,0.0,0.0,0.0,0.0,0.0,0.0,0.0,0.0,0.0,0.0,0.0,0.0,0.0,0.0,0.0,0.0,0.0,0.0,0.0,0.0,0.0,0.0,0.0,0.0,0.0,0.0,1.918,0.0,0.0,0.0,0.0,0.0,0.0,0.0,0.0,0.0,0.0,0.0,0.0,0.0,0.0,0.0,0.0,0.0,0.0,0.0,0.0,0.0,0.0,0.0,0.0,0.0,0.0,0.0,0.0,0.0,0.0,0.0,0.0,0.0,0.0,0.0,0.0,0.0,0.0,0.0,0.0,0.0,0.0,0.0,0.0,0.0,0.0,0.0,0.0,0.0,0.0,0.0,0.0,0.0,0.0,0.0,0.0,0.0,0.0,0.0,0.0,0.0,0.0,0.0,0.0,0.0,0.0,0.0,0.0,0.0,0.0,0.0,0.0,0.0,0.0,0.0,0.0,0.0,0.0,0.0,0.0,0.0,0.0,0.0,0.0,0.0,0.0,0.0,0.0,0.0,0.0,0.0,0.0,0.0,0.0,0.0,0.0,0.0,0.0,0.0,0.0,0.0,0.0,0.0,0.0,0.0,0.0,0.0,0.0,0.0,0.0,2.038,2.0586,1.9754,1.9286,1.9267,0.0,0.0,0.0,0.0,0.0,0.0,0.0,0.0,0.0,0.0,0.0,0.0,0.0,0.0,0.0,0.0,0.0,0.0,0.0,0.0,0.0,0.0,0.0,0.0,0.0,0.0,0.0,0.0,0.0,0.0,0.0,0.0,0.0,0.0,0.0,0.0,0.0,0.0,0.0,0.0,0.0,0.0,0.0,0.0,0.0,0.0,0.0,0.0,0.0,0.0,0.0,0.0,0.0,0.0,0.0,0.0,0.0,0.0,0.0,0.0,0.0,0.0,0.0,0.0,0.0,0.0,0.0,0.0,0.0,0.0,0.0,0.0,0.0,0.0,0.0,0.0,0.0,0.0,0.0,0.0,0.0,0.0,0.0,0.0,0.0,0.0,0.0,0.0,0.0,0.0,0.0,0.0,0.0,0.0,0.0,0.0,0.0,0.0,0.0,0.0,0.0,0.0,0.0,0.0,0.0,0.0,0.0,0.0,0.0,0.0,0.0,0.0,1.9834,1.9354,1.9121,0.0,0.0,0.0,0.0,0.0,0.0,0.0,0.0,0.0,0.0,0.0,0.0,0.0,0.0,0.0,0.0,0.0,0.0,0.0,0.0,0.0,0.0,0.0,0.0,0.0,0.0,0.0,0.0,0.0,0.0,0.0,0.0,0.0,0.0,0.0,0.0,0.0,0.0,0.0,0.0,0.0,0.0,0.0,0.0,0.0,0.0,0.0,0.0,0.0,0.0,0.0,0.0,0.0,0.0,0.0,0.0,0.0,0.0,0.0,0.0,0.0,0.0,0.0,0.0,0.0,0.0,0.0,0.0,0.0,0.0,0.0,0.0,0.0,0.0,0.0,0.0,0.0,0.0,0.0,0.0,0.0,0.0,0.0,0.0,0.0,0.0,0.0,0.0,0.0,0.0,0.0,0.0,0.0,0.0,0.0,0.0,0.0,0.0,0.0,0.0,0.0,0.0,0.0,0.0,0.0,0.0,0.0,0.0,0.0,0.0,2.0595,2.0586,2.0107,0.0,1.8704,0.0,0.0,0.0,0.0,0.0,0.0,0.0,0.0,0.0,0.0,0.0,0.0,0.0,0.0,0.0,0.0,0.0,0.0,0.0,0.0,0.0,0.0,0.0,0.0,0.0,0.0,0.0,0.0,0.0,0.0,0.0,0.0,0.0,0.0,0.0,0.0,0.0,0.0,0.0,0.0,0.0,0.0,0.0,0.0,0.0,0.0,0.0,0.0,0.0,0.0,0.0,0.0,0.0,0.0,0.0,0.0,0.0,0.0,0.0,0.0,0.0,0.0,0.0,0.0,0.0,0.0,0.0,0.0,0.0,0.0,0.0,0.0,0.0,0.0,0.0,0.0,0.0,0.0,0.0,0.0,0.0,0.0,0.0,0.0,0.0,0.0,0.0,0.0,0.0,0.0,0.0,0.0,0.0,0.0,0.0,0.0,0.0,0.0,0.0,0.0,0.0,0.0,0.0,0.0,0.0,0.0,0.0,0.0,0.0,0.0,2.0595,2.0595,1.9912,1.9249,0.0,0.0,0.0,0.0,0.0,0.0,0.0,0.0,0.0,0.0,0.0,0.0,0.0,0.0,0.0,0.0,0.0,0.0,0.0,0.0,0.0,0.0,0.0,0.0,0.0,0.0,0.0,0.0,0.0,0.0,0.0,0.0,0.0,0.0,0.0,0.0,0.0,0.0,0.0,0.0,0.0,0.0,0.0,0.0,0.0,0.0,0.0,0.0,0.0,0.0,0.0,0.0,0.0,0.0,0.0,0.0,0.0,0.0,0.0,0.0,0.0,0.0,0.0,0.0,0.0,0.0,0.0,0.0,0.0,0.0,0.0,0.0,0.0,0.0,0.0,0.0,0.0,0.0,0.0,0.0,0.0,0.0,0.0,0.0,0.0,0.0,0.0,0.0,0.0,0.0,0.0,0.0,0.0,0.0,0.0,0.0,0.0,0.0,0.0,0.0,0.0,0.0,0.0,0.0,0.0,0.0,0.0,0.0,0.0,0.0,2.0146,2.0595,2.0556,1.9745,1.915,1.8792,0.0,0.0,0.0,0.0,0.0,0.0,0.0,0.0,0.0,0.0,0.0,0.0,0.0,0.0,0.0,0.0,0.0,0.0,0.0,0.0,0.0,0.0,0.0,0.0,0.0,0.0,0.0,0.0,0.0,0.0,0.0,0.0,0.0,0.0,0.0,0.0,0.0,0.0,0.0,0.0,0.0,0.0,0.0,0.0,0.0,0.0,0.0,0.0,0.0,0.0,0.0,0.0,0.0,0.0,0.0,0.0,0.0,0.0,0.0,0.0,0.0,0.0,0.0,0.0,0.0,0.0,0.0,0.0,0.0,0.0,0.0,0.0,0.0,0.0,0.0,0.0,0.0,0.0,0.0,0.0,0.0,0.0,0.0,0.0,0.0,0.0,0.0,0.0,0.0,0.0,0.0,0.0,0.0,0.0,0.0,0.0,0.0,0.0,0.0,0.0,0.0,0.0,0.0,0.0,0.0,0.0,0.0,0.0,1.9325,2.0136,2.0595,2.0576,1.9765,1.9286,0.0,0.0,0.0,0.0,0.0,0.0,0.0,0.0,0.0,0.0,0.0,0.0,0.0,0.0,0.0,0.0,0.0,0.0,0.0,0.0,0.0,0.0,0.0,0.0,0.0,0.0,0.0,0.0,0.0,0.0,0.0,0.0,0.0,0.0,0.0,0.0,0.0,0.0,0.0,0.0,0.0,0.0,0.0,0.0,0.0,0.0,0.0,0.0,0.0,0.0,0.0,0.0,0.0,0.0,0.0,0.0,0.0,0.0,0.0,0.0,0.0,0.0,0.0,0.0,0.0,0.0,0.0,0.0,0.0,0.0,0.0,0.0,0.0,0.0,0.0,0.0,0.0,0.0,0.0,0.0,0.0,0.0,0.0,0.0,0.0,0.0,0.0,0.0,0.0,0.0,0.0,0.0,0.0,0.0,0.0,0.0,0.0,0.0,0.0,0.0,0.0,0.0,0.0,0.0,0.0,0.0,0.0,0.0,0.0,1.9707,2.0283,2.0595,2.0586,1.9754,1.9286,0.0,0.0,0.0,0.0,0.0,0.0,0.0,0.0,0.0,0.0,0.0,0.0,0.0,0.0,0.0,0.0,0.0,0.0,0.0,0.0,0.0,0.0,0.0,0.0,0.0,0.0,0.0,0.0,0.0,0.0,0.0,0.0,0.0,0.0,0.0,0.0,0.0,0.0,0.0,0.0,0.0,0.0,0.0,0.0,0.0,0.0,0.0,0.0,0.0,0.0,0.0,0.0,0.0,0.0,0.0,0.0,0.0,0.0,0.0,0.0,0.0,0.0,0.0,0.0,0.0,0.0,0.0,0.0,0.0,0.0,0.0,0.0,0.0,0.0,0.0,0.0,0.0,0.0,0.0,0.0,0.0,0.0,0.0,0.0,0.0,0.0,0.0,0.0,0.0,0.0,0.0,0.0,0.0,0.0,0.0,0.0,0.0,0.0,0.0,0.0,0.0,0.0,0.0,0.0,0.0,0.0,0.0,0.0,0.0,2.0117,0.0,2.0595,2.0576,1.9902,1.9443,0.0,0.0,0.0,0.0,0.0,0.0,0.0,0.0,0.0,0.0,0.0,0.0,0.0,0.0,0.0,0.0,0.0,0.0,0.0,0.0,0.0,0.0,0.0,0.0,0.0,0.0,0.0,0.0,0.0,0.0,0.0,0.0,0.0,0.0,0.0,0.0,0.0,0.0,0.0,0.0,0.0,0.0,0.0,0.0,0.0,0.0,0.0,0.0,0.0,0.0,0.0,0.0,0.0,0.0,0.0,0.0,0.0,0.0,0.0,0.0,0.0,0.0,0.0,0.0,0.0,0.0,0.0,0.0,0.0,0.0,0.0,0.0,0.0,0.0,0.0,0.0,0.0,0.0,0.0,0.0,0.0,0.0,0.0,0.0,0.0,0.0,0.0,0.0,0.0,0.0,0.0,0.0,0.0,0.0,0.0,0.0,0.0,0.0,0.0,0.0,0.0,0.0,0.0,0.0,0.0,0.0,0.0,0.0,2.0146,2.0576,2.0595,2.0595,2.0605,2.0137,1.9698,0.0,0.0,0.0,0.0,0.0,0.0,0.0,0.0,0.0,0.0,0.0,0.0,0.0,0.0,0.0,0.0,0.0,0.0,0.0,0.0,0.0,0.0,0.0,0.0,0.0,0.0,0.0,0.0,0.0,0.0,0.0,0.0,0.0,0.0,0.0,0.0,0.0,0.0,0.0,0.0,0.0,0.0,0.0,0.0,0.0,0.0,0.0,0.0,0.0,0.0,0.0,0.0,0.0,0.0,0.0,0.0,0.0,0.0,0.0,0.0,0.0,0.0,0.0,0.0,0.0,0.0,0.0,0.0,0.0,0.0,0.0,0.0,0.0,0.0,0.0,0.0,0.0,0.0,0.0,0.0,0.0,0.0,0.0,0.0,0.0,0.0,0.0,0.0,0.0,0.0,0.0,0.0,0.0,0.0,0.0,0.0,0.0,0.0,0.0,0.0,0.0,0.0,0.0,0.0,0.0,0.0,0.0,0.0,0.0,2.0595,2.0595,2.0595,2.0576,2.0137,1.9854,0.0,0.0,0.0,0.0,0.0,0.0,0.0,0.0,0.0,0.0,0.0,0.0,0.0,0.0,0.0,0.0,0.0,0.0,0.0,0.0,0.0,0.0,0.0,0.0,0.0,0.0,0.0,0.0,0.0,0.0,0.0,0.0,0.0,0.0,0.0,0.0,0.0,0.0,0.0,0.0,0.0,0.0,0.0,0.0,0.0,0.0,0.0,0.0,0.0,0.0,0.0,0.0,0.0,0.0,0.0,0.0,0.0,0.0,0.0,0.0,0.0,0.0,0.0,0.0,0.0,0.0,0.0,0.0,0.0,0.0,0.0,0.0,0.0,0.0,0.0,0.0,0.0,0.0,0.0,0.0,0.0,0.0,0.0,0.0,0.0,0.0,0.0,0.0,0.0,0.0,0.0,0.0,0.0,0.0,0.0,0.0,0.0,0.0,0.0,0.0,0.0,0.0,0.0,0.0,0.0,0.0,0.0,0.0,0.0,2.084,2.083,2.082,2.0801,2.0537,2.0235,1.9912,0.0,0.0,0.0,0.0,0.0,0.0,0.0,0.0,0.0,0.0,0.0,0.0,0.0,0.0,0.0,0.0,0.0,0.0,0.0,0.0,0.0,0.0,0.0,0.0,0.0,0.0,0.0,0.0,0.0,0.0,0.0,0.0,0.0,0.0,0.0,0.0,0.0,0.0,0.0,0.0,0.0,0.0,0.0,0.0,0.0,0.0,0.0,0.0,0.0,0.0,0.0,0.0,0.0,0.0,0.0,0.0,0.0,0.0,0.0,0.0,0.0,0.0,0.0,0.0,0.0,0.0,0.0,0.0,0.0,0.0,0.0,0.0,0.0,0.0,0.0,0.0,0.0,0.0,0.0,0.0,0.0,0.0,0.0,0.0,0.0,0.0,0.0,0.0,0.0,0.0,0.0,0.0,0.0,0.0,0.0,0.0,0.0,0.0,0.0,0.0,0.0,0.0,0.0,0.0,0.0,0.0,0.0,0.0,2.1229,2.1259,2.1259,2.1259,2.122,2.083,0.0,0.0,0.0,0.0,0.0,0.0,0.0,0.0,0.0,0.0,0.0,0.0,0.0,0.0,0.0,0.0,0.0,0.0,0.0,0.0,0.0,0.0,0.0,0.0,0.0,0.0,0.0,0.0,0.0,0.0,0.0,0.0,0.0,0.0,0.0,0.0,0.0,0.0,0.0,0.0,0.0,0.0,0.0,0.0,0.0,0.0,0.0,0.0,0.0,0.0,0.0,0.0,0.0,0.0,0.0,0.0,0.0,0.0,0.0,0.0,0.0,0.0,0.0,0.0,0.0,0.0,0.0,0.0,0.0,0.0,0.0,0.0,0.0,0.0,0.0,0.0,0.0,0.0,0.0,0.0,0.0,0.0,0.0,0.0,0.0,0.0,0.0,0.0,0.0,0.0,0.0,0.0,0.0,0.0,0.0,0.0,0.0,0.0,0.0,0.0,0.0,0.0,0.0,0.0,0.0,0.0,0.0,0.0,0.0,2.1699,2.2012,2.2083,2.1944,2.1588,2.1422,0.0,0.0,0.0,0.0,0.0,0.0,0.0,0.0,0.0,0.0,0.0,0.0,0.0,0.0,0.0,0.0,0.0,0.0,0.0,0.0,0.0,0.0,0.0,0.0,0.0,0.0,0.0,0.0,0.0,0.0,0.0,0.0,0.0,0.0,0.0,0.0,0.0,0.0,0.0,0.0,0.0,0.0,0.0,0.0,0.0,0.0,0.0,0.0,0.0,0.0,0.0,0.0,0.0,0.0,0.0,0.0,0.0,0.0,0.0,0.0,0.0,0.0,0.0,0.0,0.0,0.0,0.0,0.0,0.0,0.0,0.0,0.0,0.0,0.0,0.0,0.0,0.0,0.0,0.0,0.0,0.0,0.0,0.0,0.0,0.0,0.0,0.0,0.0,0.0,0.0,0.0,0.0,0.0,0.0,0.0,0.0,0.0,0.0,0.0,0.0,0.0,0.0,0.0,0.0,0.0,0.0,0.0,0.0,2.1425,2.1896,2.2285,2.2671,2.3044,2.2227,2.1819,0.0,0.0,0.0,0.0,0.0,0.0,0.0,0.0,0.0,0.0,0.0,0.0,0.0,0.0,0.0,0.0,0.0,0.0,0.0,0.0,0.0,0.0,0.0,0.0,0.0,0.0,0.0,0.0,0.0,0.0,0.0,0.0,0.0,0.0,0.0,0.0,0.0,0.0,0.0,0.0,0.0,0.0,0.0,0.0,0.0,0.0,0.0,0.0,0.0,0.0,0.0,0.0,0.0,0.0,0.0,0.0,0.0,0.0,0.0,0.0,0.0,0.0,0.0,0.0,0.0,0.0,0.0,0.0,0.0,0.0,0.0,0.0,0.0,0.0,0.0,0.0,0.0,0.0,0.0,0.0,0.0,0.0,0.0,0.0,0.0,0.0,0.0,0.0,0.0,0.0,0.0,0.0,0.0,0.0,0.0,0.0,0.0,0.0,0.0,0.0,0.0,0.0,0.0,0.0,0.0,0.0,0.0,0.0,2.1415,2.1885,2.2306,2.3057,2.4112,2.2933,2.221,0.0,0.0,0.0,0.0,0.0,0.0,0.0,0.0,0.0,0.0,0.0,0.0,0.0,0.0,0.0,0.0,0.0,0.0,0.0,0.0,0.0,0.0,0.0,0.0,0.0,0.0,0.0,0.0,0.0,0.0,0.0,0.0,0.0,0.0,0.0,0.0,0.0,0.0,0.0,0.0,0.0,0.0,0.0,0.0,0.0,0.0,0.0,0.0,0.0,0.0,0.0,0.0,0.0,0.0,0.0,0.0,0.0,0.0,0.0,0.0,0.0,0.0,0.0,0.0,0.0,0.0,0.0,0.0,0.0,0.0,0.0,0.0,0.0,0.0,0.0,0.0,0.0,0.0,0.0,0.0,0.0,0.0,0.0,0.0,0.0,0.0,0.0,0.0,0.0,0.0,0.0,0.0,0.0,0.0,0.0,0.0,0.0,0.0,0.0,0.0,0.0,0.0,0.0,0.0,0.0,0.0,0.0,0.0,2.1425,2.1896,2.2505,2.3258,2.4175,2.3225,2.2808,0.0,0.0,0.0,0.0,0.0,0.0,0.0,0.0,0.0,0.0,0.0,0.0,0.0,0.0,0.0,0.0,0.0,0.0,0.0,0.0,0.0,0.0,0.0,0.0,0.0,0.0,0.0,0.0,0.0,0.0,0.0,0.0,0.0,0.0,0.0,0.0,0.0,0.0,0.0,0.0,0.0,0.0,0.0,0.0,0.0,0.0,0.0,0.0,2.5026,0.0,0.0,0.0,0.0,0.0,0.0,0.0,0.0,0.0,0.0,0.0,0.0,0.0,0.0,0.0,0.0,0.0,0.0,0.0,0.0,0.0,0.0,0.0,0.0,0.0,0.0,0.0,0.0,0.0,0.0,0.0,0.0,0.0,0.0,0.0,0.0,0.0,0.0,0.0,0.0,0.0,0.0,0.0,0.0,0.0,0.0,0.0,0.0,0.0,0.0,0.0,0.0,0.0,0.0,0.0,0.0,0.0,0.0,0.0,2.1281,2.2031,2.2475,2.3292,2.4446,2.3919,2.3564,0.0,0.0,0.0,0.0,0.0,0.0,0.0,0.0,0.0,0.0,0.0,0.0,0.0,0.0,0.0,0.0,0.0,0.0,0.0,0.0,0.0,0.0,0.0,0.0,0.0,0.0,0.0,0.0,0.0,0.0,0.0,0.0,0.0,0.0,0.0,0.0,0.0,0.0,0.0,0.0,0.0,0.0,0.0,0.0,0.0,0.0,0.0,0.0,0.0,0.0,0.0,0.0,0.0,0.0,0.0,0.0,0.0,0.0,0.0,0.0,0.0,0.0,0.0,0.0,0.0,0.0,0.0,0.0,0.0,0.0,0.0,0.0,0.0,0.0,0.0,0.0,0.0,0.0,0.0,0.0,0.0,0.0,0.0,0.0,0.0,0.0,0.0,0.0,0.0,0.0,0.0,0.0,0.0,0.0,0.0,0.0,0.0,0.0,0.0,0.0,0.0,0.0,0.0,0.0,0.0,0.0,0.0,2.0467,2.1214,2.2268,2.2493,2.3371,2.4914,2.4701,2.4254,2.3617,0.0,0.0,0.0,0.0,0.0,0.0,0.0,0.0,0.0,0.0,0.0,0.0,0.0,0.0,0.0,0.0,0.0,0.0,0.0,0.0,0.0,0.0,0.0,0.0,0.0,0.0,0.0,0.0,0.0,0.0,0.0,0.0,0.0,0.0,0.0,0.0,0.0,0.0,2.3881,2.4182,0.0,0.0,0.0,0.0,0.0,0.0,0.0,0.0,2.6296,0.0,0.0,0.0,0.0,0.0,0.0,0.0,0.0,0.0,0.0,0.0,0.0,0.0,0.0,0.0,0.0,0.0,0.0,0.0,0.0,0.0,0.0,0.0,0.0,0.0,0.0,0.0,0.0,0.0,0.0,0.0,0.0,0.0,0.0,0.0,0.0,0.0,0.0,0.0,0.0,0.0,0.0,0.0,0.0,0.0,0.0,0.0,0.0,0.0,0.0,0.0,0.0,0.0,0.0,0.0,0.0,2.04,2.0869,2.1637,2.2757,2.2991,2.3824,2.5326,2.497,2.4539,2.4068,0.0,0.0,0.0,0.0,0.0,0.0,0.0,0.0,0.0,0.0,0.0,0.0,0.0,0.0,0.0,0.0,0.0,0.0,0.0,0.0,0.0,0.0,0.0,0.0,0.0,0.0,0.0,0.0,0.0,0.0,0.0,0.0,0.0,0.0,0.0,0.0,0.0,0.0,0.0,2.4756,2.5018,0.0,0.0,0.0,0.0,0.0,0.0,0.0,0.0,2.7372,0.0,0.0,0.0,0.0,0.0,0.0,0.0,0.0,0.0,0.0,0.0,0.0,0.0,0.0,0.0,0.0,0.0,0.0,0.0,0.0,0.0,0.0,0.0,0.0,0.0,0.0,0.0,0.0,0.0,0.0,0.0,0.0,0.0,0.0,0.0,0.0,0.0,0.0,0.0,0.0,0.0,0.0,0.0,0.0,0.0,0.0,0.0,0.0,0.0,0.0,0.0,0.0,0.0,0.0,0.0,2.0907,2.1297,2.2058,2.3173,2.3556,2.4314,2.5495,2.5291,2.4792,0.0,0.0,0.0,0.0,0.0,0.0,0.0,0.0,0.0,0.0,0.0,0.0,0.0,0.0,0.0,0.0,0.0,0.0,0.0,0.0,0.0,0.0,0.0,0.0,0.0,0.0,0.0,0.0,0.0,0.0,0.0,0.0,0.0,0.0,0.0,0.0,0.0,0.0,0.0,0.0,2.6073,2.6607,2.7106,0.0,0.0,0.0,0.0,0.0,0.0,2.8607,2.8706,0.0,0.0,0.0,0.0,0.0,0.0,0.0,0.0,0.0,0.0,0.0,0.0,0.0,0.0,0.0,0.0,0.0,0.0,0.0,0.0,0.0,0.0,0.0,0.0,0.0,0.0,0.0,0.0,0.0,0.0,0.0,0.0,0.0,0.0,0.0,0.0,0.0,0.0,0.0,0.0,0.0,0.0,0.0,0.0,0.0,0.0,0.0,0.0,0.0,0.0,0.0,0.0,0.0,0.0,0.0,2.1505,2.1888,2.264,2.3714,2.4126,2.4791,2.5747,2.5471,2.4826,0.0,0.0,0.0,0.0,0.0,0.0,0.0,0.0,0.0,0.0,0.0,0.0,0.0,0.0,0.0,0.0,0.0,0.0,0.0,0.0,0.0,0.0,0.0,0.0,0.0,0.0,0.0,0.0,0.0,0.0,0.0,0.0,0.0,0.0,0.0,0.0,0.0,0.0,0.0,0.0,0.0,2.812,2.86,2.8595,0.0,0.0,0.0,0.0,2.9258,2.9755,0.0,0.0,0.0,0.0,0.0,0.0,0.0,0.0,0.0,0.0,0.0,0.0,0.0,0.0,0.0,0.0,0.0,0.0,0.0,0.0,0.0,0.0,0.0,0.0,0.0,0.0,0.0,0.0,0.0,0.0,0.0,0.0,0.0,0.0,0.0,0.0,0.0,0.0,0.0,0.0,0.0,0.0,0.0,0.0,0.0,0.0,0.0,0.0,0.0,0.0,0.0,0.0,0.0,0.0,0.0,0.0,2.2482,2.2899,2.3624,2.4574,2.4709,2.5293,2.6412,2.5283,2.4389,0.0,0.0,0.0,0.0,0.0,0.0,0.0,0.0,0.0,0.0,0.0,0.0,0.0,0.0,0.0,0.0,0.0,0.0,0.0,0.0,0.0,0.0,0.0,0.0,0.0,0.0,0.0,0.0,0.0,0.0,0.0,0.0,0.0,0.0,0.0,0.0,0.0,0.0,0.0,0.0,0.0,2.8709,2.9532,2.9628,2.9503,0.0,0.0,2.9941,3.0519,3.0797,0.0,0.0,0.0,0.0,0.0,0.0,0.0,0.0,0.0,0.0,0.0,0.0,0.0,0.0,0.0,0.0,0.0,0.0,0.0,0.0,0.0,0.0,0.0,0.0,0.0,0.0,0.0,0.0,0.0,0.0,0.0,0.0,0.0,0.0,0.0,0.0,0.0,0.0,0.0,0.0,0.0,0.0,0.0,0.0,0.0,0.0,0.0,0.0,0.0,0.0,0.0,0.0,0.0,0.0,0.0,2.3685,2.3514,2.3713,2.4156,2.4843,2.5031,2.5447,2.6135,2.5084,2.4245,0.0,0.0,0.0,0.0,0.0,0.0,0.0,0.0,0.0,0.0,0.0,0.0,0.0,0.0,0.0,0.0,0.0,0.0,0.0,0.0,0.0,0.0,0.0,0.0,0.0,0.0,0.0,0.0,0.0,0.0,0.0,0.0,0.0,0.0,0.0,0.0,0.0,0.0,0.0,0.0,0.0,0.0,3.0943,3.1172,0.0,0.0,0.0,3.0647,3.1164,0.0,0.0,0.0,0.0,0.0,0.0,0.0,0.0,0.0,0.0,0.0,0.0,0.0,0.0,0.0,0.0,0.0,0.0,0.0,0.0,0.0,0.0,0.0,0.0,0.0,0.0,0.0,0.0,0.0,0.0,0.0,0.0,0.0,0.0,0.0,0.0,0.0,0.0,0.0,0.0,0.0,0.0,0.0,0.0,0.0,0.0,0.0,0.0,0.0,0.0,0.0,0.0,0.0,0.0,0.0,0.0,0.0,2.4603,2.4742,2.4927,2.5185,2.5508,2.57,2.571,2.4825,0.0,0.0,0.0,0.0,0.0,0.0,0.0,0.0,0.0,0.0,0.0,0.0,0.0,0.0,0.0,0.0,0.0,0.0,0.0,0.0,0.0,0.0,0.0,0.0,0.0,0.0,0.0,2.6329,0.0,0.0,0.0,0.0,0.0,0.0,0.0,0.0,0.0,0.0,0.0,0.0,0.0,0.0,3.1515,3.1921,3.243,3.2587,0.0,0.0,3.1257,3.1497,3.147,3.1249,0.0,0.0,0.0,0.0,0.0,0.0,0.0,0.0,0.0,0.0,0.0,0.0,0.0,0.0,0.0,0.0,0.0,0.0,0.0,0.0,0.0,0.0,0.0,0.0,0.0,0.0,0.0,0.0,0.0,0.0,0.0,0.0,0.0,0.0,0.0,0.0,0.0,0.0,0.0,0.0,0.0,0.0,0.0,0.0,0.0,0.0,0.0,0.0,0.0,0.0,0.0,0.0,0.0,0.0,2.5863,2.5728,2.6169,2.6236,2.5954,2.626,2.6139,2.5529,2.4505,2.3636,0.0,0.0,0.0,0.0,0.0,0.0,0.0,0.0,0.0,0.0,0.0,0.0,0.0,0.0,0.0,0.0,0.0,0.0,0.0,0.0,0.0,0.0,0.0,0.0,0.0,0.0,0.0,0.0,0.0,0.0,0.0,0.0,0.0,0.0,0.0,0.0,0.0,0.0,0.0,0.0,0.0,3.2216,3.1964,3.2985,3.3401,0.0,3.2148,3.1937,3.1481,3.1807,3.1761,3.0773,0.0,0.0,0.0,0.0,0.0,0.0,0.0,0.0,0.0,0.0,0.0,0.0,0.0,0.0,0.0,0.0,0.0,0.0,0.0,0.0,0.0,0.0,0.0,0.0,0.0,0.0,0.0,0.0,0.0,0.0,0.0,0.0,0.0,0.0,0.0,0.0,0.0,0.0,0.0,0.0,0.0,0.0,0.0,0.0,0.0,0.0,0.0,0.0,0.0,0.0,0.0,0.0,0.0,2.6057,2.598,2.6385,2.6467,2.6182,2.6237,2.5856,2.5014,2.4132,2.3289,0.0,0.0,0.0,0.0,0.0,0.0,0.0,0.0,0.0,0.0,0.0,0.0,0.0,0.0,0.0,0.0,0.0,0.0,0.0,0.0,0.0,0.0,0.0,0.0,0.0,0.0,0.0,0.0,2.6379,2.6478,2.674,0.0,0.0,0.0,0.0,0.0,0.0,0.0,0.0,0.0,0.0,3.167,3.1868,3.2753,0.0,0.0,3.243,3.2139,3.1928,3.1501,3.1075,3.0663,3.0262,0.0,0.0,0.0,0.0,0.0,0.0,0.0,0.0,0.0,0.0,0.0,0.0,0.0,0.0,0.0,0.0,0.0,0.0,0.0,0.0,0.0,0.0,0.0,0.0,0.0,0.0,0.0,0.0,0.0,0.0,0.0,0.0,0.0,0.0,0.0,0.0,0.0,0.0,0.0,0.0,0.0,0.0,0.0,0.0,0.0,0.0,0.0,0.0,0.0,0.0,0.0,0.0,2.6349,2.6349,2.6871,2.6855,2.6262,2.6216,2.5648,2.4471,2.3638,2.2877,0.0,0.0,0.0,0.0,0.0,0.0,0.0,0.0,0.0,0.0,0.0,0.0,0.0,0.0,0.0,0.0,0.0,0.0,0.0,0.0,0.0,0.0,0.0,0.0,0.0,0.0,0.0,0.0,2.665,2.6893,2.7261,0.0,0.0,0.0,0.0,0.0,0.0,0.0,0.0,0.0,0.0,3.1261,3.15,3.2271,3.2778,3.2612,3.224,3.1903,3.1763,3.11,3.0538,3.0387,0.0,0.0,0.0,0.0,0.0,0.0,0.0,0.0,0.0,0.0,0.0,0.0,0.0,0.0,0.0,0.0,0.0,0.0,0.0,0.0,0.0,0.0,0.0,0.0,0.0,0.0,0.0,2.3638,0.0,0.0,2.5033,0.0,0.0,0.0,0.0,0.0,0.0,0.0,0.0,0.0,0.0,0.0,0.0,0.0,0.0,0.0,0.0,0.0,0.0,0.0,0.0,0.0,0.0,2.6849,2.6873,2.7858,2.7661,2.6191,2.6361,2.5621,2.3878,2.2971,2.2431,2.2206,0.0,0.0,0.0,0.0,0.0,0.0,0.0,0.0,0.0,0.0,0.0,0.0,0.0,0.0,0.0,0.0,0.0,0.0,0.0,0.0,0.0,0.0,0.0,0.0,0.0,0.0,2.6651,2.6968,2.7312,0.0,0.0,0.0,0.0,0.0,0.0,0.0,0.0,0.0,2.9794,3.0733,3.122,3.0728,3.1541,3.2028,3.1562,3.1446,3.1235,3.0773,3.0638,3.0412,0.0,0.0,0.0,0.0,0.0,0.0,0.0,0.0,0.0,0.0,0.0,0.0,0.0,0.0,0.0,0.0,0.0,0.0,0.0,0.0,0.0,0.0,0.0,0.0,0.0,0.0,0.0,2.4738,2.49,0.0,0.0,0.0,0.0,0.0,0.0,0.0,0.0,0.0,0.0,0.0,2.8864,2.9285,0.0,0.0,0.0,0.0,0.0,0.0,0.0,0.0,0.0,0.0,0.0,0.0,2.6873,2.6946,2.7832,2.7683,2.6404,2.6335,2.5425,2.3648,2.3063,2.2392,2.1569,0.0,0.0,0.0,0.0,0.0,0.0,0.0,0.0,0.0,0.0,0.0,0.0,0.0,0.0,0.0,0.0,0.0,0.0,0.0,0.0,0.0,0.0,0.0,0.0,0.0,2.8396,0.0,0.0,0.0,0.0,0.0,0.0,0.0,0.0,0.0,0.0,2.9779,2.9779,2.9779,3.0407,3.0799,3.0613,3.121,3.1738,0.0,0.0,0.0,0.0,0.0,0.0,0.0,0.0,0.0,0.0,0.0,0.0,0.0,0.0,3.1602,3.1446,3.1235,3.1145,3.1125,0.0,0.0,0.0,0.0,0.0,0.0,0.0,0.0,0.0,0.0,0.0,0.0,0.0,0.0,2.6275,2.6566,2.6938,0.0,0.0,0.0,0.0,0.0,0.0,0.0,0.0,2.9795,3.0255,3.027,3.0729,3.0783,3.0375,3.0453,2.9554,0.0,0.0,0.0,0.0,0.0,0.0,0.0,0.0,2.7003,2.7219,2.7938,2.7642,2.6319,2.6133,2.5251,2.3567,2.3183,2.2463,2.1361,2.1655,2.1986,0.0,0.0,0.0,0.0,0.0,0.0,0.0,0.0,0.0,0.0,0.0,0.0,0.0,0.0,0.0,0.0,0.0,0.0,0.0,0.0,0.0,0.0,0.0,2.9048,0.0,0.0,0.0,0.0,0.0,0.0,0.0,0.0,0.0,2.9943,2.9853,2.9779,2.9779,3.0105,3.0322,3.0322,0.0,0.0,0.0,0.0,0.0,0.0,0.0,3.0698,3.0156,3.0532,3.0924,3.1125,3.1451,3.1863,3.2426,0.0,0.0,3.206,3.1823,3.1687,3.1687,3.1522,3.1406,3.1406,3.1406,3.1406,0.0,0.0,0.0,0.0,2.5894,0.0,0.0,0.0,2.7781,2.8126,0.0,2.9563,0.0,0.0,0.0,0.0,2.9034,2.938,0.0,0.0,3.1495,3.1721,3.1136,3.2346,3.2389,3.1329,3.1558,3.1378,3.0733,2.9239,0.0,0.0,0.0,0.0,0.0,0.0,2.7214,2.7705,2.8244,2.7662,2.5913,2.5829,2.5084,2.3573,2.3302,2.2676,2.1655,2.2166,2.2548,2.2682,2.3505,0.0,0.0,0.0,0.0,0.0,0.0,0.0,0.0,0.0,0.0,0.0,0.0,0.0,0.0,0.0,0.0,0.0,0.0,0.0,0.0,2.9914,0.0,0.0,0.0,0.0,0.0,0.0,0.0,0.0,0.0,3.0849,3.0324,3.0007,2.9808,2.9798,0.0,0.0,0.0,0.0,2.988,2.9939,3.0322,3.0472,3.0015,3.0718,3.1185,3.0698,0.0,0.0,3.2129,3.2229,3.2405,3.2989,3.3065,3.3126,3.3075,3.2602,3.2254,3.2229,3.1863,3.1497,3.1472,3.1572,3.1557,2.8266,0.0,0.0,0.0,0.0,2.7673,2.835,2.9363,2.9562,2.9742,2.9886,3.0161,0.0,0.0,0.0,0.0,0.0,0.0,3.0992,3.1442,3.197,3.2538,3.3034,3.297,3.2996,3.314,3.3201,3.3183,3.3044,3.1433,2.9928,2.8608,0.0,0.0,0.0,0.0,2.7972,2.8143,2.8665,2.8085,2.6338,2.6297,2.5406,2.3547,2.3112,2.2849,2.2722,2.2575,2.3009,2.4123,2.469,0.0,0.0,0.0,0.0,0.0,0.0,0.0,0.0,0.0,0.0,0.0,0.0,0.0,0.0,0.0,0.0,0.0,0.0,0.0,3.1404,3.0995,3.0881,0.0,0.0,0.0,0.0,0.0,0.0,0.0,0.0,0.0,3.2186,3.1197,3.0337,0.0,0.0,3.0549,3.0392,3.0708,3.106,3.1451,3.1301,0.0,3.1486,3.1125,3.0899,3.1145,3.1612,3.2154,3.2742,3.2853,3.2903,3.3065,3.3126,3.3126,3.3101,3.2964,3.2864,3.2828,3.2713,3.2612,3.2612,3.2612,3.2587,3.0579,2.918,2.8472,2.8737,2.9609,2.9569,3.018,3.1266,3.1108,3.1164,3.1308,3.1478,3.0947,2.9909,3.012,0.0,0.0,0.0,3.2217,3.3038,3.2977,3.3294,3.3928,3.3539,3.3647,3.408,3.402,3.4042,3.4196,3.2854,3.1541,3.0209,0.0,2.8061,2.7846,2.8138,2.8423,2.861,2.8929,2.8251,2.6545,2.5892,2.4998,2.383,2.3411,2.3227,2.3184,2.3253,2.3784,2.4841,2.5545,2.6076,0.0,0.0,0.0,0.0,0.0,0.0,0.0,0.0,0.0,0.0,0.0,2.8833,2.9169,0.0,0.0,0.0,3.1443,3.2139,3.2232,3.2193,0.0,0.0,0.0,0.0,0.0,0.0,0.0,3.333,3.3321,3.3441,3.3743,3.2966,3.2055,3.1248,3.1125,3.1059,3.0929,0.0,3.1512,3.1838,3.1788,3.1763,3.1863,3.1712,3.1687,3.2024,3.2351,3.2641,3.3014,3.3126,3.3126,3.3126,3.3126,3.3126,3.3126,3.3126,3.3126,3.3126,3.3126,3.3126,3.3126,3.3126,3.3126,3.3034,3.2889,3.1248,3.1167,3.209,3.1702,3.2138,3.3126,3.2582,3.2554,3.2913,3.3214,3.2658,3.1463,3.106,0.0,3.3136,3.2714,3.3322,3.4726,3.4134,3.3962,3.4119,3.407,3.4193,3.4403,3.4204,3.4221,3.434,3.3635,3.288,3.2065,2.9702,2.8479,2.8422,2.8412,2.8668,2.914,2.915,2.8315,2.6586,2.5031,2.4228,2.4228,2.4021,2.3712,2.3339,2.4089,2.4737,2.5166,2.625,2.695,2.7149,0.0,0.0,0.0,0.0,0.0,0.0,0.0,0.0,0.0,0.0,0.0,0.0,0.0,0.0,0.0,3.2465,0.0,3.2667,3.3427,0.0,0.0,0.0,3.4335,3.4334,3.4832,3.5207,3.5244,0.0,0.0,3.5087,3.5013,3.4497,3.3195,3.2212,3.1549,3.1472,3.1522,3.1522,3.1647,3.1989,3.2079,3.1788,3.2376,3.2914,3.2853,3.3065,3.3065,3.309,3.3126,3.3126,3.3126,3.3126,3.3126,3.3126,3.3126,3.3126,3.3126,3.3126,3.3126,3.3126,3.3126,3.3126,3.5019,3.4982,3.4563,3.4049,3.3522,3.3398,3.3877,3.4659,3.4501,3.4528,3.4583,3.4171,3.3655,3.3038,3.2588,3.2866,3.369,3.3711,3.3908,3.4223,3.378,3.3872,3.4286,3.3856,3.3902,3.4382,3.434,3.4332,3.4357,3.3598,3.2826,3.2074,3.0885,3.0015,2.9463,2.9434,2.9518,2.9624,2.9634,2.8762,2.7009,2.5295,2.4412,2.4443,2.4084,2.3991,2.4198,2.4735,2.5518,2.6558,2.7546,2.8188,2.8444,2.8635,0.0,0.0,0.0,0.0,0.0,0.0,0.0,0.0,0.0,3.1368,3.16,0.0,3.2118,0.0,3.2889,3.3529,3.391,3.4592,0.0,0.0,3.5276,3.5554,3.5581,3.5706,3.5747,3.5657,3.5748,3.5983,3.6433,3.5939,3.5624,3.5836,3.4329,3.2945,3.2159,3.2426,3.2688,3.2677,3.2753,3.2839,3.2713,3.2889,3.2964,3.2491,3.2813,3.3101,3.3126,3.3126,3.3126,3.3126,3.3126,3.3126,3.3126,3.3126,3.3126,3.3126,3.3126,3.3126,3.3126,3.3126,3.3126,3.6332,3.6411,3.6411,3.6092,3.5559,3.511,3.5188,3.5555,3.5002,3.4814,3.4857,3.4309,3.3963,3.3707,3.3516,3.3802,3.4401,3.4306,3.4412,3.4631,3.4125,3.408,3.4382,3.4059,3.4088,3.4391,3.4382,3.4382,3.4366,3.3945,3.318,3.211,3.1654,3.1005,3.0205,3.0156,3.0246,3.0517,2.9876,2.8775,2.7109,2.5613,2.4714,2.4498,2.4002,2.4054,2.4797,2.5445,2.6283,2.738,2.8361,2.8948,2.9026,2.9302,2.9367,0.0,0.0,0.0,0.0,0.0,0.0,0.0,0.0,0.0,0.0,0.0,3.3231,3.3231,3.391,3.4483,3.4814,3.5433,3.581,3.581,3.5994,3.627,3.655,3.6579,3.6638,3.6844,3.6937,3.7108,3.7484,3.7129,3.6644,3.6397,3.5337,3.4257,3.3379,3.3166,3.3126,3.3126,3.3126,3.3126,3.3126,3.3126,3.2979,3.2727,3.2889,3.3126,3.3126,3.3126,3.3126,3.3126,3.3126,3.3126,3.3126,3.3126,3.3126,3.3126,3.3126,3.3126,3.3126,3.3126,3.3126,3.7134,3.7279,3.7318,3.7452,3.752,3.6571,3.6184,3.6109,3.4992,3.4529,3.451,3.4201,3.4002,3.3925,3.4088,3.4442,3.4975,3.4592,3.4719,3.5209,3.4661,3.4382,3.4382,3.4382,3.4382,3.4382,3.4382,3.4382,3.4382,3.4382,3.3618,3.2155,3.2092,3.163,3.0753,3.0638,3.0884,3.1396,3.0004,2.862,2.7305,2.598,2.5065,2.4605,2.4012,2.4196,2.52,2.6102,2.6963,2.7837,2.887,2.9413,2.9296,2.9764,2.9953,0.0,3.1078,0.0,0.0,0.0,0.0,0.0,0.0,0.0,0.0,3.45,3.4644,3.4652,3.5171,3.5508,3.5508,3.6063,3.6431,3.6422,3.651,3.6762,3.7351,3.7409,3.7622,3.8154,3.8212,3.8202,3.8164,3.8212,3.7558,3.6346,3.5742,3.5241,3.4604,3.3715,3.3126,3.3126,3.3126,3.3126,3.3126,3.3126,3.309,3.3101,3.309,3.3126,3.3126,3.3126,3.3126,3.3126,3.3126,3.3126,3.3126,3.3126,3.3126,3.3126,3.3126,3.3126,3.3126,3.3126,3.3126,3.726,3.7308,3.7481,3.7567,3.7548,3.6892,3.6588,3.656,3.6313,3.5667,3.4754,3.4843,3.4586,3.4097,3.4247,3.4436,3.4506,3.4432,3.4478,3.4574,3.4449,3.4382,3.4382,3.4382,3.4382,3.4382,3.4382,3.4382,3.4382,3.4382,3.3627,3.2128,3.2092,3.1806,3.1251,0.0,0.0,0.0,2.983,2.8797,2.8288,2.6649,2.5546,2.5084,2.4956,0.0,2.5442,2.65,2.7374,2.8041,2.9121,0.0,0.0,0.0,0.0,0.0,0.0,0.0,0.0,0.0,0.0,0.0,3.4395,3.4419,3.5099,3.5639,3.5929,3.5958,3.6054,3.6141,3.6141,3.6713,3.711,3.7119,3.7525,3.7903,3.8019,3.8028,3.8086,3.8183,3.8212,3.8212,3.8212,3.8212,3.808,3.7529,3.6484,3.5608,3.5325,3.3995,3.3133,3.3126,3.3126,3.3126,3.3126,3.3126,3.3126,3.3126,3.3126,3.3126,3.3126,3.3126,3.3126,3.3126,3.3126,3.3126,3.3126,3.3126,3.3126,3.3126,3.3126,3.3126,3.3126,3.3126,3.3126,3.7433,3.7615,3.7711,3.7815,0.0,3.7267,3.6806,3.6462,3.5955,3.5252,3.449,3.4652,3.4565,3.4247,3.434,3.4382,3.4382,3.4382,3.4382,3.4382,3.4382,3.4382,3.4382,3.4382,3.4382,3.4382,3.4382,3.4382,3.4357,3.3997,3.3233,3.2101,3.1709,3.133,3.1025,3.0984,3.1009,3.0999,3.0211,2.9381,2.8522,2.7007,2.5972,2.5505,2.4987,0.0,0.0,0.0,0.0,0.0,0.0,0.0,0.0,3.1117,0.0,3.2363,3.312,3.3646,3.3828,3.4094,3.44,3.4735,3.485,3.4901,3.4901,3.6092,3.6721,3.6452,3.6936,3.7349,3.7332,3.7598,3.7738,3.7757,3.8019,3.8212,3.8212,3.8212,3.8212,3.8212,3.8212,3.8212,3.8212,3.8212,3.7796,3.7048,3.6197,3.5315,3.448,3.3636,3.3136,3.3126,3.3126,3.3126,3.3126,3.3126,3.3126,3.3126,3.3126,3.3126,3.3126,3.3126,3.3126,3.3126,3.3126,3.3126,3.3126,3.3126,3.3126,3.3126,3.3126,3.3126,3.3126,3.3126,3.3126,3.7615,3.7891,3.7929,3.8033,3.8144,3.7447,3.6751,3.6065,3.5132,0.0,0.0,3.4468,3.4574,3.4565,3.4565,3.4574,3.4565,3.4449,3.4382,3.4382,3.4382,3.4441,3.4574,3.4574,3.4574,3.4574,3.4574,3.4507,3.4378,3.3589,3.2826,3.2083,3.1295,3.0758,3.0532,3.0984,3.0994,3.0487,3.0498,2.9985,2.8778,2.7507,2.6558,2.5934,2.5233,2.5377,2.6505,2.7124,2.7965,2.9067,2.9375,2.9979,3.1071,3.147,3.2146,3.3199,3.367,3.4,3.4145,3.4306,3.445,3.4559,3.5294,3.5574,3.511,3.6611,3.7425,3.7044,3.797,3.8564,3.8538,3.8324,3.8212,3.8212,3.8212,3.8212,3.8212,3.8212,3.8212,3.8212,3.8212,3.8212,3.8212,3.8212,3.771,3.6435,3.6078,3.5214,3.3747,3.3261,3.3126,3.3126,3.3126,3.3126,3.3126,3.3126,3.3126,3.3126,3.3126,3.3126,3.3126,3.3126,3.3126,3.3126,3.3126,3.3126,3.3126,3.3126,3.3126,3.3126,3.3126,3.3126,3.3126,3.3126,3.3126,3.7853,3.7901,3.81,3.8174,3.8106,3.6954,3.6083,3.5462,3.4766,3.441,3.4415,3.498,3.5276,3.5284,3.5267,3.5267,3.5209,3.4661,3.4382,3.4382,3.4382,3.4719,3.5238,3.5229,3.5267,3.5247,3.5267,3.4968,3.4364,3.3572,3.2817,3.211,3.1295,3.0568,2.9998,3.0447,3.0447,2.993,3.0198,3.0158,2.9773,2.8757,2.7622,2.6505,2.6971,2.7091,2.6792,2.7753,2.8647,2.9321,2.9614,3.011,3.0895,3.1773,3.256,3.3197,3.3902,3.4315,3.434,3.4382,3.466,3.5248,3.636,3.7237,3.7704,3.804,3.8448,3.8908,3.9069,3.9161,3.9125,3.858,3.8212,3.8212,3.8212,3.8212,3.8212,3.8212,3.8212,3.8212,3.8212,3.8212,3.8212,3.8212,3.8108,3.773,3.6776,3.5996,3.4402,3.3581,3.3154,3.3126,3.3126,3.3126,3.3126,3.3126,3.3126,3.3126,3.3126,3.3126,3.3126,3.3126,3.3126,3.3126,3.3126,3.3126,3.3126,3.3126,3.3126,3.3126,3.3126,3.3126,3.3126,3.3126,3.3126,3.7967,3.8081,3.8155,3.8212,3.8135,3.7206,3.6489,3.5897,3.5552,3.525,3.4939,3.491,3.4852,3.4881,3.5238,3.5392,3.5392,3.5424,3.5436,3.5436,3.5436,3.559,3.5868,3.5897,3.5868,3.5889,3.5897,3.5714,3.5311,3.3861,3.3074,3.2958,3.1536,3.0577,3.0251,3.0196,3.0206,3.0231,3.0092,2.9979,2.988,2.8977,2.8195,2.7588,2.7494,2.7535,2.774,2.8225,2.8831,2.958,2.974,3.034,3.148,3.2001,3.2712,3.3773,3.4196,3.4382,3.4382,3.4723,3.5227,3.5905,3.6454,3.7437,3.8777,3.9291,3.9507,3.9479,3.9712,3.9718,3.9347,3.8629,3.8212,3.8212,3.8212,3.8212,3.8212,3.8212,3.8212,3.8212,3.8212,3.8212,3.8212,3.8212,3.7995,3.7529,3.6423,3.5114,3.3937,3.339,3.3126,3.3126,3.3126,3.3126,3.3126,3.3126,3.3126,3.3126,3.3126,3.3126,3.3126,3.3126,3.3126,3.3126,3.3126,3.3126,3.3126,3.3126,3.3126,3.3126,3.3126,3.3126,3.3126,3.3126,3.3126,3.8033,3.8202,3.8212,3.8124,3.797,3.7506,3.7003,3.6539,3.6364,3.6112,3.5781,3.527,3.505,3.5116,3.5598,3.5819,3.5868,3.617,3.6277,3.6277,3.6277,3.6373,3.6519,3.6539,3.6539,3.651,3.651,3.6284,3.5662,3.403,3.3214,3.3148,3.1608,3.0799,3.0773,3.0357,3.0357,3.0723,3.0246,2.993,2.9794,2.914,2.8692,2.845,2.8011,2.7971,2.8484,2.8683,2.9101,2.974,2.9963,3.0684,3.1983,3.2263,3.2969,3.4213,3.4382,3.4382,3.4408,3.4872,3.5475,3.6139,3.6305,3.7274,3.9172,3.9913,4.022,4.0035,4.022,4.0148,3.9576,3.8692,3.8212,3.8212,3.8212,3.8212,3.8212,3.8212,3.8212,3.8212,3.8212,3.8212,3.8212,3.8212,3.7986,3.7251,3.5726,3.4434,3.381,3.3432,3.3126,3.3126,3.3126,3.3126,3.3126,3.3126,3.3126,3.3126,3.3126,3.3126,3.3126,3.3126,3.3126,3.3126,3.3126,3.3126,3.3126,3.3126,3.3126,3.3126,3.3126,3.3126,3.3126,3.3126,3.3126,3.8183,3.8212,3.8212,3.7874,3.7438,3.7351,3.7264,3.7148,3.6559,3.6626,3.7041,3.7052,3.6974,3.7041,3.7041,3.7061,3.7003,3.6539,3.6335,3.6335,3.6306,3.6617,3.7186,3.7206,3.7206,3.7206,3.7215,3.63,3.4716,3.4063,3.3084,3.1777,3.1407,3.1311,3.1321,3.1235,3.1271,3.1311,3.0799,3.0306,2.9829,2.9711,2.9297,2.8534,2.9189,2.9209,2.8623,2.9268,2.9702,2.9862,3.0447,3.1184,3.2046,3.272,3.3477,3.4315,3.4382,3.4382,3.4391,3.4458,3.4819,3.5457,3.607,3.7274,3.9211,3.9471,4.0046,4.0856,4.0728,4.0291,4.0217,3.9003,3.823,3.8212,3.8212,3.8212,3.8212,3.8212,3.8212,3.8212,3.8212,3.8212,3.8212,3.8212,3.8127,3.7701,3.6326,3.5173,3.479,3.3827,3.3111,3.3126,3.3126,3.3126,3.3126,3.3126,3.3126,3.3126,3.3126,3.3126,3.3126,3.3126,3.3126,3.3126,3.3126,3.3126,3.3126,3.3126,3.3126,3.3126,3.3126,3.3126,3.3126,3.3126,3.3126,3.8212,3.8212,3.8212,3.8057,3.7845,3.7825,3.7845,3.7787,3.7525,3.7583,3.7816,3.7825,3.7409,3.6751,3.7119,3.7293,3.7293,3.7389,3.7409,3.7418,3.7409,3.7583,3.7825,3.7816,3.7854,3.7845,3.7816,3.7108,3.5825,3.4733,3.3235,3.1619,3.1723,3.1863,3.1838,3.1572,3.1406,3.1361,3.0874,3.0347,2.9854,2.9779,2.9634,2.9346,2.9624,2.9653,2.9336,2.9624,2.9779,2.9837,3.0523,3.1277,3.2055,3.2791,3.3555,3.4298,3.4382,3.4382,3.4382,3.4756,3.509,3.5391,3.6009,3.7095,3.8626,3.8837,3.9394,4.0524,4.0202,3.9585,3.9157,3.8537,3.8212,3.8212,3.8212,3.8212,3.8212,3.8212,3.8212,3.8212,3.8212,3.8212,3.8212,3.8212,3.7749,3.6971,3.5959,3.5366,3.4345,3.3492,3.3197,3.3126,3.3126,3.3126,3.3126,3.3126,3.3126,3.3126,3.3126,3.3126,3.3126,3.3126,3.3126,3.3126,3.3126,3.3126,3.3126,3.3126,3.3126,3.3126,3.3126,3.3126,3.3126,3.3126,3.3126,3.8212,3.8212,3.8212,3.8212,3.8212,3.8212,3.8212,3.8212,3.8212,3.8212,3.8212,3.8212,3.7699,3.6974,3.7331,3.7554,3.7612,3.799,3.8212,3.8212,3.8212,3.8212,3.8212,3.8212,3.8212,3.8165,3.7929,3.7251,3.6148,3.46,3.3115,3.2072,3.2265,3.243,3.2405,3.2024,3.1873,3.1834,3.1336,3.0849,3.0482,3.0181,2.993,2.9814,2.9779,2.9779,2.9779,2.9779,2.9914,3.011,3.0827,3.159,3.2362,3.3108,3.3799,3.4306,3.4382,3.4382,3.4382,3.4856,3.5144,3.5172,3.5731,3.6699,3.7799,3.8127,3.873,3.9847,3.9445,3.8813,3.8611,3.8324,3.8212,3.8212,3.8212,3.8212,3.8212,3.8212,3.8212,3.8212,3.8212,3.8212,3.8212,3.8174,3.7701,3.6415,3.5799,3.5142,3.3799,3.3326,3.3126,3.3126,3.3126,3.3126,3.3126,3.3126,3.3126,3.3126,3.3126,3.3126,3.3126,3.3126,3.3126,3.3126,3.3126,3.3126,3.3126,3.3126,3.3126,3.3126,3.3126,3.3126,3.3126,3.3126,3.3126,3.8212,3.8212,3.8212,3.8231,3.8231,3.8231,3.8231,3.826,3.8231,3.8231,3.8202,3.8231,3.8173,3.8077,3.8173,3.8173,3.8144,3.8164,3.8212,3.8212,3.8212,3.8212,3.8212,3.8212,3.8193,3.8042,3.7414,3.6215,3.4604,3.3119,3.2558,3.3,3.2989,3.304,3.3014,3.2939,3.2979,3.2788,3.229,3.2054,3.1903,3.1024,3.0331,2.993,2.9779,2.9779,2.9779,2.9779,3.011,3.0811,3.1563,3.2344,3.309,3.3877,3.4323,3.4374,3.4382,3.4382,3.4382,3.4458,3.4492,3.4551,3.5162,3.6026,3.7241,3.7439,3.8029,3.9227,3.8749,3.8527,3.8939,3.8509,3.8221,3.8212,3.8212,3.8212,3.8212,3.8212,3.8212,3.8212,3.8212,3.8212,3.8212,3.8212,3.7682,3.6786,3.6049,3.5163,3.4257,3.3539,3.3176,3.3126,3.3126,3.3126,3.3126,3.3126,3.3126,3.3126,3.3126,3.3126,3.3126,3.3126,3.3126,3.3126,3.3126,3.3126,3.3126,3.3126,3.3126,3.3126,3.3126,3.3126,3.3126,3.3126,3.3126,3.8212,3.8212,3.8212,3.8434,3.8831,3.8841,3.8841,3.8841,3.8841,3.8609,3.8318,3.8638,3.8841,3.886,3.9238,3.8947,3.826,3.8212,3.8212,3.8212,3.8212,3.8212,3.8212,3.8202,3.7891,3.7366,3.7048,3.6036,3.4444,3.3299,3.2889,3.3065,3.3126,3.3126,3.3126,3.3126,3.2939,3.2552,3.229,3.2028,3.1738,3.1321,3.1009,3.0793,3.0166,2.9779,2.9779,2.9779,3.0139,3.0876,3.1673,3.2434,3.3161,3.3954,3.4382,3.4382,3.4382,3.4382,3.4382,3.4382,3.4382,3.4428,3.5015,3.575,3.6564,3.7086,3.7664,3.8331,3.8408,3.838,3.8473,3.8323,3.8212,3.8212,3.8212,3.8212,3.8212,3.8212,3.8212,3.8212,3.8212,3.8212,3.8071,3.772,3.7029,3.6168,3.5362,3.4558,3.3789,3.3261,3.3126,3.3126,3.3126,3.3126,3.3126,3.3126,3.3126,3.3126,3.3126,3.3126,3.3126,3.3126,3.3126,3.3126,3.3126,3.3126,3.3126,3.3126,3.3126,3.3126,3.3126,3.3126,3.3126,3.3126,3.3126,3.8522,3.8551,3.8734,3.8957,3.9189,3.9431,3.9479,3.947,3.9479,3.9218,3.8957,3.9276,3.9479,3.9567,3.9925,3.9692,3.887,3.8841,3.8802,3.8802,3.8812,3.8725,3.8551,3.8522,3.793,3.6977,3.6498,3.5617,3.4384,3.3824,3.3542,3.3391,3.3355,3.3276,3.314,3.3126,3.2878,3.2541,3.2491,3.2315,3.1964,3.1748,3.1673,3.1537,3.0783,3.0216,3.0055,2.9914,3.0282,3.1193,3.1819,3.2541,3.3511,3.4111,3.4382,3.4382,3.4382,3.4382,3.4382,3.4382,3.4478,3.4719,3.5131,3.5703,3.6519,3.7023,3.7554,3.8028,3.8212,3.8212,3.8212,3.8212,3.8212,3.8212,3.8212,3.8212,3.8212,3.8212,3.8212,3.8212,3.8212,3.8108,3.7777,3.727,3.6443,3.5376,3.4693,3.4073,3.3326,3.3126,3.3126,3.3126,3.3126,3.3126,3.3126,3.3126,3.3126,3.3126,3.3126,3.3126,3.3126,3.3126,3.3126,3.3126,3.3126,3.3126,3.3126,3.3126,3.3126,3.3126,3.3126,3.3126,3.3126,3.3126,3.3126,3.9189,3.9276,3.9828,3.9741,3.9479,3.9905,4.0128,4.0108,4.0128,4.0031,3.9886,4.007,4.0118,4.0147,4.0263,4.0176,4.0147,4.0128,4.0031,3.9925,3.9944,3.9663,3.9218,3.9074,3.8233,3.6783,3.5743,3.4826,3.4076,3.4321,3.4313,3.3972,3.3847,3.3607,3.3151,3.314,3.3101,3.3025,3.3025,3.3014,3.3025,3.2491,3.2204,3.2164,3.1637,3.1145,3.0673,3.018,3.0636,3.1944,3.2191,3.2881,3.4143,3.4403,3.4382,3.4382,3.4382,3.4382,3.4382,3.4441,3.4785,3.5209,3.5421,3.6072,3.6983,3.7322,3.7622,3.8086,3.8212,3.8212,3.8212,3.8212,3.8212,3.8212,3.8212,3.8212,3.8212,3.8212,3.8183,3.8118,3.8071,3.7777,3.7183,3.6659,3.5976,3.4899,3.4345,3.3968,3.3272,3.3126,3.3126,3.3126,3.3126,3.3126,3.3126,3.3126,3.3126,3.3126,3.3126,3.3126,3.3126,3.3126,3.3126,3.3126,3.3126,3.3126,3.3126,3.3126,3.3126,3.3126,3.3126,3.3126,3.3126,3.3126,3.3126,3.9799,3.9828,4.0031,4.0263,4.0495,4.0728,4.0796,4.0786,4.0786,4.0525,4.0244,4.0593,4.0786,4.0902,4.125,4.1453,4.1493,4.1424,4.0989,4.0243,4.0098,3.9992,3.9671,3.9129,3.7967,3.6358,3.5302,3.474,3.4544,3.4653,3.4577,3.4427,3.4098,3.3822,3.3632,3.3316,3.3126,3.3126,3.3126,3.3126,3.309,3.2939,3.2803,3.2753,3.2265,3.1863,3.1687,3.132,3.1856,3.3249,3.3477,3.4021,3.479,3.4652,3.4412,3.4382,3.4382,3.4382,3.447,3.4835,3.5142,3.5529,3.6159,3.6818,3.7273,3.767,3.797,3.8202,3.8212,3.8212,3.8212,3.8212,3.8212,3.8212,3.8212,3.8212,3.8212,3.8212,3.792,3.7414,3.7318,3.6922,3.6148,3.5665,3.5073,3.4481,3.3894,3.3379,3.3186,3.3126,3.3126,3.3126,3.3126,3.3126,3.3126,3.3126,3.3126,3.3126,3.3126,3.3126,3.3126,3.3126,3.3126,3.3126,3.3126,3.3126,3.3126,3.3126,3.3126,3.3126,3.3126,3.3126,3.3126,3.3126,3.3126,4.0466,4.0495,4.0728,4.0902,4.1144,4.1337,4.1482,4.1453,4.1493,4.1221,4.1028,4.1289,4.1453,4.1551,4.1918,4.2092,4.2082,4.2082,4.1453,4.0428,4.0302,4.0035,3.9342,3.8235,3.7207,3.6112,3.5319,3.5004,3.5029,3.5216,3.5216,3.4979,3.4653,3.4388,3.4212,3.3861,3.3632,3.3456,3.3395,3.3291,3.314,3.3126,3.3126,3.304,3.2717,3.2556,3.254,3.2688,3.3136,3.3906,3.4565,3.5237,3.5659,3.5357,3.5116,3.5087,3.4922,3.4864,3.5096,3.5288,3.5654,3.613,3.6838,3.7409,3.7612,3.8048,3.8202,3.8212,3.8212,3.8212,3.8212,3.8212,3.8212,3.8212,3.8212,3.8212,3.8212,3.8212,3.7815,3.7241,3.6922,3.6334,3.5372,3.4817,3.423,3.3947,3.3464,3.3126,3.3126,3.3126,3.3126,3.3126,3.3126,3.3126,3.3126,3.3126,3.3126,3.3126,3.3126,3.3126,3.3126,3.3126,3.3126,3.3126,3.3126,3.3126,3.3126,3.3126,3.3126,3.3126,3.3126,3.3126,3.3126,3.3126,3.3126,4.1163,4.125,4.1802,4.1686,4.1308,4.1802,4.2005,4.2073,4.2063,4.2005,4.2005,4.1976,4.2034,4.2063,4.1929,4.1845,4.1978,4.1689,4.1089,4.0367,4.0097,3.9552,3.8342,3.7189,3.6483,3.6056,3.5722,3.5556,3.557,3.5993,3.6118,3.5581,3.5419,3.5207,3.4792,3.4728,3.4374,3.3997,3.3897,3.3621,3.3226,3.3126,3.3126,3.3126,3.3065,3.3014,3.3117,3.3958,3.444,3.4389,3.5604,3.6284,3.6356,3.6335,3.617,3.6103,3.5723,3.5752,3.5996,3.5927,3.6081,3.6983,3.7302,3.7564,3.8048,3.8144,3.8212,3.8212,3.8212,3.8212,3.8212,3.8212,3.8212,3.8212,3.8212,3.8212,3.8212,3.8212,3.7786,3.7135,3.6786,3.6235,3.4713,3.4377,3.3873,3.3443,3.3144,3.3111,3.3126,3.3126,3.3126,3.3126,3.3126,3.3126,3.3126,3.3126,3.3126,3.3126,3.3126,3.3126,3.3126,3.3126,3.3126,3.3126,3.3126,3.3126,3.3126,3.3126,3.3126,3.3126,3.3126,3.3126,3.3126,3.3126,3.3126,4.1841,4.187,4.2034,4.2005,4.187,4.2034,4.2082,4.2082,4.2082,4.2082,4.2082,4.2082,4.204,4.2009,4.1296,4.0993,4.0866,4.0341,3.9442,3.8653,3.8529,3.8363,3.7983,3.7516,3.6916,3.6345,3.6156,3.618,3.6168,3.6318,3.6318,3.6143,3.5707,3.5458,3.5269,3.4929,3.4653,3.4427,3.4087,3.3872,3.3682,3.3305,3.3126,3.3126,3.3115,3.3136,3.3261,3.4576,3.5787,3.6417,3.6767,3.7023,3.6974,3.6626,3.6393,3.6364,3.6228,3.6141,3.6335,3.6606,3.6945,3.7273,3.7699,3.8028,3.8173,3.8212,3.8212,3.8212,3.8212,3.8212,3.8212,3.8212,3.8212,3.8212,3.8155,3.8136,3.8146,3.8183,3.7853,3.7067,3.6344,3.5491,3.4579,3.3852,3.3432,3.3176,3.3126,3.3126,3.3126,3.3126,3.3126,3.3126,3.3126,3.3126,3.3126,3.3126,3.3126,3.3126,3.3126,3.3126,3.3126,3.3126,3.3126,3.3126,3.3126,3.3126,3.3126,3.3126,3.3126,3.3126,3.3126,3.3126,3.3126,3.3126,3.3126,4.2082,4.2082,4.2082,4.2082,4.2082,4.2082,4.2082,4.2082,4.2082,4.2082,4.202,4.1619,4.1472,4.1349,4.0453,4.0005,3.9907,3.9453,3.8709,3.7853,3.7453,3.7245,3.7185,3.7199,3.6896,3.6476,3.6405,3.6393,3.6393,3.6405,3.6405,3.6343,3.6068,3.5894,3.5881,3.5604,3.5266,3.5043,3.4703,3.4502,3.4248,3.3947,3.3646,3.3531,3.3463,3.3568,3.4204,3.5112,3.6229,3.7289,3.767,3.768,3.7641,3.7313,3.7099,3.709,3.6887,3.68,3.7061,3.7293,3.7409,3.768,3.8057,3.8173,3.8212,3.8212,3.8212,3.8212,3.8212,3.8212,3.8212,3.8212,3.8212,3.8165,3.7872,3.7672,3.7653,3.7625,3.7048,3.6165,3.544,3.4827,3.3979,3.34,3.3176,3.3126,3.3126,3.3126,3.3126,3.3126,3.3126,3.3126,3.3126,3.3126,3.3126,3.3126,3.3126,3.3126,3.3126,3.3126,3.3126,3.3126,3.3126,3.3126,3.3126,3.3126,3.3126,3.3126,3.3126,3.3126,3.3126,3.3126,3.3126,3.3126,3.3126,4.2082,4.2082,4.1999,4.202,4.2061,4.1999,4.1957,4.2071,4.1897,4.1845,4.1679,4.0877,4.0475,4.04,3.9508,3.9055,3.9055,3.8742,3.827,3.7497,3.6922,3.6546,3.657,3.6593,3.6511,3.6405,3.6405,3.6405,3.6405,3.6405,3.6405,3.6393,3.6368,3.6368,3.6292,3.6304,3.6093,3.5656,3.5419,3.5143,3.4803,3.4603,3.4301,3.4048,3.3997,3.4648,3.5401,3.5971,3.6617,3.8252,3.8251,3.8144,3.8154,3.8173,3.8144,3.7999,3.7632,3.7583,3.797,3.768,3.7622,3.8028,3.8144,3.8212,3.8212,3.8212,3.8212,3.8212,3.826,3.8405,3.8386,3.8299,3.8212,3.8089,3.7472,3.6951,3.6776,3.6757,3.6165,3.4786,3.4527,3.3989,3.3528,3.3154,3.3126,3.3126,3.3126,3.3126,3.3126,3.3126,3.3126,3.3126,3.3126,3.3126,3.3126,3.3126,3.3126,3.3126,3.3126,3.3126,3.3126,3.3126,3.3126,3.3126,3.3126,3.3126,3.3126,3.3126,3.3126,3.3126,3.3126,3.3126,3.3126,3.3126,3.3126,4.2082,4.204,4.1244,4.137,4.1877,4.1286,4.1349,4.1978,4.1233,4.0919,4.0699,3.9924,3.953,3.9464,3.8563,3.8103,3.8001,3.7497,3.6849,3.6721,3.6558,3.6405,3.6405,3.6405,3.6405,3.6405,3.6405,3.6405,3.6405,3.6405,3.6405,3.6405,3.6405,3.6405,3.6405,3.6393,3.6368,3.6132,3.5757,3.5494,3.533,3.4979,3.4728,3.4527,3.4513,3.5399,3.6651,3.7008,3.7655,3.8513,3.8551,3.8347,3.8231,3.8212,3.8212,3.8173,3.8106,3.8057,3.8135,3.8115,3.8057,3.8231,3.8347,3.8212,3.8212,3.8289,3.826,3.8318,3.8667,3.8947,3.886,3.8463,3.8233,3.7986,3.7309,3.6561,3.6058,3.5889,3.5608,3.523,3.4662,3.4314,3.4042,3.3358,3.3197,3.3133,3.3126,3.3126,3.3126,3.3126,3.3126,3.3126,3.3266,3.3291,3.333,3.3406,3.3531,3.3517,3.3467,3.3442,3.3416,3.3316,3.3391,3.3266,3.3126,3.3126,3.3126,3.3126,3.3126,3.3126,3.3126,3.3126,3.3126,3.3126,3.3126,4.1113,4.107,4.0552,4.0484,4.0673,4.0429,4.0484,4.0606,4.0206,3.9956,3.976,3.8955,3.8541,3.8466,3.7626,3.7141,3.7048,3.6687,3.6417,3.6417,3.6405,3.6405,3.6405,3.6405,3.6405,3.6418,3.6405,3.6405,3.6405,3.6405,3.6405,3.6405,3.6405,3.6405,3.6405,3.6405,3.6393,3.6343,3.6118,3.5919,3.5855,3.5666,3.5292,3.5043,3.4933,3.5557,3.7186,3.735,3.8202,3.9126,3.9276,3.8783,3.8318,3.8202,3.8202,3.8212,3.8212,3.8212,3.8231,3.8492,3.8657,3.8696,3.8889,3.9073,3.9102,3.9073,3.9102,3.916,3.9354,3.9528,3.9209,3.8957,3.8495,3.7519,3.6815,3.5959,3.5271,3.5036,3.4831,3.4522,3.3968,3.3789,3.3535,3.3304,3.3219,3.3126,3.3126,3.3126,3.3126,3.3126,3.3126,3.3176,3.3416,3.3531,3.3596,3.3746,3.4037,3.4098,3.4123,3.4098,3.4098,3.3922,3.3732,3.3531,3.3291,3.3126,3.3126,3.3126,3.3126,3.3126,3.3126,3.3126,3.3126,3.314,3.3126,4.0026,3.9976,3.9759,3.9481,3.9263,3.9508,3.9521,3.9282,3.9033,3.8988,3.8798,3.8001,3.7577,3.7407,3.6838,3.644,3.6417,3.644,3.6405,3.6405,3.6405,3.6405,3.6405,3.6405,3.6569,3.6582,3.6468,3.643,3.6405,3.6405,3.6405,3.6405,3.6405,3.6405,3.6405,3.6405,3.6405,3.6393,3.6343,3.6306,3.6343,3.6292,3.6043,3.568,3.566,3.6204,3.7596,3.812,3.8727,4.0125,4.0263,3.9625,3.885,3.8492,3.8483,3.8551,3.8676,3.8696,3.8812,3.9044,3.9334,3.9363,3.9741,4.0002,4.0002,3.9915,3.9915,3.9944,4.0002,3.9867,3.9383,3.8929,3.8216,3.7168,3.6068,3.5169,3.4605,3.4356,3.4017,3.3475,3.3422,3.34,3.3304,3.3133,3.3111,3.3126,3.3151,3.3126,3.3151,3.3151,3.3176,3.3126,3.3291,3.3581,3.3696,3.3836,3.4162,3.4438,3.4539,3.4589,3.4552,3.4377,3.4087,3.3721,3.3506,3.3366,3.3241,3.319,3.3165,3.3151,3.3126,3.3126,3.3151,3.3165,3.3241,4.0026,3.9904,3.8686,3.8568,3.9026,3.847,3.8576,3.9015,3.8319,3.8024,3.791,3.7071,3.6723,3.6654,3.6558,3.643,3.6468,3.6494,3.6494,3.6519,3.6544,3.6544,3.6594,3.6644,3.6934,3.7274,3.7021,3.6581,3.6569,3.6405,3.6594,3.648,3.6494,3.6519,3.6544,3.6418,3.6494,3.6505,3.6455,3.6405,3.6405,3.6393,3.6368,3.6214,3.65,3.7498,3.8627,3.9591,4.0371,4.0868,4.0921,4.0505,3.9983,3.9799,3.9741,3.9625,3.9605,3.9538,3.9625,3.9828,3.9944,3.9963,4.0147,4.0186,4.0186,4.0156,4.0291,4.0144,4.0135,4.003,3.9924,3.8928,3.786,3.6781,3.573,3.4721,3.4455,3.421,3.3922,3.346,3.3266,3.3241,3.3391,3.3442,3.3391,3.3431,3.3456,3.3366,3.3291,3.3291,3.3291,3.3226,3.3126,3.3467,3.3771,3.3947,3.4187,3.4527,3.4703,3.4778,3.4753,3.4703,3.4477,3.4424,3.4098,3.3822,3.3646,3.3431,3.338,3.3456,3.3316,3.3151,3.3416,3.3657,3.3746,3.9427,3.9315,3.8328,3.8154,3.8409,3.7809,3.7727,3.8002,3.7397,3.7059,3.6931,3.6605,3.6569,3.6658,3.6494,3.6544,3.677,3.6808,3.6959,3.716,3.7223,3.7235,3.7185,3.7198,3.75,3.7776,3.7449,3.7398,3.7625,3.7374,3.7235,3.7223,3.7223,3.7223,3.7135,3.6984,3.6833,3.677,3.6569,3.643,3.6393,3.6405,3.6405,3.6558,3.6896,3.7784,3.9044,3.953,4.0459,4.1348,4.1628,4.1435,4.1231,4.1028,4.0796,4.0292,4.0147,4.0118,4.0205,4.035,4.0602,4.067,4.0873,4.1105,4.1134,4.1162,4.0796,4.0459,4.0306,3.9978,3.9189,3.8474,3.7651,3.6579,3.5622,3.5026,3.467,3.4403,3.4161,3.3922,3.4059,3.4109,3.4022,3.3997,3.3796,3.3746,3.3771,3.3671,3.3556,3.3632,3.3707,3.3807,3.3807,3.4123,3.4388,3.4438,3.4539,3.4815,3.5004,3.5079,3.5216,3.5266,3.5454,3.5566,3.5139,3.4463,3.4162,3.3961,3.3861,3.3771,3.3696,3.3707,3.3947,3.4137,3.4262,3.8906,3.8831,3.8241,3.799,3.7939,3.755,3.7373,3.7286,3.6982,3.6843,3.6708,3.6758,3.7009,3.7148,3.7034,3.6996,3.7349,3.7374,3.7588,3.7814,3.7889,3.7965,3.799,3.8028,3.8103,3.8467,3.8216,3.8366,3.8329,3.8253,3.8191,3.8115,3.814,3.8191,3.8077,3.7588,3.7424,3.7173,3.6833,3.6544,3.6418,3.6405,3.6405,3.6476,3.6556,3.7566,3.8994,3.9585,4.0513,4.1569,4.2034,4.2034,4.2063,4.2092,4.1599,4.0728,4.0525,4.0495,4.0641,4.096,4.1308,4.1337,4.1773,4.1976,4.1902,4.1563,4.1298,4.0763,4.0273,3.973,3.8698,3.812,3.7341,3.6411,3.5824,3.551,3.4973,3.4737,3.4862,3.4803,3.494,3.4815,3.4625,3.4438,3.4212,3.4187,3.4212,3.4212,3.4112,3.4288,3.4388,3.4577,3.4728,3.4993,3.5168,3.5143,3.5241,3.5415,3.5579,3.5705,3.583,3.5968,3.613,3.613,3.5817,3.5203,3.4865,3.4502,3.4327,3.4212,3.4162,3.4187,3.4338,3.4603,3.4828,3.8906,3.8843,3.8278,3.799,3.804,3.7914,3.7902,3.7889,3.7777,3.7802,3.7663,3.7764,3.7764,3.7864,3.7889,3.7864,3.7965,3.799,3.814,3.8304,3.8241,3.8191,3.8065,3.799,3.863,3.9069,3.8931,3.8517,3.8555,3.873,3.8856,3.8906,3.8956,3.8818,3.8856,3.8341,3.7914,3.7814,3.7386,3.6909,3.6569,3.6494,3.6468,3.6644,3.719,3.8024,3.9155,3.9847,4.0919,4.1835,4.2082,4.2082,4.2082,4.2082,4.2063,4.1918,4.186,4.186,4.1744,4.1773,4.186,4.1831,4.2034,4.2092,4.1918,4.1328,4.0827,4.0646,3.9891,3.9015,3.8154,3.7575,3.6834,3.6182,3.5588,3.5249,3.4879,3.5292,3.5406,3.5517,3.5604,3.5278,3.5002,3.484,3.4664,3.4653,3.4653,3.4678,3.4753,3.494,3.5052,3.5203,3.5241,3.5492,3.5408,3.5483,3.5506,3.5716,3.5892,3.6018,3.6043,3.6068,3.6318,3.6242,3.6029,3.5842,3.5467,3.5104,3.4803,3.4714,3.4739,3.4689,3.4628,3.4968,3.5406,3.9358,3.9308,3.8756,3.868,3.8843,3.8291,3.8178,3.8391,3.8165,3.799,3.799,3.8002,3.8165,3.8517,3.8793,3.9145,3.9295,3.9069,3.917,3.9182,3.9069,3.8944,3.8994,3.8969,3.9371,3.9471,3.9484,3.9295,3.917,3.9496,3.9898,4.0161,4.0186,4.0111,3.9697,3.9233,3.8831,3.8454,3.7977,3.7563,3.7262,3.7022,3.6859,3.6881,3.7484,3.827,3.9193,4.0119,4.1057,4.1866,4.2082,4.2082,4.2082,4.2082,4.2092,4.2092,4.2063,4.2063,4.2063,4.2082,4.2082,4.2082,4.2082,4.2082,4.1916,4.1149,4.0221,3.9826,3.8955,3.8137,3.747,3.6919,3.6619,3.6153,3.5741,3.5677,3.5554,3.5755,3.6043,3.6155,3.618,3.5817,3.5566,3.5541,3.5378,3.5241,3.5317,3.5417,3.5492,3.5629,3.5741,3.5803,3.5803,3.5792,3.5606,3.5483,3.5294,3.5417,3.5618,3.5768,3.5869,3.5981,3.6256,3.6405,3.6267,3.6105,3.5956,3.5668,3.5305,3.5305,3.5392,3.5342,3.5317,3.5641,3.5969,3.971,3.966,3.9258,3.9333,3.9597,3.8768,3.8668,3.9007,3.8642,3.8442,3.8454,3.863,3.8981,3.9446,3.991,4.0173,4.0374,4.0074,4.0074,4.0086,3.9948,3.9672,3.9546,3.9635,3.9722,3.9898,3.9697,3.9923,4.0325,4.0425,4.0588,4.1088,4.0789,4.0725,4.0462,4.0023,3.9609,3.907,3.8529,3.814,3.7889,3.76,3.7437,3.7429,3.767,3.8211,3.93,3.9809,4.0663,4.1866,4.2082,4.2082,4.2082,4.2082,4.2082,4.2082,4.2082,4.2082,4.2082,4.2082,4.2082,4.203,4.1783,4.1566,4.1472,4.0717,3.9738,3.8877,3.8012,3.7187,3.6629,3.645,3.6434,3.6395,3.6314,3.638,3.6393,3.6318,3.6256,3.6292,3.6318,3.6343,3.6192,3.6292,3.6155,3.5881,3.5919,3.6081,3.6143,3.6143,3.6155,3.6142,3.6117,3.6091,3.5942,3.5693,3.5392,3.5317,3.5506,3.5693,3.5956,3.6118,3.6343,3.6405,3.6405,3.6343,3.618,3.5969,3.5807,3.5855,3.5892,3.5993,3.613,3.6343,3.6381,3.971,3.971,3.966,3.966,3.971,3.9622,3.9584,3.9572,3.9559,3.9509,3.9559,4.0036,4.0474,4.0976,4.1001,4.0901,4.0563,4.0487,4.0337,4.0036,3.9722,3.9873,3.9923,3.9973,4.0061,4.0387,4.03,4.084,4.1393,4.0978,4.0789,4.0588,4.0876,4.0663,4.0437,4.0261,4.0049,3.9584,3.9107,3.8655,3.8341,3.8065,3.7977,3.7864,3.768,3.8077,3.9782,3.9901,4.0502,4.2123,4.2052,4.208,4.208,4.2032,4.2029,4.2245,4.2227,4.2175,4.2071,4.2067,4.2082,4.1835,4.1391,4.0901,4.088,3.9088,3.8115,3.799,3.7315,3.6746,3.6452,3.6405,3.6405,3.6405,3.6405,3.6405,3.6405,3.6393,3.6368,3.6393,3.6405,3.6405,3.6405,3.6405,3.6405,3.6118,3.6118,3.6256,3.6281,3.6318,3.6343,3.6343,3.6343,3.6343,3.6343,3.613,3.5929,3.5867,3.5993,3.613,3.6292,3.6405,3.643,3.6405,3.6405,3.6405,3.6393,3.623,3.6143,3.6306,3.6368,3.6318,3.6292,3.6368,3.6405,3.971,3.971,3.971,3.971,3.971,3.971,3.971,3.971,3.971,3.9898,4.0249,4.075,4.1316,4.1719,4.187,4.177,4.1544,4.1557,4.1128,4.0864,4.0688,4.0675,4.0675,4.0763,4.0989,4.1393,4.1356,4.1607,4.2423,4.1845,4.1644,4.1493,4.1202,4.0775,4.0575,4.0223,4.0086,4.0099,3.9722,3.9358,3.9496,3.8831,3.8567,3.8517,3.8686,3.9231,4.0449,4.1015,4.174,4.2202,4.2042,4.1986,4.2011,4.1902,4.2077,4.2444,4.2497,4.2275,4.1948,4.1959,4.2082,4.1887,4.1244,4.0556,4.0393,3.8875,3.8016,3.7557,3.6994,3.6504,3.643,3.643,3.6405,3.6405,3.6443,3.6519,3.6519,3.6569,3.6544,3.6594,3.6494,3.6405,3.6405,3.6405,3.6405,3.6368,3.6393,3.6405,3.6405,3.6405,3.6405,3.6405,3.6405,3.6405,3.6405,3.6405,3.6405,3.643,3.643,3.6494,3.6544,3.643,3.643,3.643,3.6443,3.6443,3.6443,3.6418,3.6405,3.6405,3.6405,3.6393,3.6393,3.6405,3.6405,3.971,3.971,3.971,3.971,3.971,3.971,3.971,3.971,3.971,4.0124,4.075,4.1163,4.1656,4.2034,4.1959,4.1733,4.1594,4.1644,4.1567,4.1441,4.1391,4.1628,4.1754,4.1893,4.2108,4.2537,4.2551,4.2738,4.3463,4.2788,4.2587,4.2448,4.2082,4.1466,4.0474,4.0036,3.996,4.0261,4.0074,3.9848,4.0049,3.9559,3.9145,3.9158,3.9281,3.989,4.0691,4.1225,4.1939,4.2249,4.2183,4.1774,4.1781,4.1875,4.1981,4.2376,4.2524,4.2147,4.1973,4.1508,4.1607,4.1486,4.073,4.0288,3.9833,3.8796,3.7922,3.7542,3.699,3.6644,3.6644,3.672,3.6909,3.7034,3.7098,3.7148,3.6984,3.6934,3.6859,3.6808,3.6808,3.6984,3.7009,3.706,3.6708,3.6619,3.6405,3.6405,3.6405,3.6405,3.6405,3.6405,3.6405,3.6405,3.6405,3.6405,3.643,3.6505,3.6544,3.672,3.6745,3.6644,3.6644,3.6758,3.6733,3.6594,3.6494,3.6455,3.643,3.6405,3.6405,3.6405,3.6405,3.6405,3.6405,3.9722,3.971,3.971,3.971,3.9747,3.971,3.971,3.9722,3.9823,4.0387,4.1252,4.1428,4.1692,4.2034,4.1831,4.1466,4.1165,4.1428,4.1603,4.1717,4.2258,4.2562,4.2799,4.3011,4.3251,4.3514,4.3553,4.3804,4.4554,4.3729,4.3528,4.3478,4.3087,4.2133,4.0638,3.9985,4.001,4.0387,4.0074,3.9973,3.9948,3.9823,3.9672,3.9573,3.96,4.0094,4.0886,4.0941,4.1655,4.2417,4.1603,4.1398,4.192,4.1302,4.1485,4.2267,4.1599,4.1576,4.2076,4.0835,4.0579,4.0889,4.0272,3.9702,3.9333,3.8569,3.7845,3.756,3.7258,3.7185,3.7185,3.721,3.7449,3.7563,3.7638,3.7613,3.7424,3.7374,3.7299,3.7223,3.7613,3.7914,3.7914,3.7789,3.7274,3.6934,3.6544,3.6443,3.6519,3.6544,3.6594,3.6405,3.6405,3.6405,3.6405,3.6405,3.6455,3.6556,3.6594,3.6695,3.6984,3.7123,3.7123,3.7148,3.716,3.7135,3.6795,3.6455,3.648,3.6494,3.6418,3.6405,3.6405,3.6405,3.6405,4.0249,4.0199,3.9848,3.9898,4.0174,3.9848,3.971,3.9823,4.0437,4.119,4.187,4.2247,4.2247,4.2261,4.2272,4.1843,4.1364,4.2521,4.2872,4.2559,4.3302,4.3776,4.4027,4.4127,4.4367,4.4758,4.4758,4.4895,4.5708,4.4859,4.4733,4.4733,4.398,4.2875,4.182,4.1128,4.1065,4.143,4.1128,4.0789,4.07,4.0412,4.0086,3.9798,3.981,4.03,4.1074,4.0877,4.1432,4.2131,4.1173,4.0971,4.1358,4.0825,4.1054,4.1758,4.1477,4.1253,4.0956,4.0003,3.9869,4.0182,4.0052,3.9443,3.9303,3.8517,3.7999,3.7802,3.7751,3.7751,3.7739,3.7739,3.7864,3.7864,3.7889,3.7889,3.7789,3.7814,3.7814,3.7764,3.799,3.8115,3.8153,3.8341,3.799,3.7814,3.7537,3.711,3.7085,3.6959,3.6909,3.6544,3.6405,3.6405,3.6418,3.6669,3.6695,3.6745,3.6619,3.6494,3.6833,3.7525,3.75,3.7449,3.7575,3.7675,3.7361,3.7009,3.672,3.6594,3.6669,3.6519,3.6405,3.6405,3.6405,4.0775,4.075,4.0412,4.0589,4.0953,4.0487,4.0437,4.0927,4.1768,4.2308,4.2487,4.2663,4.2676,4.2487,4.2347,4.2559,4.198,4.3098,4.3926,4.3653,4.4443,4.4905,4.5106,4.5167,4.5397,4.5698,4.5799,4.5974,4.616,4.5924,4.5748,4.5487,4.4859,4.4181,4.3251,4.266,4.2032,4.2197,4.187,4.1555,4.143,4.1115,4.0638,4.0501,4.0542,4.088,4.1132,4.1311,4.142,4.1434,4.103,4.0552,4.0686,4.0629,4.0744,4.128,4.1749,4.1301,4.0524,4.0326,4.0452,4.0885,4.0053,3.9572,3.9461,3.9006,3.8629,3.8417,3.8316,3.8316,3.8316,3.8316,3.8366,3.8366,3.8517,3.8517,3.8366,3.8404,3.8467,3.8417,3.8467,3.8492,3.8517,3.8668,3.8718,3.8642,3.8592,3.8115,3.765,3.75,3.7374,3.706,3.6884,3.7034,3.711,3.7148,3.7123,3.6972,3.6934,3.6921,3.7549,3.8341,3.8027,3.7826,3.8115,3.8228,3.7952,3.765,3.7349,3.7173,3.7173,3.6934,3.6519,3.6544,3.6669,4.1339,4.1314,4.1314,4.1617,4.206,4.1742,4.2133,4.2975,4.3489,4.3478,4.3076,4.2663,4.2738,4.2799,4.2044,4.2194,4.2975,4.3664,4.4166,4.4629,4.5206,4.5698,4.5984,4.611,4.606,4.616,4.6235,4.6135,4.6311,4.6185,4.62,4.615,4.5623,4.5246,4.4694,4.4105,4.3377,4.3126,4.2824,4.2548,4.2347,4.1868,4.1617,4.1505,4.1623,4.1586,4.1572,4.141,4.1578,4.1376,4.0747,4.0696,4.0567,4.0236,4.058,4.1051,4.1758,4.1286,4.0869,4.0842,4.0967,4.1076,4.0321,3.9887,3.9687,3.9548,3.9221,3.8982,3.8906,3.8906,3.8906,3.8982,3.9057,3.9233,3.9446,3.9333,3.907,3.907,3.9157,3.9233,3.9333,3.9358,3.932,3.9396,3.9195,3.9245,3.912,3.8894,3.8442,3.8128,3.7977,3.7739,3.7663,3.7814,3.7814,3.7663,3.7588,3.7449,3.7851,3.8014,3.8642,3.8843,3.8617,3.8517,3.8768,3.8768,3.8404,3.8165,3.799,3.7864,3.7638,3.7449,3.706,3.7135,3.7261,4.1959,4.1895,4.1478,4.1868,4.2864,4.384,4.4041,4.3664,4.3765,4.3865,4.4127,4.3991,4.3714,4.3539,4.3625,4.3614,4.3966,4.4482,4.4985,4.5422,4.5748,4.606,4.6235,4.6311,4.6311,4.6311,4.6311,4.6311,4.6311,4.6311,4.6311,4.6235,4.61,4.601,4.5849,4.5547,4.4844,4.4267,4.389,4.3628,4.3416,4.3062,4.2811,4.2674,4.2336,4.2197,4.197,4.1528,4.1575,4.1267,4.11,4.1105,4.1091,4.0985,4.1143,4.1183,4.1414,4.1331,4.1142,4.1214,4.1389,4.1378,4.0738,4.0387,4.0161,3.9998,3.9735,3.9609,3.9509,3.9484,3.9534,3.9597,3.9672,3.9823,3.9948,3.9798,3.9609,3.971,3.9798,3.9798,3.9923,3.981,3.9823,3.966,3.9496,3.9622,3.9622,3.9471,3.9257,3.8944,3.8592,3.8391,3.8417,3.8517,3.8216,3.799,3.7965,3.799,3.8429,3.863,3.863,3.8756,3.8944,3.912,3.9245,3.9095,3.8768,3.863,3.8567,3.8153,3.7902,3.7789,3.7701,3.7776,3.7801,4.2838,4.2813,4.2682,4.3148,4.4105,4.5271,4.5372,4.4844,4.478,4.492,4.4905,4.4679,4.4554,4.4518,4.4503,4.4629,4.4905,4.5397,4.5799,4.5874,4.615,4.6235,4.6286,4.6311,4.6311,4.6311,4.6311,4.6311,4.6311,4.6311,4.6311,4.6311,4.6311,4.6311,4.621,4.6085,4.5874,4.5382,4.5006,4.4794,4.4543,4.4242,4.389,4.3628,4.3115,4.2813,4.2526,4.1993,4.1628,4.1364,4.1289,4.1289,4.1277,4.1277,4.1277,4.1344,4.1623,4.1725,4.1706,4.1932,4.2069,4.2019,4.158,4.143,4.0927,4.0576,4.04,4.0236,4.0149,4.0074,4.0149,4.0186,4.0275,4.035,4.0275,4.0161,4.0236,4.0337,4.0362,4.0337,4.0261,4.0124,3.9973,3.9848,3.9722,3.9772,3.9923,4.0049,3.9935,3.9785,3.9396,3.9069,3.912,3.9182,3.8843,3.8693,3.8793,3.8868,3.8931,3.9032,3.8793,3.9094,3.9685,3.9735,3.9635,3.9409,3.9157,3.922,3.9107,3.8768,3.8605,3.8693,3.8605,3.8467,3.8454,4.3815,4.3905,4.4453,4.4805,4.5447,4.5974,4.6235,4.6311,4.6135,4.5999,4.5497,4.5006,4.5106,4.5321,4.5181,4.5432,4.5708,4.6085,4.615,4.6286,4.6261,4.6311,4.6311,4.6311,4.6311,4.6311,4.6311,4.6311,4.6311,4.6311,4.6311,4.6311,4.6311,4.6311,4.6311,4.6311,4.6135,4.601,4.5723,4.5472,4.5372,4.5056,4.4715,4.4654,4.4242,4.374,4.3291,4.2713,4.2135,4.1742,4.164,4.1765,4.1841,4.1891,4.1841,4.1879,4.2359,4.2448,4.2587,4.2738,4.3112,4.3087,4.2852,4.2436,4.182,4.1003,4.0713,4.0775,4.0688,4.0675,4.0725,4.0675,4.0713,4.0763,4.0725,4.07,4.08,4.0851,4.0851,4.0826,4.0725,4.0613,4.084,4.0778,4.0865,4.0425,4.0526,4.0852,4.0927,4.0864,4.0462,4.0049,3.9985,4.0061,3.9922,3.981,3.9898,3.9923,3.9911,4.0162,4.0438,4.0526,4.0563,4.0312,3.9998,3.9798,3.9622,3.9584,3.9609,3.9672,3.9584,3.9709,3.9622,3.9383,3.9132,4.4027,4.4478,4.5045,4.5121,4.498,4.5884,4.6311,4.6311,4.6311,4.621,4.6085,4.5959,4.5884,4.5934,4.5859,4.6035,4.6185,4.6311,4.6311,4.6286,4.6286,4.6311,4.6311,4.6311,4.6311,4.6311,4.6311,4.6311,4.6311,4.6311,4.6311,4.6311,4.6311,4.6311,4.6311,4.6311,4.6286,4.6286,4.616,4.6024,4.5959,4.601,4.5884,4.5683,4.5296,4.4959,4.4532,4.4217,4.374,4.3349,4.3661,4.3786,4.3837,4.3747,4.3536,4.3374,4.3489,4.3402,4.3352,4.3352,4.3514,4.3402,4.3039,4.2838,4.2322,4.1441,4.1051,4.1202,4.1277,4.1289,4.1289,4.1227,4.1202,4.1227,4.1252,4.1302,4.1364,4.1389,4.1364,4.1314,4.1214,4.1366,4.1607,4.1758,4.1884,4.206,4.2261,4.2473,4.2523,4.2459,4.1968,4.1542,4.1051,4.1026,4.0926,4.0951,4.1028,4.1242,4.1331,4.1658,4.2034,4.177,4.148,4.0763,4.0324,4.0261,4.0099,3.976,3.9836,4.0174,4.0337,4.0362,4.06,4.0487,4.0086,4.3966,4.4353,4.516,4.5296,4.5196,4.5949,4.6311,4.6311,4.6311,4.6311,4.6311,4.6311,4.6311,4.6311,4.6311,4.6311,4.6311,4.6311,4.6311,4.6311,4.6311,4.6311,4.6311,4.6311,4.6311,4.6311,4.6311,4.6311,4.6311,4.6311,4.6311,4.6286,4.6286,4.6261,4.6286,4.6286,4.6235,4.6286,4.6235,4.6235,4.6235,4.6286,4.6286,4.6135,4.5849,4.5587,4.5296,4.493,4.4529,4.4252,4.4378,4.4414,4.4313,4.4127,4.4138,4.4001,4.3926,4.3865,4.3765,4.3664,4.3639,4.3427,4.3126,4.2889,4.3201,4.2434,4.2108,4.2183,4.1845,4.182,4.2007,4.2007,4.2057,4.2108,4.1957,4.1856,4.2082,4.2244,4.2258,4.2233,4.2183,4.2233,4.2411,4.2436,4.2548,4.2637,4.3014,4.3327,4.3503,4.3678,4.3274,4.2958,4.2482,4.2144,4.2082,4.2082,4.2133,4.2386,4.2676,4.2749,4.285,4.2624,4.2297,4.1706,4.1254,4.1028,4.079,4.04,4.0412,4.0775,4.0876,4.0926,4.1188,4.1428,4.1026,4.4016,4.408,4.5045,4.5512,4.5587,4.606,4.6311,4.6311,4.6311,4.6311,4.6311,4.6311,4.6311,4.6311,4.6311,4.6311,4.6311,4.6311,4.6311,4.6311,4.6311,4.6311,4.6311,4.6311,4.6311,4.6311,4.6311,4.6311,4.6311,4.6311,4.6286,4.6301,4.625,4.6185,4.616,4.6085,4.5934,4.5859,4.5859,4.5974,4.6085,4.6235,4.621,4.6075,4.5864,4.5612,4.5347,4.5156,4.484,4.4654,4.4654,4.4564,4.4514,4.4328,4.4364,4.4263,4.3991,4.389,4.379,4.3564,4.3614,4.3514,4.3201,4.3151,4.3427,4.3327,4.3014,4.2763,4.2425,4.2375,4.2562,4.2688,4.2738,4.2763,4.2537,4.2386,4.2649,4.29,4.29,4.2939,4.2939,4.2939,4.3051,4.3076,4.3176,4.3251,4.3452,4.3689,4.394,4.4077,4.4001,4.3976,4.3826,4.3539,4.3277,4.3212,4.3263,4.3578,4.3804,4.3765,4.3714,4.3704,4.3427,4.2788,4.2372,4.197,4.1605,4.1227,4.1314,4.1439,4.1428,4.1517,4.1793,4.1943,4.1793,4.4895,4.4503,4.5211,4.5512,4.5587,4.606,4.6311,4.6311,4.6311,4.6311,4.6311,4.6311,4.6311,4.6311,4.6311,4.6311,4.6311,4.6311,4.6311,4.6311,4.621,4.6261,4.6235,4.6135,4.6261,4.6261,4.6235,4.6311,4.6261,4.6261,4.6261,4.6235,4.5748,4.5648,4.5598,4.5432,4.5231,4.5282,4.5282,4.5307,4.5432,4.5608,4.5949,4.5949,4.5999,4.5799,4.5698,4.5834,4.5673,4.5347,4.4855,4.464,4.4529,4.4403,4.4414,4.4389,4.4091,4.4052,4.394,4.3639,4.3639,4.3564,4.3251,4.3025,4.3176,4.3176,4.2975,4.2975,4.2763,4.2763,4.2875,4.2875,4.2925,4.2925,4.2799,4.2774,4.2925,4.2975,4.2975,4.3014,4.3039,4.3226,4.3539,4.3639,4.384,4.394,4.4102,4.4328,4.4303,4.4439,4.4564,4.4654,4.4729,4.4754,4.4403,4.4328,4.4403,4.4719,4.4769,4.4443,4.4428,4.492,4.4583,4.3653,4.3165,4.2763,4.2409,4.203,4.2055,4.2119,4.2071,4.2135,4.2397,4.2498,4.2308]}]]